GFSGBSN_500_spd_000.txt.gz
Wind_Speed
14 15 15 15 15 15 17 18 18 17 17 18 18 18 18 19 18 17 16 16 16 17 17 14 12 14 21 21 18 13 11 11 11 13 19 25 21 23 19 22 21 17 14 14 12 12 13
15 15 16 17 17 17 16 17 16 17 18 18 19 19 18 19 17 18 17 17 16 16 16 17 14 14 15 23 21 20 16 13 11 13 18 22 24 23 23 24 23 19 16 15 14 13 13
14 14 15 15 16 16 17 16 15 16 18 19 20 19 18 18 18 19 19 19 17 15 15 16 18 16 17 14 24 24 22 16 16 17 16 23 30 26 20 22 25 19 15 16 17 16 16
18 18 18 18 18 18 18 19 20 20 20 19 19 19 19 19 20 22 23 22 19 17 17 18 18 19 21 17 15 26 27 24 21 20 20 22 29 31 25 23 21 18 15 12 18 19 17
21 21 22 22 21 20 21 21 22 23 23 23 22 21 21 21 21 21 22 22 22 21 21 22 20 19 22 21 18 18 27 29 27 25 24 22 26 26 28 24 24 21 15 15 19 22 20
22 24 25 26 26 27 27 26 24 24 25 24 24 26 26 22 24 23 23 24 24 23 24 23 22 22 20 20 21 19 22 30 32 31 30 26 24 24 25 28 24 22 19 17 18 20 20
26 29 30 30 31 32 33 33 33 30 28 27 26 27 28 24 25 26 26 25 25 25 25 24 24 22 23 22 18 22 23 26 33 36 35 31 26 22 20 21 21 20 20 17 23 22 21
30 30 31 33 33 32 31 31 31 32 32 33 29 29 30 28 27 28 28 29 27 27 24 27 26 21 24 22 21 22 22 26 30 36 39 40 30 27 29 25 24 26 25 21 21 27 25
31 32 33 34 34 33 34 33 32 32 34 35 35 34 35 34 33 32 31 31 31 31 29 26 30 30 27 28 24 24 23 23 26 35 42 41 35 35 34 32 31 30 29 25 24 29 28
36 37 36 33 34 34 36 38 40 39 39 39 40 37 36 40 38 38 36 34 34 34 34 29 29 32 28 28 28 26 23 23 25 29 39 45 45 43 37 35 33 35 30 28 28 32 30
39 40 38 38 37 38 38 40 41 41 42 44 45 45 42 40 40 41 39 39 37 36 37 35 32 29 29 29 27 26 24 23 23 28 36 43 47 43 45 37 36 33 31 38 31 32 30
47 45 43 43 44 46 47 47 44 44 45 46 47 48 47 48 48 45 44 41 40 40 41 36 33 31 30 30 30 28 27 25 25 27 33 38 46 49 47 45 40 37 38 40 39 33 38
49 50 51 51 51 52 53 52 51 49 48 47 48 50 53 51 51 50 48 47 45 46 42 40 37 35 36 36 35 33 32 30 28 27 29 37 44 48 52 52 48 45 42 38 38 38 35
62 63 64 62 61 62 60 59 57 55 54 53 51 52 54 55 52 53 53 51 51 48 44 45 43 42 39 39 39 39 36 34 31 30 32 35 43 44 54 57 53 49 48 41 38 35 32
67 68 70 70 71 70 66 65 65 62 60 58 55 55 56 55 55 54 56 56 52 51 51 50 47 45 46 46 42 40 40 38 36 32 32 35 38 44 53 58 58 55 58 44 34 33 33
72 75 75 76 76 74 73 72 72 71 66 62 59 58 61 61 60 60 62 57 56 54 54 50 51 50 48 49 49 42 41 39 37 32 30 35 37 41 50 57 59 64 55 54 47 43 39
85 85 81 80 79 79 79 78 77 76 72 69 67 67 66 69 68 68 67 65 61 63 57 55 52 53 53 48 49 46 40 42 39 38 32 31 36 36 47 56 59 63 64 63 48 46 41
86 89 89 89 89 89 90 90 88 83 79 77 74 70 70 73 73 74 73 70 70 66 65 59 57 56 55 52 47 44 45 40 42 37 36 30 33 36 41 48 55 49 60 57 59 59 47
93 95 96 96 95 94 93 91 89 83 74 68 68 71 73 73 72 71 70 72 71 70 66 61 59 59 55 55 48 47 47 42 40 37 36 30 33 31 37 38 50 55 55 52 56 49 52
96 96 94 93 92 88 85 81 76 68 62 61 62 66 70 72 71 70 69 71 71 70 68 61 59 60 59 57 53 48 48 42 41 39 41 38 32 36 33 34 37 52 64 60 53 63 59
89 90 89 87 86 80 72 65 61 59 58 60 61 63 65 62 64 66 66 68 69 71 75 66 64 61 61 58 53 48 48 47 43 42 41 40 38 32 35 36 30 38 43 57 70 67 60
85 85 84 76 68 63 57 55 54 54 52 54 55 56 57 54 55 60 60 63 67 69 71 66 63 62 62 61 54 49 51 49 47 45 45 42 38 38 35 33 34 36 40 44 47 72 69
78 71 61 57 55 51 51 47 43 42 41 42 44 50 51 52 51 51 54 58 62 68 67 63 68 67 67 65 64 58 55 51 54 53 50 46 41 42 31 24 30 37 39 39 48 49 56
60 53 50 49 49 48 42 39 37 34 33 34 33 34 39 43 43 49 47 53 56 58 62 60 63 65 64 61 56 52 53 51 54 51 47 46 45 44 36 36 33 32 31 35 39 47 52
48 46 43 45 41 37 34 31 28 27 26 25 27 28 29 30 35 35 43 46 48 50 51 51 55 58 60 57 56 52 52 52 52 53 52 51 47 42 45 37 32 28 25 30 35 40 41
45 40 40 38 32 31 30 26 25 24 23 22 22 23 25 26 27 28 29 27 33 39 44 46 49 54 52 51 52 53 51 50 50 52 52 54 52 52 40 42 38 36 30 35 36 48 49
36 34 35 29 28 27 22 20 20 21 21 21 18 18 20 20 20 22 24 26 25 27 29 30 42 44 50 48 50 51 47 38 43 52 56 54 53 54 47 48 46 47 38 37 30 39 38
30 26 24 24 24 22 19 17 18 18 19 20 17 16 18 16 20 20 25 24 23 20 21 23 27 41 44 46 48 39 30 36 38 38 53 53 50 53 52 53 43 41 34 35 29 32 36
18 19 20 21 21 17 15 15 15 15 12 11 13 12 13 13 18 19 22 26 25 22 19 19 21 38 41 49 43 45 43 36 44 37 44 48 50 46 47 48 51 47 37 34 28 31 32

GFSGBSN_500_spd_003.txt.gz
Wind_Speed
11 12 13 14 15 16 16 15 15 14 13 13 14 14 14 14 14 14 14 14 14 13 12 12 11 12 11 14 18 15 12 11 9 14 20 18 23 23 24 22 15 13 13 10 9 10 9
14 13 12 13 14 15 15 15 16 15 13 14 15 17 17 15 14 12 13 14 16 15 12 12 12 12 13 11 15 20 17 14 13 13 18 20 20 21 28 26 16 12 11 11 11 10 12
18 18 18 18 18 18 17 17 18 18 19 20 19 18 17 17 16 15 14 15 16 17 16 13 12 12 11 12 12 15 21 19 18 15 16 22 26 24 25 25 24 21 15 12 13 12 14
18 19 19 21 21 20 20 20 20 20 20 21 22 22 19 18 19 18 15 16 17 15 16 17 17 16 16 10 13 14 16 22 21 20 19 24 28 27 25 24 23 22 17 11 12 16 17
18 19 20 22 23 23 22 22 23 24 23 22 23 22 20 21 23 21 18 17 16 17 16 18 20 20 19 17 12 12 15 17 25 25 23 22 22 26 24 22 26 23 16 12 19 20 18
20 22 23 24 25 25 26 25 24 25 25 24 25 26 24 22 22 22 21 20 19 17 18 20 20 21 19 19 16 13 14 16 20 28 28 26 27 30 30 28 25 20 17 15 17 22 22
21 22 23 24 26 28 28 28 28 27 26 23 24 27 29 27 28 25 24 25 22 22 20 20 20 22 21 20 17 18 15 15 18 24 31 30 31 26 25 26 23 18 17 18 16 23 25
22 23 25 27 28 28 28 28 29 29 29 29 27 29 31 30 30 31 30 30 28 27 22 24 23 19 23 23 19 19 19 17 17 18 29 36 34 29 28 30 28 24 23 20 15 30 22
30 31 31 30 30 31 30 29 29 31 33 36 36 34 34 34 32 32 33 33 32 32 29 29 26 24 25 25 25 25 21 21 18 20 24 33 32 33 34 35 34 30 27 23 21 28 18
37 39 38 36 34 32 33 35 33 34 34 34 35 33 34 38 37 36 34 35 35 35 34 31 33 30 27 25 27 27 25 24 22 20 23 28 33 39 40 37 34 33 29 25 24 33 27
40 41 41 41 39 37 38 38 38 39 39 42 42 40 39 38 39 40 39 40 39 39 37 38 33 29 32 28 27 28 27 26 23 20 25 22 29 37 43 40 38 35 28 28 27 30 30
46 47 48 49 49 50 50 50 49 49 47 45 45 44 43 42 42 42 42 44 45 44 46 43 37 31 30 30 29 28 29 28 27 26 26 24 26 33 39 43 43 32 31 30 30 31 35
54 55 57 59 60 57 56 54 56 56 55 54 54 49 47 46 46 46 48 48 48 50 46 46 42 38 35 36 35 33 31 32 31 29 29 25 26 28 37 45 45 44 37 34 36 37 40
57 58 59 61 62 64 65 64 66 65 62 61 58 55 55 54 52 50 49 51 53 53 52 51 48 43 41 36 38 39 37 37 34 33 32 32 31 30 31 39 45 51 46 42 40 34 34
62 61 64 66 66 68 69 71 68 66 66 64 62 60 57 58 58 57 57 56 52 51 54 56 52 49 48 42 41 44 45 40 39 36 37 35 34 30 30 35 46 47 55 43 35 30 32
65 68 70 70 72 73 73 72 70 71 70 68 66 65 63 62 61 62 62 59 58 57 59 58 57 53 50 48 47 47 48 44 41 41 37 36 35 33 32 35 41 51 43 48 48 44 38
73 75 79 81 82 82 83 84 85 85 83 83 81 72 69 66 64 67 67 62 63 63 63 62 60 56 54 43 39 44 51 44 42 42 41 36 38 31 31 38 38 47 57 47 45 45 43
81 84 87 89 90 91 90 91 90 92 92 91 82 80 76 61 62 64 64 67 69 71 67 68 67 66 58 48 51 46 52 40 29 45 43 41 38 41 36 33 35 39 44 54 47 51 47
91 94 95 94 90 89 89 89 88 90 88 82 80 75 60 65 64 63 65 71 75 77 76 72 75 70 64 58 59 58 55 47 43 41 38 39 41 38 38 32 36 42 42 47 54 44 50
96 95 93 91 90 89 89 89 85 84 80 76 68 65 57 61 61 64 68 75 81 80 80 81 80 77 67 64 63 62 56 52 42 51 44 44 36 41 37 36 30 33 40 44 47 57 53
95 94 93 92 89 85 78 72 68 64 60 57 54 54 59 61 54 61 72 73 73 82 82 81 82 76 73 66 64 64 58 47 55 53 46 46 44 37 40 33 25 32 34 40 48 49 55
98 93 88 77 67 60 55 50 50 48 46 43 40 40 47 52 56 55 44 51 63 68 70 82 74 74 67 69 60 57 50 50 51 42 50 47 44 38 39 31 34 31 32 37 38 47 51
89 76 64 55 47 44 43 40 42 41 37 34 32 35 37 36 41 47 52 53 45 52 65 68 63 60 72 57 58 62 54 43 51 43 41 48 41 37 38 34 31 34 39 37 38 40 42
73 60 49 43 40 38 35 35 33 31 29 28 26 27 27 26 31 35 40 47 46 50 49 57 63 56 58 65 76 69 63 66 65 62 53 44 46 40 36 32 35 39 32 32 36 38 39
47 40 36 33 31 29 27 27 26 26 26 25 23 22 22 25 25 27 31 35 40 46 43 46 51 55 56 65 70 69 67 69 65 60 59 58 54 43 36 37 36 34 28 34 37 38 37
34 31 28 25 21 25 23 22 23 22 20 21 18 20 19 20 20 22 25 20 26 39 44 40 41 38 52 56 60 65 65 62 58 53 53 57 53 47 35 41 41 31 40 28 36 45 41
34 27 21 23 21 20 21 21 21 20 19 19 19 11 20 19 16 22 24 23 20 18 29 21 32 33 37 51 60 56 52 52 54 57 58 59 57 55 50 38 33 41 40 33 37 31 31
24 18 16 17 16 17 18 17 15 14 15 16 16 16 17 15 14 18 25 27 26 25 23 17 25 27 32 28 35 53 39 48 43 41 56 57 58 56 45 42 41 42 40 39 40 38 34
18 20 18 16 17 16 14 13 13 18 15 12 11 16 14 16 14 15 26 25 22 21 22 26 26 26 36 22 31 41 31 38 41 36 38 54 58 52 35 36 45 47 46 36 33 33 28

GFSGBSN_500_spd_006.txt.gz
Wind_Speed
12 13 13 14 15 16 16 16 15 15 15 14 13 13 14 14 13 11 12 13 13 12 12 11 8 7 7 8 12 16 13 12 8 11 16 17 18 22 19 20 15 10 13 4 10 14 11
16 17 17 17 16 17 17 18 18 17 16 15 16 17 16 15 14 13 12 14 15 15 14 12 10 8 7 8 6 13 16 15 12 12 17 19 19 22 23 25 17 9 13 12 10 12 12
17 17 17 17 18 19 20 19 19 19 19 20 20 19 18 17 16 14 14 14 15 15 15 13 11 11 9 10 10 9 11 19 17 14 15 20 23 28 22 23 21 18 16 18 19 10 19
16 17 18 18 19 21 21 21 20 19 20 21 21 20 19 18 17 17 17 17 16 15 13 14 14 14 13 11 11 10 9 15 21 19 16 21 27 24 26 23 24 19 19 17 13 16 16
16 17 17 19 20 20 20 21 21 21 19 21 22 20 19 19 20 19 17 18 18 17 16 15 16 16 17 14 11 10 11 10 20 23 21 20 25 27 24 27 27 23 19 17 8 20 15
15 17 19 19 20 21 22 23 21 20 21 21 22 22 20 19 21 21 21 21 19 20 22 20 16 16 15 15 12 11 11 11 14 23 27 24 22 23 28 28 27 20 19 18 17 14 18
18 19 19 21 22 23 24 24 24 25 23 22 23 25 25 24 25 24 24 23 21 23 22 24 23 21 16 17 15 15 13 12 11 16 25 27 29 25 24 23 19 19 16 15 20 24 19
23 24 26 28 30 31 29 27 26 26 26 26 25 28 30 30 30 29 28 28 27 26 23 27 25 21 20 21 17 20 15 12 14 13 19 27 31 25 25 26 26 24 24 22 17 23 22
31 32 33 33 32 32 32 30 28 26 28 29 29 28 30 33 31 32 32 32 32 33 29 26 27 24 26 23 20 21 22 18 16 17 17 21 20 29 30 30 29 28 28 22 19 22 20
34 36 37 37 37 36 37 36 35 34 33 32 32 33 34 36 34 35 34 34 36 37 36 28 32 27 25 28 24 24 24 24 24 17 18 19 21 29 35 35 31 30 30 26 23 29 30
36 37 38 39 41 44 45 46 45 43 43 43 42 41 38 39 41 37 37 38 39 39 40 36 34 33 30 30 31 26 27 28 23 21 24 16 21 26 31 38 34 31 26 30 27 27 30
42 43 45 47 47 48 49 48 50 51 52 51 49 48 45 46 43 44 41 43 42 42 45 38 40 34 35 31 32 33 29 28 28 29 28 21 21 24 26 33 37 33 31 29 31 29 36
47 49 51 52 54 55 55 55 53 54 55 53 53 54 53 53 51 50 51 48 47 49 43 42 42 41 37 38 37 37 31 32 31 30 30 22 22 23 25 34 35 40 35 36 35 38 39
53 55 57 58 59 60 61 59 59 56 55 58 60 59 55 53 53 52 51 52 57 51 49 47 42 47 45 42 41 40 41 38 37 34 31 31 30 27 26 28 37 37 40 45 42 38 33
59 61 63 64 65 64 64 65 64 66 63 62 61 61 59 57 55 53 53 57 57 52 52 52 49 50 50 50 43 47 49 43 40 38 37 35 35 29 29 29 35 35 44 41 38 33 34
65 68 70 70 71 71 71 71 71 74 75 74 70 69 70 68 65 57 60 59 57 54 55 54 57 52 49 41 44 40 48 48 47 43 37 35 33 31 30 31 33 38 30 41 48 46 44
70 72 75 76 78 80 81 81 80 80 81 83 80 78 67 73 70 66 66 62 56 57 60 63 63 63 60 43 38 40 44 43 45 45 44 40 40 35 32 43 36 38 42 44 39 49 48
79 81 82 84 87 88 90 91 91 92 91 90 88 84 72 75 69 67 68 63 59 57 65 69 68 67 67 61 48 45 44 43 44 34 39 43 39 45 41 33 34 38 39 43 52 49 51
89 91 93 94 96 96 97 96 96 95 92 88 83 81 62 70 78 69 63 60 62 63 69 72 75 76 69 66 67 61 47 42 37 41 42 39 45 41 44 40 35 42 40 39 47 50 47
96 97 98 97 97 98 94 91 87 83 77 73 70 65 58 55 63 65 61 61 66 69 75 77 74 77 77 76 69 67 62 52 47 39 39 46 44 49 50 47 35 37 41 40 43 47 57
98 99 100 97 92 85 77 69 65 62 55 51 51 52 50 56 49 40 48 61 70 76 76 71 82 81 76 78 76 75 70 59 54 47 46 49 55 46 46 40 30 35 36 40 43 45 50
95 89 86 82 76 67 56 48 48 49 43 39 38 40 41 42 41 47 50 35 50 71 63 64 73 78 77 88 76 84 80 64 58 52 45 54 58 54 47 39 40 34 35 38 39 43 42
83 78 74 70 59 45 38 35 33 34 33 29 27 31 33 28 30 35 43 56 34 38 48 63 68 66 72 81 84 84 85 84 78 62 51 45 56 58 57 47 35 40 45 35 36 36 38
70 67 61 49 36 30 26 24 23 22 23 22 22 22 21 21 25 26 30 37 51 61 53 45 54 63 52 69 80 81 81 85 77 64 55 51 56 54 53 38 42 53 36 36 36 34 33
59 53 42 35 26 24 20 17 19 19 19 20 20 20 20 22 23 22 25 26 30 36 43 59 44 52 52 52 64 75 75 67 65 63 56 46 50 52 47 41 45 39 32 33 37 42 39
43 36 33 27 20 22 20 17 18 19 19 19 21 19 21 16 15 21 18 21 25 27 30 35 36 37 46 50 53 64 69 65 65 68 63 55 52 53 50 50 50 42 36 47 50 46 45
36 31 30 27 23 20 17 17 18 18 17 18 18 18 22 17 14 20 17 18 19 22 22 26 35 37 32 40 53 38 63 64 61 59 64 60 56 61 57 54 47 38 45 43 46 42 41
33 32 31 28 24 21 19 18 16 14 12 14 15 17 20 21 14 17 18 17 25 21 19 13 17 27 30 35 46 40 56 60 56 59 54 62 62 62 51 43 41 46 41 24 43 45 37
30 29 28 25 21 19 16 14 14 13 15 15 14 13 17 16 12 19 14 15 22 23 23 17 16 25 24 29 37 49 49 59 52 44 50 67 65 60 54 55 40 35 50 47 49 45 39

GFSGBSN_500_spd_009.txt.gz
Wind_Speed
12 13 14 15 15 15 15 15 14 15 14 14 14 13 14 13 13 13 13 13 12 12 11 8 7 6 6 4 7 13 14 13 9 10 15 19 18 22 19 19 19 20 12 1 9 7 16
16 16 16 16 16 17 17 17 17 16 15 15 15 16 16 15 15 14 13 13 13 13 12 9 7 5 7 6 6 7 15 16 13 11 15 19 18 20 23 24 20 21 12 7 3 12 17
16 15 15 15 15 17 18 18 18 18 17 15 15 15 14 13 15 15 14 15 14 13 11 11 8 5 6 7 7 6 8 18 18 15 13 17 24 28 26 26 24 19 19 17 11 16 17
16 16 16 16 16 18 19 20 19 19 19 18 17 16 13 12 11 12 13 14 15 14 13 13 10 9 11 9 8 8 7 12 21 20 17 17 24 22 27 25 29 24 25 24 18 12 13
15 16 17 17 20 21 21 21 21 21 20 19 18 18 15 13 14 12 13 15 15 14 15 14 14 13 16 12 10 8 8 8 14 23 22 19 20 20 23 25 29 28 23 22 18 17 21
18 19 19 20 20 21 22 22 23 22 21 20 22 21 20 17 17 17 17 19 18 17 16 17 15 16 14 14 12 10 8 9 11 17 25 24 22 21 19 23 22 22 19 20 15 10 13
21 21 22 23 24 26 27 27 27 25 24 20 20 23 23 24 22 21 24 23 22 21 20 19 16 17 19 17 15 16 12 10 11 12 16 24 27 21 17 16 13 19 22 18 9 15 21
28 29 30 30 31 32 31 29 29 28 26 26 23 23 24 26 25 26 28 28 29 28 22 24 23 14 22 21 18 17 17 13 12 13 15 17 20 23 22 22 22 21 22 22 20 22 27
33 34 35 36 37 37 36 34 33 33 32 31 30 27 26 30 28 29 28 26 29 30 28 22 29 23 24 21 20 19 20 18 17 14 15 15 11 22 26 27 25 27 22 24 25 19 22
37 37 37 37 38 38 38 38 38 38 39 39 39 36 33 34 35 34 34 31 36 34 38 23 32 29 28 27 18 22 23 23 22 20 19 18 17 23 27 31 28 27 24 27 28 23 23
43 42 42 42 43 43 42 41 41 41 41 41 42 43 40 41 43 42 39 36 39 39 47 35 35 29 29 32 26 24 25 26 22 21 28 15 21 20 23 29 32 23 28 34 33 28 25
48 48 48 48 48 48 48 48 48 48 47 47 46 47 43 46 40 46 43 42 42 44 50 39 41 35 31 28 28 29 30 30 28 30 31 22 24 24 20 24 32 27 31 37 38 31 35
52 53 54 54 54 54 53 54 55 54 53 53 53 52 51 47 50 47 48 47 47 52 48 44 41 41 40 37 36 38 35 34 32 32 29 24 27 25 24 25 29 31 38 39 47 46 46
54 55 56 56 57 58 59 59 59 60 59 57 55 56 55 55 54 55 53 53 56 53 49 43 45 45 47 45 40 42 40 37 37 37 32 32 33 28 24 27 28 32 38 47 47 49 46
57 57 59 60 61 62 62 62 63 63 62 63 61 61 60 61 58 58 55 56 57 51 48 48 50 52 51 51 49 42 44 42 38 37 39 36 35 28 31 25 30 30 38 31 43 45 43
62 64 65 66 68 69 70 70 70 70 70 70 65 63 62 64 64 63 65 63 58 54 53 54 55 55 56 49 39 46 45 45 47 42 38 37 40 36 32 31 34 37 30 35 39 46 50
67 73 75 77 76 77 79 80 81 81 80 80 76 74 64 66 68 67 65 63 62 59 59 62 63 61 60 61 60 54 48 46 45 41 40 39 42 39 40 42 39 36 40 43 37 41 43
80 84 86 86 86 87 88 88 88 88 85 86 84 81 66 64 66 68 67 64 65 64 63 66 69 70 68 67 67 66 64 50 35 32 38 41 41 46 46 43 42 39 40 40 47 41 46
85 89 90 90 91 92 94 94 94 94 93 91 87 81 62 64 68 63 64 63 67 68 70 73 75 76 73 73 75 73 69 57 49 49 42 37 48 45 48 49 50 47 41 42 43 44 45
87 90 91 91 90 90 90 88 85 83 81 78 77 69 56 54 59 63 66 71 72 74 77 80 84 83 83 82 83 79 78 70 62 62 60 52 52 57 56 54 50 53 48 42 44 48 44
88 87 84 80 79 74 71 67 64 63 59 55 51 51 47 40 42 52 56 62 66 69 75 79 87 90 90 92 89 88 85 83 74 69 64 64 63 59 60 52 47 52 48 43 46 45 47
81 72 67 64 64 61 56 51 47 36 29 29 29 28 29 26 29 42 43 49 54 51 62 72 71 78 85 93 94 94 93 90 85 78 72 63 64 59 62 58 51 51 49 43 42 40 42
66 60 57 57 52 48 42 32 25 21 21 19 18 19 20 19 25 30 37 44 43 50 41 54 60 71 66 76 86 97 96 96 92 83 75 70 68 63 70 62 52 50 59 51 40 38 36
58 55 52 43 39 36 32 24 20 18 18 15 17 17 17 14 21 26 28 36 52 49 53 39 50 53 67 64 71 82 95 97 96 86 73 75 67 64 69 63 57 59 54 50 45 41 40
50 46 39 35 37 34 29 24 19 18 16 16 18 18 20 16 17 21 24 28 27 33 44 57 50 43 46 66 66 62 72 91 91 89 75 74 62 61 64 66 65 60 55 49 45 44 41
42 39 36 34 33 30 27 23 18 18 17 18 20 20 20 17 14 15 19 20 22 20 24 37 49 55 51 35 57 60 56 71 91 89 75 70 57 49 60 59 66 63 50 48 52 49 47
44 42 40 36 31 27 24 23 21 19 16 16 18 17 18 20 13 14 14 16 18 17 14 22 22 23 33 42 34 53 48 59 70 89 67 57 51 50 54 56 60 64 54 45 49 53 56
42 40 39 34 29 25 23 22 18 17 14 13 15 16 16 18 14 19 18 13 15 17 16 17 17 19 24 26 30 45 44 48 56 79 68 66 61 51 42 46 53 57 50 55 57 57 57
38 36 34 31 26 23 22 20 17 16 13 13 13 10 12 14 13 19 15 12 14 16 20 15 14 15 23 19 20 25 44 41 45 67 77 59 58 50 52 51 53 58 51 53 62 61 57

GFSGBSN_500_spd_012.txt.gz
Wind_Speed
13 14 14 15 15 15 15 16 15 15 14 14 13 13 13 13 13 12 12 11 10 8 7 5 4 3 2 6 7 11 17 16 13 12 16 19 20 19 17 18 14 18 16 17 5 3 10
16 17 17 17 17 16 16 17 18 18 18 17 15 14 13 14 14 13 12 12 11 11 9 6 4 4 4 2 4 7 10 18 17 13 15 18 15 18 26 21 24 19 20 16 10 3 10
18 19 18 17 17 17 17 18 20 20 20 19 19 17 15 14 13 11 11 10 11 11 9 8 5 5 7 4 5 5 7 12 19 18 14 15 22 27 26 24 27 29 23 16 14 14 10
18 18 18 19 19 18 18 20 20 20 20 21 21 20 18 17 15 14 14 14 13 9 9 7 6 8 11 7 7 8 7 10 15 20 19 18 23 23 27 25 28 27 26 17 14 11 8
17 18 19 19 19 20 21 21 21 21 22 22 21 21 20 19 18 16 15 14 14 13 13 10 8 9 13 10 11 8 9 8 11 17 24 22 22 23 23 27 31 30 27 23 19 17 17
21 21 21 22 22 22 22 23 24 24 23 23 23 23 22 22 21 19 20 17 16 16 14 14 10 12 14 14 13 8 11 9 10 14 21 25 24 22 22 23 17 25 20 19 20 21 17
30 30 29 29 29 29 30 31 30 30 29 28 25 23 23 23 23 22 26 23 22 21 17 17 14 14 17 15 16 15 13 14 12 10 13 18 25 23 18 15 17 23 21 17 21 24 21
35 35 35 35 35 35 35 37 38 37 35 32 30 28 27 28 25 26 27 28 27 27 20 22 21 16 22 18 17 18 17 15 13 12 15 14 12 19 23 21 20 22 23 22 26 22 19
39 39 41 40 39 40 40 40 39 38 36 35 35 33 32 33 33 31 29 29 31 30 28 19 26 21 24 22 17 19 20 18 16 18 15 11 7 17 24 26 24 26 24 24 27 22 22
43 44 44 44 45 45 45 44 43 42 41 39 38 36 35 37 40 40 38 33 36 33 35 22 29 25 26 25 23 22 19 23 24 19 19 18 17 20 21 28 29 27 20 27 30 27 28
45 46 47 48 49 49 49 49 49 48 46 45 44 42 40 37 41 42 42 42 43 41 47 32 36 30 29 30 24 25 29 24 22 23 23 12 23 22 20 19 28 20 29 29 33 29 32
48 48 49 49 50 51 52 53 54 54 53 51 49 47 46 46 43 44 43 43 44 46 54 39 38 33 30 29 29 31 30 32 30 30 25 23 24 24 20 22 26 22 34 35 38 37 46
48 49 51 52 54 55 55 55 55 56 56 55 54 54 53 50 52 46 48 47 47 52 48 42 47 41 40 39 35 36 35 35 33 34 28 27 25 24 26 27 28 28 38 40 44 51 50
54 53 53 54 56 56 57 57 58 60 60 60 57 56 55 57 55 56 53 54 54 54 50 51 49 49 44 41 42 41 43 42 38 38 33 35 30 27 26 26 26 32 36 44 48 49 45
56 59 63 62 63 63 63 63 64 60 59 64 64 62 61 61 60 60 60 62 60 58 58 55 50 50 50 49 48 49 50 45 38 37 37 37 37 29 32 25 31 30 42 35 43 44 51
67 72 67 67 67 67 66 68 69 68 70 67 62 64 63 64 66 65 64 62 63 63 62 62 56 57 57 57 56 55 54 52 45 41 38 41 40 34 34 35 38 38 31 39 42 45 49
75 74 73 74 77 75 77 79 77 75 75 71 71 67 66 67 67 70 71 67 64 61 66 67 68 64 62 62 62 60 57 56 54 43 40 42 45 37 41 47 40 39 41 41 42 41 40
74 76 78 81 81 82 83 84 84 82 82 80 78 74 71 71 66 68 67 67 70 71 69 72 73 72 70 70 69 69 63 59 59 60 63 52 43 50 49 44 44 47 44 42 44 40 38
79 81 83 84 85 84 83 83 84 84 84 83 80 73 71 67 67 64 65 70 74 76 78 77 79 79 79 76 76 75 72 69 68 67 68 61 62 54 56 56 55 57 50 46 45 44 45
83 85 85 83 81 77 70 66 66 68 67 68 66 59 51 52 55 60 61 67 75 79 84 85 82 85 85 83 81 82 82 75 72 70 72 65 68 68 66 56 54 57 53 51 50 52 47
82 80 75 66 63 56 52 48 45 45 44 42 38 35 32 30 39 51 57 62 71 78 83 85 87 86 89 90 87 88 88 83 79 76 74 73 74 73 71 64 53 56 55 55 55 52 54
74 65 55 49 44 41 38 38 41 39 36 31 26 21 15 11 25 37 42 44 54 60 69 72 82 81 88 90 93 93 95 89 86 80 76 75 78 77 76 70 64 59 60 60 57 54 52
55 53 49 44 39 36 34 34 33 32 28 24 22 18 12 7 13 24 34 41 41 39 43 52 55 68 75 79 88 94 98 99 90 86 83 80 82 79 76 70 61 56 67 65 61 58 54
57 54 47 44 41 38 34 32 29 28 23 20 20 17 15 11 11 15 24 33 39 46 31 43 49 53 54 61 73 88 92 101 99 90 85 86 80 79 77 68 66 71 63 63 63 59 55
52 49 45 42 40 36 31 28 24 22 21 21 21 19 17 15 13 16 17 23 29 35 40 48 40 35 46 44 54 67 78 93 102 98 92 80 74 75 79 75 71 69 68 61 62 58 52
48 45 43 40 37 31 26 23 22 21 21 21 21 19 18 16 12 14 14 18 20 22 25 29 32 40 45 51 33 39 59 68 87 97 96 86 74 65 53 73 73 74 68 61 53 59 57
44 44 42 39 35 29 25 24 21 18 17 17 19 17 15 13 13 15 14 11 15 16 19 22 26 27 25 35 51 35 34 43 65 81 92 83 78 62 58 53 65 77 72 54 52 58 62
41 44 41 39 37 32 28 25 22 19 17 15 15 15 18 12 13 14 15 15 13 16 16 15 14 14 13 16 23 40 31 35 46 70 81 75 76 64 66 44 53 63 62 63 55 53 59
42 44 42 36 34 34 32 29 24 19 18 16 15 13 12 9 12 12 13 13 16 15 12 11 13 14 19 22 18 25 33 32 30 57 56 61 69 72 53 35 55 60 57 51 59 53 58

GFSGBSN_500_spd_015.txt.gz
Wind_Speed
15 16 17 18 18 18 19 18 19 19 20 19 18 17 16 16 17 16 15 14 13 10 8 8 8 8 8 8 8 7 18 19 17 15 15 16 16 18 19 18 16 18 24 17 11 8 4
18 19 20 21 20 19 19 19 20 20 21 22 22 21 19 18 17 17 18 17 14 12 9 8 9 9 10 6 6 7 9 18 19 17 16 14 14 19 26 20 18 24 27 21 15 7 5
18 19 21 22 22 22 22 20 19 20 21 21 22 23 22 21 20 19 18 16 14 13 12 9 7 9 12 6 7 9 8 11 18 20 19 16 20 27 26 25 25 22 21 18 10 11 6
19 19 20 21 23 23 23 23 23 23 22 22 23 24 24 23 22 22 21 17 16 14 13 11 10 12 12 9 11 10 10 11 13 20 21 20 22 27 28 27 27 26 24 17 15 11 7
23 24 24 23 24 25 26 26 27 25 24 23 24 25 25 26 23 24 23 19 17 16 15 13 13 15 16 11 11 10 13 13 14 15 23 26 23 23 29 29 30 31 24 20 17 13 15
29 30 30 30 30 30 30 30 30 30 30 30 30 30 29 26 25 27 28 24 22 19 14 14 14 17 20 14 14 11 13 10 14 15 18 22 25 24 22 25 21 22 22 23 16 20 20
33 33 34 35 35 36 36 37 37 37 37 36 34 32 33 32 27 27 31 32 28 25 21 21 17 20 20 19 18 16 19 13 15 14 15 18 21 21 20 18 21 20 24 26 23 24 22
36 37 38 40 40 41 41 41 40 40 41 41 40 39 38 37 36 32 30 29 30 30 25 26 24 20 24 22 18 19 20 16 15 15 18 15 8 16 23 22 22 27 24 26 23 30 27
39 39 39 40 42 43 44 46 46 46 46 45 43 41 39 41 40 40 38 35 34 33 29 24 29 26 29 25 20 20 19 20 19 19 17 15 10 16 22 25 25 25 23 27 22 33 33
43 44 43 44 45 45 45 46 48 49 49 49 49 49 45 41 42 43 42 42 41 40 38 24 32 31 31 29 23 27 21 22 23 20 21 20 19 21 20 24 26 28 20 30 30 37 37
43 44 45 47 48 49 50 50 50 50 50 51 52 52 51 48 47 47 45 44 44 43 46 38 37 34 34 33 27 29 27 31 27 24 26 17 22 23 22 14 24 20 28 31 36 41 40
44 44 45 47 49 49 50 52 53 54 54 53 53 54 56 54 52 51 52 49 46 47 51 44 43 44 38 37 34 35 35 34 33 32 27 27 28 27 24 23 22 23 34 35 41 44 51
47 49 49 53 50 50 53 56 57 57 57 58 56 55 57 56 55 57 53 56 54 53 52 49 49 48 44 39 39 40 40 38 36 36 32 30 27 27 25 27 27 30 41 44 48 54 41
51 54 56 56 55 58 61 58 57 57 59 57 59 59 59 59 57 60 60 59 61 58 55 56 54 50 47 46 47 46 46 45 41 39 35 39 36 31 29 27 28 28 36 46 43 45 40
60 61 61 63 66 67 64 64 61 64 62 63 62 62 64 61 64 59 66 65 62 62 61 59 56 55 51 49 51 51 50 50 45 42 40 39 37 32 35 31 35 33 40 32 45 44 47
66 67 68 71 72 73 74 75 73 74 71 69 67 66 67 68 67 69 67 68 69 69 66 65 61 61 58 56 55 54 54 55 53 53 48 46 45 39 36 40 43 40 30 38 45 47 46
69 72 74 75 77 80 82 83 82 80 79 78 76 73 72 69 68 68 70 70 71 72 72 70 68 66 65 63 61 60 59 61 59 56 56 54 54 43 44 51 43 40 43 43 43 45 41
75 77 80 82 84 86 87 86 84 82 78 79 78 77 77 74 71 70 70 72 75 77 78 79 78 74 73 72 71 69 66 68 65 63 62 59 61 55 54 46 42 47 45 47 49 40 36
78 81 84 84 83 79 72 67 62 59 57 56 57 61 67 66 63 65 67 68 71 75 78 83 84 82 79 78 76 76 74 72 70 69 68 65 65 60 57 56 58 58 54 51 45 44 46
80 79 74 68 61 56 52 47 42 39 38 37 38 40 37 41 42 51 56 62 67 73 79 82 86 88 87 85 84 83 82 79 76 75 74 72 71 67 64 60 58 60 59 54 50 55 44
70 61 61 61 58 52 48 46 43 38 37 35 33 31 29 22 27 37 46 54 62 68 73 79 84 89 90 88 87 89 90 87 82 81 81 79 77 75 70 67 66 64 62 56 58 54 55
64 61 58 54 52 48 45 42 40 36 33 31 29 26 23 19 17 26 34 39 47 55 61 59 70 80 86 88 88 86 92 93 88 84 83 84 82 80 78 74 69 71 68 63 61 57 56
59 55 52 52 49 46 42 37 33 30 26 25 24 24 20 12 16 17 21 28 33 31 36 42 50 61 62 81 86 87 88 93 92 86 86 86 86 85 84 79 76 74 70 67 62 61 59
54 51 50 46 47 45 39 33 29 24 21 21 22 22 21 15 15 14 17 18 22 30 33 18 29 41 51 62 72 82 88 92 95 93 86 88 89 88 87 81 81 72 67 67 66 65 62
49 48 46 42 42 43 41 34 29 26 22 22 23 22 22 18 15 17 18 16 16 22 24 38 43 28 22 34 48 56 72 85 93 98 95 88 90 90 88 85 84 80 74 70 65 65 64
57 53 48 46 42 39 38 38 31 27 22 23 22 19 20 16 13 14 16 16 12 14 18 21 27 36 44 43 40 46 56 63 79 91 98 94 88 89 87 87 86 83 77 75 68 67 61
52 52 52 48 46 43 38 36 32 28 24 23 21 16 15 13 14 14 12 13 13 9 10 14 18 22 25 29 30 32 41 44 58 69 85 89 98 92 92 89 85 81 74 72 64 70 66
52 49 49 48 48 46 42 37 32 27 24 22 19 17 15 10 13 12 10 11 11 10 7 11 16 21 21 17 17 19 20 34 37 42 55 70 81 90 89 87 78 75 69 55 48 60 67
53 53 52 50 49 46 43 41 37 33 30 26 23 20 16 14 15 11 9 7 9 13 8 9 12 15 9 11 11 7 16 30 24 23 30 50 66 80 76 85 81 62 58 60 49 40 47

GFSGBSN_500_spd_018.txt.gz
Wind_Speed
18 19 19 20 21 21 22 22 22 21 21 21 22 23 23 22 21 21 21 20 19 18 15 13 14 11 14 12 9 11 12 20 18 17 15 11 9 16 17 17 19 16 16 15 12 11 14
20 21 22 23 24 24 24 24 24 23 22 21 22 23 23 24 24 24 23 22 20 20 18 15 15 13 16 16 10 6 10 14 18 18 18 14 10 18 26 22 19 22 24 22 15 11 13
19 20 21 22 23 24 25 25 26 25 25 25 25 25 24 23 24 26 27 23 21 20 18 18 15 13 18 12 8 10 9 11 14 18 19 17 16 21 25 23 24 26 22 25 19 10 6
26 27 27 26 26 27 26 26 27 28 28 29 28 27 26 25 24 25 28 25 24 22 18 18 18 18 20 13 12 14 9 9 13 15 20 22 20 21 27 25 27 27 25 25 25 11 8
28 29 31 32 32 32 33 33 32 32 32 32 31 30 30 29 28 28 28 28 26 24 21 20 18 19 23 16 16 17 13 15 13 15 17 23 23 19 24 26 26 29 24 23 19 13 17
30 31 33 34 35 36 37 37 37 37 37 37 37 37 38 35 32 32 30 29 28 25 23 21 20 22 23 21 19 19 19 16 15 16 15 16 19 23 22 19 15 19 21 23 21 19 17
35 35 36 37 38 39 39 41 41 41 41 40 41 41 42 42 39 37 35 32 32 31 28 28 24 24 24 25 23 23 23 17 17 15 13 14 15 12 18 18 17 19 25 25 24 26 19
38 39 40 41 42 42 43 42 43 43 44 46 46 44 43 45 45 42 39 39 36 35 29 33 32 25 30 30 27 26 23 22 17 14 19 15 6 10 19 22 21 24 21 24 27 26 24
39 41 42 43 45 46 46 46 46 47 47 47 47 48 48 49 48 47 45 44 43 41 37 28 33 34 36 35 28 28 27 25 21 22 19 17 12 16 18 21 24 23 20 25 29 29 28
43 44 45 47 48 48 49 50 51 51 50 49 50 51 49 49 52 52 49 47 47 47 45 38 36 38 38 38 33 32 30 28 26 21 24 21 19 19 18 20 22 24 20 26 34 36 36
40 41 44 46 48 48 49 51 50 52 52 50 49 54 53 53 50 55 56 54 52 49 49 45 42 42 41 40 34 34 31 34 27 25 29 20 20 20 19 12 20 18 27 26 33 40 40
49 51 50 49 51 52 53 53 53 53 50 50 52 56 56 56 54 54 56 58 58 56 55 52 46 44 42 44 40 38 41 38 34 37 34 29 29 30 23 22 21 24 32 35 39 45 47
52 53 54 56 58 57 57 57 57 56 57 60 61 61 57 56 56 57 57 58 60 62 59 58 56 51 47 43 42 40 42 41 40 39 34 32 31 31 29 27 28 30 37 43 45 47 32
60 61 62 64 64 65 66 66 66 67 66 63 64 62 59 60 60 61 62 60 61 63 64 63 62 59 51 50 48 46 45 45 45 43 38 37 38 31 29 27 26 27 37 40 39 37 31
64 67 68 70 71 73 74 75 75 75 73 72 73 73 69 66 61 66 65 66 64 63 66 64 63 63 61 53 50 47 50 47 44 43 44 45 44 37 38 33 34 34 35 32 41 40 39
68 70 74 78 80 82 83 84 85 85 84 82 80 77 74 74 72 69 70 69 71 71 68 67 66 66 66 60 56 55 54 54 54 51 49 50 47 42 37 42 44 39 31 38 44 44 38
72 75 79 82 84 86 85 82 81 76 72 73 75 75 73 74 75 73 71 71 71 76 75 74 71 70 68 67 61 61 61 59 58 57 58 55 52 48 47 51 44 41 42 44 44 43 41
74 78 82 82 78 73 68 63 61 56 51 49 48 51 51 56 64 68 70 70 72 70 76 80 79 77 74 72 69 65 66 66 64 63 62 59 58 55 53 52 48 46 46 46 47 39 38
78 77 71 67 65 63 61 60 56 52 49 44 41 40 39 35 39 46 53 60 66 69 71 79 82 84 80 78 75 71 71 70 69 68 66 64 64 59 56 56 57 58 53 51 47 45 45
69 60 65 67 63 55 54 54 53 45 40 38 35 34 33 33 33 28 29 43 53 62 67 72 80 84 84 84 82 78 75 75 74 73 71 69 68 64 63 60 60 60 57 56 54 55 45
59 62 67 69 60 54 55 53 50 42 35 31 27 25 25 25 27 27 22 28 41 51 59 57 72 79 84 84 86 84 81 80 79 78 77 75 72 69 66 62 63 62 61 59 60 56 55
56 63 64 68 62 57 55 50 48 39 34 30 25 22 20 20 21 21 20 21 21 35 47 50 49 64 77 80 85 85 85 85 84 83 82 80 77 75 71 69 66 64 64 62 60 59 59
59 67 63 61 59 58 55 50 47 42 37 31 28 26 24 19 19 20 20 19 16 15 24 31 48 54 58 72 80 83 87 88 88 88 88 86 84 80 77 75 74 71 64 64 63 63 59
58 60 61 59 58 57 54 50 46 42 40 33 28 26 23 18 16 17 18 17 18 16 11 23 22 29 49 59 62 77 84 88 91 92 91 91 90 88 84 80 80 73 69 67 68 66 64
52 52 63 65 58 54 52 49 46 43 38 34 29 27 21 14 15 16 14 15 15 15 12 18 32 18 23 29 45 58 63 81 88 91 94 91 93 92 90 87 83 81 76 69 72 68 68
47 50 59 63 62 57 53 51 49 43 39 36 28 27 23 14 12 15 12 13 11 10 11 10 19 32 24 18 22 33 44 57 74 86 90 94 91 94 94 93 89 86 80 76 74 72 63
45 49 54 55 63 56 53 52 47 46 40 35 30 26 24 19 18 15 10 10 8 6 7 7 7 11 14 20 28 34 37 39 52 68 79 88 94 96 95 97 96 91 86 82 79 74 68
43 46 50 55 67 57 46 48 49 45 41 39 34 30 25 21 21 17 11 8 7 6 6 5 6 8 7 9 14 19 21 29 38 42 54 73 86 95 97 98 101 93 88 85 82 77 73
36 43 45 53 58 61 58 54 45 44 40 38 38 33 28 26 20 16 9 5 7 5 6 5 8 11 7 4 6 9 12 15 14 23 35 54 73 80 94 102 94 90 87 84 82 77 75

GFSGBSN_500_spd_021.txt.gz
Wind_Speed
18 19 20 21 22 23 24 25 25 24 24 23 23 21 21 21 22 23 24 22 21 22 21 20 18 18 18 16 8 11 13 12 18 18 15 12 13 20 19 18 21 20 20 19 15 13 11
19 20 21 21 22 22 23 24 25 26 26 25 24 24 24 23 22 23 24 23 23 23 23 22 21 20 21 20 7 10 9 12 13 19 18 13 13 20 27 24 21 26 22 21 24 12 13
24 25 26 26 27 28 28 28 28 26 27 28 28 29 28 27 25 24 23 23 24 25 24 23 22 21 23 22 11 13 11 11 11 14 19 19 19 22 26 26 25 28 23 19 22 21 14
26 27 28 29 30 31 32 32 32 33 32 31 30 31 33 32 29 27 25 23 24 24 25 24 22 23 24 23 14 15 15 10 12 12 16 22 23 23 26 26 28 29 26 19 20 16 16
28 29 30 31 32 33 34 35 36 36 37 37 36 36 36 34 33 32 31 29 26 25 26 25 24 23 26 27 18 18 21 17 16 13 13 16 21 22 22 22 25 28 21 21 26 20 18
32 33 34 35 37 38 38 38 38 39 41 41 41 40 40 39 39 38 37 34 31 28 27 26 25 26 27 27 24 21 26 19 19 19 15 12 13 17 22 20 12 18 22 23 28 24 22
35 36 37 37 39 40 41 41 42 43 44 45 43 43 44 44 43 41 40 39 37 34 31 29 27 28 27 29 28 25 26 24 21 18 13 13 11 5 14 20 18 17 24 27 30 33 28
37 37 38 39 40 42 43 44 45 46 47 47 48 47 46 47 47 46 44 42 43 40 34 33 33 29 32 32 32 29 29 28 23 18 19 17 5 11 18 23 23 23 23 28 33 33 31
36 37 37 39 41 43 45 47 47 46 47 50 51 51 49 49 51 50 49 48 46 46 43 34 36 33 37 38 36 33 32 31 27 27 22 19 16 17 19 22 26 25 22 28 32 35 30
36 37 42 47 49 47 47 48 48 49 51 50 48 49 51 49 51 53 53 51 50 49 50 43 41 41 39 42 40 37 36 34 32 26 28 25 23 21 19 17 22 24 20 27 33 35 36
38 42 48 51 53 53 53 55 54 56 56 56 56 55 52 50 49 51 53 54 54 53 52 52 48 45 43 45 43 41 38 40 35 30 32 21 22 21 20 12 18 19 26 26 31 36 38
45 51 56 58 59 59 60 61 62 64 60 62 61 60 59 57 52 51 52 53 53 55 58 56 52 48 45 45 47 43 44 42 40 38 36 34 31 32 23 25 23 25 32 33 35 38 42
50 54 57 59 62 63 65 69 70 70 71 71 69 65 64 62 61 61 63 62 59 59 60 60 58 56 50 47 45 42 47 46 44 42 42 37 36 31 33 30 30 29 36 38 39 40 31
58 61 62 66 70 73 77 79 81 82 81 80 78 75 73 68 67 65 64 63 64 62 61 62 61 59 54 54 50 44 45 49 47 46 44 41 42 34 30 30 29 30 33 34 35 30 39
60 63 68 74 79 81 83 84 83 82 83 83 82 82 81 76 73 71 70 67 66 67 64 61 61 60 60 57 54 50 49 46 46 47 47 46 46 39 37 32 35 34 32 27 38 37 36
64 70 75 74 70 67 64 63 62 61 59 60 60 57 62 67 69 70 72 71 71 69 69 69 67 66 64 60 58 57 53 55 52 52 49 49 50 46 41 41 43 39 33 37 38 38 35
68 73 65 56 57 61 62 65 64 63 59 54 48 42 42 42 42 50 56 63 65 70 72 73 73 72 70 64 61 60 61 59 57 55 55 54 53 52 49 49 48 43 42 40 39 39 34
68 61 47 52 59 54 54 57 61 63 58 51 42 38 33 31 30 32 34 44 53 61 70 73 76 77 75 72 66 63 64 64 64 60 57 57 54 53 53 51 47 45 44 43 45 36 31
59 43 50 54 55 59 59 59 62 61 56 53 37 33 29 25 23 24 25 28 32 46 62 71 76 79 77 76 70 68 66 67 67 66 62 61 61 57 54 56 54 53 52 52 48 47 45
49 43 51 53 56 57 60 60 61 59 56 50 43 29 27 23 20 18 18 22 25 30 49 62 69 76 77 78 75 72 70 71 70 70 68 67 65 61 59 58 56 55 55 54 50 53 43
46 46 48 54 64 64 62 61 56 56 52 47 43 36 26 24 22 21 16 17 18 20 30 45 55 66 72 74 76 76 76 76 75 75 73 70 69 67 64 63 62 61 59 58 57 53 52
40 43 48 58 64 67 62 58 56 53 47 46 41 38 32 23 20 19 17 13 12 11 12 30 33 32 53 69 77 77 78 80 80 80 78 77 74 72 70 67 66 65 62 63 60 56 53
38 42 47 53 62 66 64 57 55 52 51 44 42 36 33 24 18 14 16 14 12 9 10 7 31 41 30 31 63 78 78 81 82 83 82 80 79 77 74 72 70 70 65 63 60 58 55
36 43 49 52 56 65 61 58 55 53 51 49 42 40 31 25 21 18 14 13 12 12 9 11 14 28 41 44 37 59 76 79 83 84 83 83 82 80 78 76 76 71 70 67 65 61 59
36 39 44 50 53 64 58 53 56 51 49 48 47 42 35 26 26 22 16 13 11 10 8 9 10 20 23 30 43 45 47 72 80 85 86 85 84 83 82 80 77 76 73 71 67 62 62
43 41 42 45 48 58 53 52 48 50 48 44 44 44 39 29 24 17 15 13 10 7 9 8 8 14 19 20 19 27 42 53 64 78 86 90 88 87 87 84 83 76 73 73 70 67 64
44 43 42 43 45 54 53 53 51 46 46 43 41 39 37 34 25 21 15 10 7 5 6 5 3 7 19 21 17 16 18 27 45 60 73 85 94 93 89 90 88 82 78 76 73 70 65
44 45 46 37 42 49 53 53 50 50 43 42 37 37 32 29 28 23 18 11 8 6 5 3 2 1 4 11 14 18 19 25 34 42 54 72 86 95 96 96 94 85 80 79 76 73 68
40 44 46 34 38 48 51 48 46 44 44 41 37 32 30 25 20 20 19 16 9 5 1 4 4 3 2 4 7 9 12 17 20 26 43 57 72 83 96 101 95 92 86 81 79 75 70

GFSGBSN_500_spd_024.txt.gz
Wind_Speed
18 19 18 19 20 20 21 21 21 22 23 24 25 25 24 22 21 22 21 21 23 23 23 21 20 21 21 17 10 10 14 14 22 23 19 18 20 23 20 22 23 20 20 15 12 11 9
21 22 23 24 25 25 26 27 27 26 26 25 25 26 26 25 26 24 25 23 22 23 23 23 22 23 24 23 16 14 13 14 16 24 25 20 19 23 29 26 26 26 24 18 15 15 11
23 25 26 27 28 29 29 30 31 31 31 30 30 29 28 28 29 29 27 26 25 23 22 23 23 23 26 25 20 14 17 17 16 17 26 27 25 25 28 31 29 30 29 26 24 15 14
27 28 29 30 30 31 33 33 34 34 34 34 34 35 34 33 32 30 29 28 27 26 25 23 24 25 24 26 24 19 23 17 17 16 21 27 28 26 26 30 31 31 30 26 25 28 16
30 31 33 33 34 34 35 36 38 39 38 38 38 38 39 38 37 36 34 33 31 30 29 26 24 26 26 28 26 21 23 23 21 17 16 20 27 27 25 23 30 33 24 25 27 29 28
30 31 32 33 34 36 36 37 40 42 42 42 42 43 45 44 42 40 40 38 36 35 33 30 27 28 28 28 29 26 24 28 23 22 19 17 17 22 26 24 22 26 30 24 28 27 24
33 32 32 32 32 33 35 36 39 41 42 43 44 45 46 49 48 46 45 43 41 39 38 35 31 31 29 30 34 30 28 30 27 23 18 17 19 14 17 24 23 24 28 27 29 33 27
33 32 33 32 33 36 39 42 45 46 46 46 44 42 42 47 49 50 49 49 47 45 40 41 38 33 32 33 35 35 33 32 28 22 22 20 11 16 23 29 28 25 22 28 32 36 33
33 35 37 38 40 44 47 50 52 51 50 51 48 47 47 47 47 48 50 51 52 52 48 42 42 37 37 37 36 36 35 34 33 32 25 21 22 24 25 28 32 32 30 33 36 39 37
35 37 40 43 47 49 51 53 54 55 57 58 57 57 54 54 53 53 51 50 50 53 55 49 45 46 42 42 41 39 37 38 36 33 30 30 29 27 26 26 27 31 29 32 38 42 40
40 47 47 50 51 50 55 58 61 64 66 66 64 62 64 62 60 57 56 53 53 50 54 59 51 48 46 47 43 43 40 44 41 35 35 29 29 25 25 19 23 24 33 36 34 40 38
50 52 51 53 56 60 63 67 71 74 76 76 74 73 71 70 67 65 60 61 58 57 57 59 56 51 46 48 49 47 45 46 44 41 40 36 34 35 28 31 26 31 37 37 37 35 45
51 53 56 59 64 69 73 75 76 75 75 75 78 80 80 76 73 73 70 66 65 63 59 58 60 57 51 48 51 48 50 50 49 46 43 41 40 37 38 37 34 35 38 39 40 42 35
55 58 61 66 70 72 70 67 65 60 60 60 64 65 68 71 70 67 71 72 70 69 71 64 58 56 52 52 50 49 49 52 53 48 47 44 44 40 37 38 35 36 37 35 39 37 34
59 62 65 67 68 65 60 59 59 60 60 61 63 64 65 52 50 50 56 63 63 74 72 69 66 62 58 55 53 52 49 49 49 52 50 49 45 44 40 37 37 35 36 27 37 36 32
61 62 62 61 58 57 52 53 57 55 58 61 59 61 61 44 35 33 34 42 56 67 70 67 65 70 67 63 57 54 54 55 52 51 56 54 50 49 44 41 42 42 30 41 39 36 29
58 59 59 53 49 50 51 57 58 59 56 57 55 59 56 43 28 21 23 30 37 49 62 66 68 70 69 66 61 58 62 60 58 57 58 57 53 53 51 51 48 48 47 43 36 32 29
58 57 55 45 51 51 56 64 57 55 54 52 54 54 52 43 27 17 18 21 27 33 49 61 68 69 69 70 64 63 64 64 63 63 54 54 56 58 54 51 52 47 42 41 41 35 31
56 54 46 43 51 54 60 67 60 57 54 52 51 48 43 40 26 18 15 17 22 26 31 47 61 71 70 68 67 68 68 65 64 64 62 62 58 56 56 57 58 55 49 49 45 38 35
54 48 43 42 48 50 58 67 59 58 54 51 50 46 42 36 34 19 15 14 15 19 22 30 48 62 67 65 69 72 72 70 69 67 66 62 62 60 57 50 53 56 54 54 50 46 42
51 43 43 40 46 48 57 66 60 63 53 49 48 47 41 36 33 24 17 13 14 14 17 22 24 38 60 63 70 70 76 75 74 71 69 68 64 64 62 64 61 59 58 56 55 49 47
48 44 46 43 44 48 53 61 61 57 50 46 45 46 42 36 30 23 18 13 11 9 10 12 21 21 22 57 67 71 77 78 79 76 74 71 70 69 65 62 63 64 61 61 56 52 48
43 43 45 42 42 47 52 58 57 56 49 43 40 42 44 41 27 21 16 15 13 9 10 9 15 35 27 29 54 71 75 72 80 78 78 75 75 73 68 65 64 68 64 62 57 54 50
40 43 45 45 45 43 50 56 56 55 50 42 38 38 39 41 31 23 17 13 12 9 9 10 7 30 32 29 33 59 73 78 76 80 80 79 76 75 73 74 71 66 65 65 60 54 51
40 41 43 45 44 39 48 55 53 53 52 44 38 34 35 36 37 29 24 16 11 9 8 11 10 10 33 34 28 35 52 75 79 79 80 81 79 77 76 78 69 72 72 70 66 62 59
40 40 41 44 39 39 45 53 52 48 50 48 40 35 32 30 33 35 26 19 13 11 10 7 9 7 13 24 21 31 21 37 72 80 81 79 82 80 79 78 77 71 73 75 74 65 61
38 39 40 42 32 38 44 51 48 46 48 50 45 43 32 31 26 30 29 20 13 10 9 7 3 2 7 13 16 15 25 41 43 63 77 83 83 84 82 83 80 78 81 78 73 62 67
40 39 40 38 26 35 43 48 44 46 40 44 48 43 37 32 32 27 30 22 14 10 8 5 3 3 6 12 15 15 13 17 38 46 53 78 90 86 86 87 87 83 81 79 74 76 68
39 38 37 32 25 32 41 43 41 43 42 40 37 30 30 32 29 25 24 21 19 15 10 9 4 0 5 7 9 11 13 15 18 31 45 62 79 88 89 94 88 87 84 82 77 79 70

GFSGBSN_500_spd_027.txt.gz
Wind_Speed
19 20 21 21 22 23 23 24 24 24 25 25 24 23 23 24 25 24 24 23 22 22 21 21 23 22 22 18 15 12 16 17 22 24 25 24 21 23 20 23 23 22 19 16 14 9 8
22 23 24 25 26 27 27 27 27 28 29 29 29 28 27 26 24 25 27 28 27 25 24 22 24 23 24 22 17 16 18 15 20 25 27 25 24 26 28 28 28 24 23 20 15 12 10
25 26 28 29 30 31 32 32 32 32 32 33 33 33 32 31 30 29 28 28 29 28 26 25 25 23 24 27 23 19 19 20 18 22 27 29 28 28 29 30 28 33 28 23 17 14 12
26 27 29 30 32 34 35 36 37 37 38 38 39 39 38 36 35 34 33 33 32 30 29 27 27 25 21 27 24 24 21 21 21 19 22 31 32 29 30 32 36 34 31 29 22 17 15
27 28 29 30 31 33 35 36 37 37 38 39 40 42 43 43 43 41 39 38 37 36 34 32 29 29 27 26 26 27 24 25 24 23 23 25 34 32 33 32 35 36 30 31 26 24 17
29 29 30 31 31 33 34 35 36 37 37 38 39 40 42 45 46 46 46 45 43 40 40 38 35 33 30 29 27 28 27 27 26 28 23 23 27 35 35 32 24 35 33 24 27 24 31
27 27 28 29 31 33 36 38 40 40 41 41 42 43 44 44 43 45 47 49 48 49 43 44 40 38 34 33 29 34 31 30 29 30 25 23 24 23 27 29 28 31 29 30 23 24 24
24 27 30 33 38 41 40 42 45 47 47 46 47 46 46 47 48 46 45 47 50 51 49 47 46 41 40 36 34 34 36 32 31 27 28 27 19 21 26 31 33 31 31 29 28 26 30
31 33 37 41 43 43 44 47 49 50 51 52 54 55 55 55 54 53 50 51 48 51 55 46 48 47 44 43 40 37 39 34 33 33 30 26 24 24 28 32 36 36 32 28 29 28 27
37 41 43 45 47 49 51 54 57 58 59 62 64 66 65 63 61 61 60 57 56 51 52 53 47 52 48 47 46 43 38 38 39 36 32 32 32 30 29 32 34 35 33 34 31 31 31
40 43 46 49 52 54 56 61 64 67 70 71 72 73 73 72 69 66 64 66 63 58 56 57 53 51 52 51 46 48 40 44 41 38 39 34 34 32 34 26 28 26 36 38 38 36 31
44 48 51 54 56 59 64 68 69 67 65 64 64 64 66 71 75 75 72 66 67 65 66 57 57 52 52 51 51 52 49 48 43 43 42 39 37 38 30 31 31 30 36 41 41 43 45
50 54 56 58 60 62 64 62 54 51 53 53 53 56 56 57 61 62 63 64 57 63 47 47 65 61 54 51 53 56 54 53 53 51 48 43 42 36 39 38 38 37 37 41 45 46 45
54 57 57 59 61 62 56 45 46 52 51 59 58 57 56 56 59 58 49 46 49 41 41 69 70 68 59 55 52 57 53 56 55 52 48 48 48 44 42 43 41 39 38 39 43 42 35
54 53 54 56 58 52 47 39 46 48 55 56 60 59 55 57 61 55 33 25 19 32 61 71 72 66 56 53 52 54 55 52 57 56 53 50 48 42 45 40 42 41 41 30 24 23 24
50 51 53 52 49 42 46 42 46 52 54 56 58 58 52 51 61 42 21 10 33 37 56 62 61 56 46 38 55 58 56 52 55 59 58 48 35 50 45 47 46 45 33 39 41 28 25
50 51 52 49 43 41 46 44 53 54 58 61 58 54 49 49 59 31 12 23 30 38 42 54 53 60 58 62 72 59 55 57 60 60 59 59 40 35 52 55 49 46 47 42 36 36 23
47 49 51 44 45 40 40 45 54 61 59 60 59 47 44 45 39 28 17 24 20 33 38 46 61 58 56 57 70 69 40 55 66 61 63 58 66 52 50 50 49 44 47 43 41 36 33
48 50 46 39 42 40 39 45 51 56 58 60 54 44 44 41 37 27 22 13 16 21 28 28 37 60 62 52 60 74 64 75 71 66 62 60 67 60 41 43 52 56 51 47 39 34 34
46 47 41 39 41 38 40 47 49 56 55 58 51 42 40 39 38 29 23 12 13 20 18 23 23 39 68 52 54 52 67 80 74 70 69 68 65 64 53 49 46 54 55 50 45 46 35
46 43 37 40 41 40 42 45 49 54 53 54 53 42 37 34 33 26 24 11 11 18 18 18 17 24 42 69 45 51 65 80 71 69 67 67 62 60 55 31 35 46 53 53 53 46 43
46 40 39 39 42 44 45 44 51 51 49 52 50 42 36 33 33 28 22 18 17 17 15 15 13 22 22 44 66 45 62 77 74 76 69 69 67 60 65 45 52 53 43 51 50 50 44
44 40 39 37 42 43 41 44 51 49 48 49 52 41 37 36 33 31 23 20 17 14 13 12 14 18 24 29 52 68 57 66 76 77 75 73 68 66 67 67 64 65 61 52 43 48 48
43 40 40 39 41 41 36 41 49 47 45 48 51 46 37 35 38 32 29 20 15 14 10 13 11 13 31 30 34 63 70 67 72 74 73 73 73 72 70 68 64 62 56 58 54 48 49
42 40 40 38 38 36 33 40 46 46 44 47 49 49 43 37 38 34 31 24 15 14 12 11 12 12 14 31 27 37 66 70 67 70 72 72 71 71 69 64 56 63 60 58 60 56 50
39 41 38 36 35 31 31 38 42 44 42 42 47 41 37 33 32 34 28 28 19 14 12 9 13 7 9 28 29 20 17 41 65 60 65 70 71 74 72 63 44 27 46 67 67 61 59
39 42 37 35 31 26 30 37 42 43 39 40 43 40 32 29 28 28 28 26 25 18 13 9 11 5 8 15 29 19 20 25 35 42 58 59 69 73 73 69 52 40 40 62 64 44 58
40 37 34 34 29 22 30 36 41 39 36 38 39 39 27 27 26 23 23 23 22 21 12 8 7 7 10 12 18 20 23 27 40 37 30 57 66 70 73 72 62 41 55 52 54 67 64
38 37 35 30 26 21 28 35 41 38 33 35 35 37 29 23 23 22 21 19 20 17 14 14 9 4 5 10 13 15 16 22 32 35 39 46 56 62 67 75 72 65 61 68 80 69 67

GFSGBSN_500_spd_030.txt.gz
Wind_Speed
20 21 21 22 23 24 24 25 26 27 28 28 28 28 28 27 27 25 25 25 23 23 22 22 22 20 21 18 19 15 17 16 18 22 22 22 20 18 15 19 19 18 14 11 5 3 9
22 24 25 27 28 28 29 30 31 32 32 32 32 31 31 30 30 30 29 28 27 26 26 26 26 22 21 18 20 18 18 18 17 20 26 25 23 21 24 23 23 20 18 19 4 5 10
22 23 24 25 27 28 29 30 32 33 34 35 37 37 37 37 35 34 33 33 32 30 28 27 27 25 21 25 21 19 23 22 20 19 23 28 28 28 25 28 26 25 28 27 19 19 13
22 23 25 26 27 28 29 30 31 31 32 33 35 36 37 37 38 39 39 38 37 35 35 33 31 28 20 30 20 23 24 23 22 24 23 26 33 30 30 30 32 32 33 30 23 21 17
25 25 25 26 26 26 26 28 30 30 32 33 34 35 36 37 37 38 40 41 42 42 40 38 36 34 27 28 24 25 25 25 26 26 26 27 31 34 33 33 34 36 34 31 21 20 14
23 24 23 25 26 29 30 33 35 37 38 39 39 40 40 41 41 40 40 41 42 46 45 45 42 38 36 32 32 27 27 27 27 29 28 28 29 34 38 36 29 33 31 28 26 21 19
21 24 25 28 30 33 36 38 38 40 42 44 46 47 47 46 45 43 40 43 43 45 45 47 49 43 41 37 36 32 31 33 30 34 30 30 31 27 28 34 32 30 27 31 21 19 24
24 27 29 31 33 35 38 41 42 44 46 48 50 52 54 52 52 53 52 51 49 48 45 44 48 47 46 43 41 38 37 35 34 30 32 36 28 23 26 33 37 35 28 27 23 21 22
25 30 32 34 36 40 43 44 46 48 51 56 59 59 59 58 59 60 58 59 59 58 54 40 44 48 42 50 43 44 40 36 34 34 33 32 25 28 27 30 36 37 34 29 26 24 25
33 37 39 40 42 47 48 52 55 59 63 65 65 66 66 66 69 68 68 65 61 63 61 53 49 48 47 50 51 44 45 41 41 37 34 35 33 34 32 32 32 36 35 34 32 28 30
38 39 43 48 51 55 58 59 60 62 64 64 58 51 48 49 47 47 57 60 64 63 58 50 62 51 51 52 45 48 44 47 45 38 42 37 36 38 36 29 33 31 33 37 37 32 32
42 46 48 50 53 56 58 58 58 56 52 46 37 36 37 42 48 51 50 54 55 54 54 20 44 55 57 53 51 49 50 48 44 44 45 39 39 40 34 33 32 25 29 34 38 34 42
43 48 50 51 55 59 63 59 57 49 39 36 36 38 48 54 51 51 52 60 58 45 28 28 49 64 63 60 50 52 54 57 55 56 53 46 45 42 38 37 33 34 33 36 39 48 48
47 50 50 52 57 59 57 55 50 41 36 38 42 44 51 58 51 48 50 51 57 21 25 49 60 58 66 62 57 45 54 59 54 55 51 48 50 46 45 43 37 41 38 39 44 44 37
49 51 51 53 55 55 51 49 42 37 44 45 48 52 58 51 47 46 49 49 42 27 36 51 62 43 46 47 55 36 50 54 56 55 55 52 50 43 45 44 44 44 44 32 30 22 25
52 50 50 51 52 48 47 45 38 41 48 49 53 58 54 51 45 45 46 34 31 34 38 36 51 41 44 52 55 53 48 45 51 55 57 55 37 46 40 43 45 46 35 38 38 30 24
49 48 48 50 49 43 45 44 41 41 47 51 53 53 55 46 42 44 28 29 26 30 37 44 44 54 44 54 61 62 53 42 44 39 55 59 49 35 36 49 50 47 45 40 35 34 23
46 46 48 51 45 42 43 42 42 41 46 52 51 49 53 45 41 36 28 33 24 17 17 38 47 49 49 54 61 59 64 63 54 55 56 61 61 47 36 42 43 48 46 43 42 38 34
45 45 47 47 43 43 41 44 41 43 50 52 51 49 53 47 42 37 34 27 16 13 20 23 42 49 60 43 57 58 59 63 66 62 61 57 69 56 42 35 39 49 50 48 38 35 37
44 44 47 44 42 42 42 44 35 42 51 50 45 49 47 41 39 41 36 23 10 17 21 17 24 30 56 63 40 57 59 49 66 69 70 68 70 68 60 52 40 47 45 44 42 40 36
42 43 45 44 42 42 42 42 32 40 48 49 46 50 44 38 32 37 34 20 16 18 22 21 24 16 31 56 56 44 46 56 63 75 70 67 65 71 55 41 29 43 45 45 47 40 40
42 42 44 43 43 41 40 34 35 41 45 45 45 49 39 39 34 35 33 28 21 22 20 14 13 19 21 34 44 50 42 50 47 68 72 70 64 68 63 52 43 42 38 41 42 43 32
40 43 45 42 41 39 37 29 36 42 45 44 42 47 37 41 35 34 29 28 22 21 15 12 14 14 22 26 40 63 37 34 45 63 70 69 68 74 69 60 50 44 43 40 40 41 38
40 43 43 41 38 38 32 32 35 42 45 45 42 45 35 36 36 32 31 25 23 18 15 12 10 13 18 30 36 65 35 29 44 56 68 70 74 72 64 61 51 44 47 45 37 40 39
40 42 41 40 36 36 29 32 35 41 46 42 40 43 36 32 36 32 31 28 24 20 15 14 10 15 15 18 28 41 60 34 39 50 68 72 73 72 68 64 58 45 59 51 46 35 33
40 40 41 39 37 34 26 31 35 41 45 38 37 40 37 30 31 32 29 29 20 21 16 14 12 12 8 9 21 20 36 32 35 38 56 68 70 70 67 57 51 43 36 56 48 49 48
39 39 40 38 36 29 26 28 36 42 40 34 36 38 35 34 27 28 28 26 25 19 17 12 11 7 7 6 20 20 37 31 23 29 49 58 65 66 60 65 45 47 35 48 52 57 63
39 40 38 36 32 26 24 29 38 38 32 31 31 31 31 31 28 27 28 25 24 23 17 12 7 4 7 7 21 25 20 33 36 24 30 48 53 64 62 54 48 43 49 47 55 58 70
41 40 36 34 26 22 23 32 35 32 30 26 29 35 32 33 29 25 27 29 28 25 19 15 11 3 6 11 22 23 20 26 42 34 25 32 45 49 62 60 43 36 51 57 58 62 57

GFSGBSN_500_spd_033.txt.gz
Wind_Speed
18 19 20 20 21 22 24 25 26 27 28 29 29 29 29 28 27 27 28 28 26 24 24 24 22 19 16 12 22 16 18 18 15 17 19 20 19 21 16 19 20 18 14 9 11 9 8
20 20 21 21 22 23 24 25 27 27 29 30 31 31 32 32 33 33 32 32 30 29 28 27 26 22 18 14 20 16 20 20 18 17 19 22 21 22 25 21 18 18 18 16 12 16 6
21 22 22 23 23 24 24 25 26 27 28 29 30 31 31 32 33 34 35 36 37 35 32 31 31 26 17 23 20 16 21 22 21 20 19 22 27 28 28 26 22 23 18 20 15 11 3
21 21 21 21 22 23 23 24 24 26 28 28 29 30 30 30 31 33 34 36 38 39 39 38 35 31 21 31 24 19 20 27 23 24 24 25 28 30 31 28 30 30 30 26 22 18 14
18 20 20 20 21 23 26 28 30 32 33 34 35 36 36 35 34 34 35 36 37 38 40 41 42 38 29 31 30 29 24 24 26 28 29 29 30 31 36 35 35 36 32 30 28 21 17
16 18 20 23 26 28 30 31 33 35 37 38 39 40 42 43 43 42 42 41 40 39 39 41 43 42 42 35 35 33 30 28 27 29 33 32 32 34 36 40 34 30 32 28 29 21 19
19 22 24 28 31 33 34 35 37 39 41 44 43 43 43 45 46 48 48 50 50 46 41 42 43 40 41 40 40 38 36 35 32 32 31 34 37 32 26 30 33 33 31 29 26 25 25
24 28 31 34 36 36 38 40 43 47 49 47 45 48 53 56 57 56 55 55 53 53 45 48 44 41 37 41 44 41 41 41 38 29 33 40 34 27 26 28 35 37 34 31 23 24 21
29 32 33 34 36 38 42 45 49 51 54 54 56 58 60 62 63 66 64 62 60 58 54 55 52 50 43 48 40 43 45 41 42 37 36 35 24 33 33 31 34 38 37 30 23 25 20
30 35 38 41 43 46 51 53 57 58 58 58 60 58 56 42 45 43 41 44 52 65 58 51 54 56 55 52 49 42 45 44 47 45 38 35 34 38 36 34 31 33 34 33 26 34 30
36 40 43 47 50 50 55 57 58 57 56 55 54 50 39 33 30 36 40 40 41 47 47 29 52 57 59 55 51 43 46 47 48 47 44 36 36 39 39 30 31 26 33 36 34 39 35
40 44 47 52 54 57 59 58 56 54 51 47 44 38 31 36 39 49 43 45 46 45 42 25 47 51 57 65 63 51 52 51 45 49 48 43 37 40 38 34 37 28 34 38 41 42 50
45 50 52 55 57 57 56 55 52 50 46 38 38 34 40 43 47 53 47 49 48 46 44 37 45 55 50 65 60 64 57 57 56 55 56 51 46 42 42 39 41 36 35 36 42 52 50
50 51 53 56 55 56 53 51 46 45 44 38 42 41 46 48 51 49 49 46 41 44 39 33 41 42 49 54 63 69 64 61 57 56 53 53 52 51 46 45 42 37 34 38 41 46 44
49 49 55 57 53 51 51 47 42 43 42 41 43 46 47 51 50 48 45 40 42 42 41 43 35 61 47 48 60 69 67 63 59 55 58 57 54 43 46 44 43 40 45 36 34 34 37
49 53 55 52 48 50 51 46 43 41 45 42 40 46 49 47 47 47 41 35 37 43 43 38 38 44 54 45 50 60 62 68 66 47 43 56 48 48 40 43 44 47 34 40 39 37 33
53 56 52 49 47 49 48 46 44 41 41 35 42 49 48 45 45 41 37 34 37 37 37 34 34 30 44 51 47 53 61 65 64 54 53 57 55 54 37 46 50 50 44 39 37 37 30
56 56 50 46 46 47 46 46 44 41 31 36 43 49 45 47 39 39 31 35 39 34 22 18 21 17 28 53 49 52 61 52 60 60 62 54 60 54 56 43 45 42 49 43 43 37 31
57 53 46 45 45 47 46 44 43 35 31 39 45 47 44 45 36 35 32 36 32 17 17 17 18 22 33 48 50 54 62 50 59 65 65 61 66 58 58 51 45 40 46 47 41 35 37
56 47 45 43 45 47 47 43 39 33 34 40 46 47 42 43 35 38 34 34 26 20 20 21 23 27 18 40 61 52 50 44 56 67 69 72 72 70 61 58 52 46 39 42 46 43 35
47 42 43 42 45 46 47 40 35 34 36 40 47 45 42 42 34 35 34 34 29 18 22 26 22 26 29 26 47 65 49 39 56 64 68 72 74 74 64 58 53 42 46 36 48 43 41
40 40 40 42 43 46 43 39 35 32 37 42 47 43 40 43 33 34 35 32 27 26 21 18 19 14 16 20 35 57 52 40 47 64 65 73 71 77 68 57 44 39 41 34 38 45 38
35 37 40 41 42 44 41 37 35 33 38 43 45 40 39 37 33 34 35 30 25 27 20 19 15 14 15 19 24 48 63 33 47 55 67 71 68 73 67 58 49 45 46 32 30 36 44
35 37 40 40 42 42 38 35 32 35 41 44 39 38 36 32 36 32 33 33 29 22 22 18 16 10 14 18 24 52 55 27 44 53 60 73 72 71 71 59 59 43 47 49 34 28 41
35 38 40 40 40 40 36 32 31 36 41 36 35 35 33 33 36 34 32 33 31 23 22 17 14 12 15 17 20 41 51 29 27 49 59 66 69 67 73 65 62 44 40 38 46 41 44
37 40 43 39 37 35 30 29 31 38 37 33 29 35 34 34 33 32 31 34 33 29 21 16 15 8 8 9 2 22 41 27 18 46 59 64 68 68 73 65 60 54 51 47 47 50 50
39 43 42 37 31 25 24 27 34 37 35 28 25 31 32 33 30 29 29 30 33 34 24 6 6 12 19 7 14 10 30 27 20 8 47 65 70 65 72 56 67 56 59 55 51 54 57
39 36 31 27 22 22 26 31 33 32 30 29 26 27 30 30 30 26 25 26 26 29 27 20 5 8 11 16 16 17 25 26 19 10 34 44 62 64 54 67 64 61 63 62 61 60 64
27 23 24 25 26 27 29 30 28 28 26 27 26 28 30 32 35 28 24 22 19 20 20 18 13 7 8 10 6 15 21 33 30 14 26 32 53 68 62 42 67 52 62 69 71 68 71

GFSGBSN_500_spd_036.txt.gz
Wind_Speed
13 14 15 17 18 20 21 22 23 24 25 25 26 27 28 29 29 30 31 30 28 26 26 25 22 17 13 12 24 17 19 18 15 17 22 21 21 21 15 17 14 16 17 14 18 11 7
14 14 15 16 17 18 19 21 22 23 23 24 25 26 27 27 28 30 31 32 33 33 31 30 27 23 15 19 25 15 22 20 20 18 19 22 22 23 25 22 15 19 20 20 20 17 9
12 13 15 15 16 17 18 19 21 22 23 24 25 25 26 27 27 28 29 30 31 33 33 35 34 29 19 29 26 17 19 24 22 21 19 22 30 30 29 29 25 26 27 28 24 14 13
12 13 13 15 17 19 22 24 25 26 27 28 30 31 32 32 31 30 30 31 31 31 33 34 36 35 25 33 29 22 25 25 25 25 25 25 29 32 35 30 32 32 32 26 21 16 17
11 13 16 17 21 25 27 29 30 31 33 33 35 35 36 38 38 37 36 36 33 33 35 35 35 35 31 35 37 32 26 29 29 29 31 31 33 30 37 36 38 36 29 27 28 25 18
16 18 21 24 27 29 31 32 34 35 36 38 41 43 43 41 41 42 41 40 40 39 42 39 37 37 36 36 38 36 31 35 31 33 36 36 36 34 37 39 34 34 28 27 26 25 21
20 23 25 25 27 30 31 33 35 38 41 43 44 46 47 49 48 46 46 47 48 43 46 49 47 41 39 41 39 43 40 40 40 39 32 35 40 37 27 30 31 35 34 28 22 26 27
22 23 25 28 31 34 37 40 41 44 47 51 53 50 52 54 56 56 56 57 55 51 45 46 52 51 48 47 41 41 46 45 44 40 37 42 37 26 31 33 33 38 38 30 27 28 24
27 29 32 35 38 39 41 42 45 49 51 52 52 55 57 58 57 59 59 57 59 59 55 58 55 51 56 53 48 44 44 46 48 45 45 42 26 33 35 35 35 36 38 32 29 30 28
30 33 35 36 38 40 45 49 52 56 55 58 57 56 57 47 50 38 32 32 37 37 45 52 51 49 51 60 59 55 54 49 51 49 49 46 36 39 39 38 35 36 29 35 34 36 40
35 38 38 40 41 45 48 51 56 58 56 57 55 49 44 45 31 24 29 35 36 33 39 37 39 43 46 52 64 63 61 59 51 53 54 47 43 42 44 37 35 26 33 39 37 38 42
37 39 41 41 45 47 50 54 54 54 50 50 48 43 42 38 31 31 35 37 39 38 40 39 36 37 36 45 56 65 68 66 59 54 55 51 47 48 40 36 39 34 37 41 44 45 52
39 40 42 46 49 51 52 53 54 51 48 44 43 41 40 37 35 38 41 40 38 37 36 38 40 47 44 42 49 51 68 71 65 62 63 59 58 54 48 45 46 42 44 46 52 58 58
42 43 46 50 53 53 53 53 52 48 47 41 43 40 33 35 38 40 41 37 33 34 37 42 49 47 49 52 52 46 66 70 73 69 63 58 59 58 52 50 45 45 48 49 51 54 47
46 49 49 52 55 53 51 52 50 48 46 41 43 35 30 37 40 37 38 35 35 37 39 39 41 49 51 52 50 53 62 60 70 74 73 63 62 57 53 49 47 42 49 41 43 47 46
49 51 55 53 55 51 49 50 48 45 43 42 34 27 34 40 39 39 39 35 40 40 41 43 44 38 35 40 45 61 61 56 62 73 78 70 68 62 56 46 48 46 40 44 46 44 46
49 53 53 54 50 48 47 48 48 43 39 38 31 34 38 41 38 38 35 34 38 37 40 42 39 33 31 34 29 67 65 56 64 69 77 75 73 65 49 60 52 52 50 45 42 44 41
52 55 53 55 47 45 44 47 46 44 34 35 34 36 39 41 36 36 33 31 35 34 38 36 29 24 28 25 27 57 67 55 58 67 70 74 77 69 63 53 53 48 51 46 45 45 37
54 57 57 47 44 43 43 46 45 41 35 28 34 37 42 38 34 35 32 30 33 32 34 26 26 27 27 29 31 30 62 56 47 56 66 69 78 67 66 56 57 51 49 48 46 38 39
56 56 45 42 41 41 43 44 43 39 35 31 35 41 39 37 35 33 32 30 30 31 30 23 25 30 31 28 32 24 58 56 40 60 64 70 78 73 71 64 54 58 54 51 49 45 39
58 47 41 38 39 42 42 44 40 38 33 31 38 41 38 35 35 33 33 31 31 28 26 23 22 25 26 27 27 28 57 49 42 64 61 71 73 74 73 68 63 59 54 50 53 48 41
53 37 37 38 41 42 42 41 36 32 32 35 40 38 33 36 34 32 32 32 31 29 21 21 23 22 20 16 19 19 54 50 34 33 59 64 68 73 70 66 60 56 55 50 41 44 41
35 34 37 41 45 43 39 36 31 28 32 38 36 30 31 32 36 33 32 30 30 30 19 25 22 20 16 19 15 14 41 48 32 36 59 67 64 68 69 65 60 55 50 48 35 31 36
30 36 41 45 44 37 31 28 26 31 36 37 34 27 31 32 35 34 30 28 29 28 25 18 20 20 15 17 16 21 51 52 28 31 53 62 67 69 57 67 63 56 47 48 41 34 32
31 37 42 36 30 27 25 26 30 34 33 34 31 30 33 33 34 31 28 27 27 28 24 11 11 13 11 12 9 9 40 55 34 20 53 61 66 66 55 69 64 59 49 52 53 46 40
35 35 25 26 26 27 29 31 32 30 30 31 32 32 32 34 32 32 27 27 24 26 26 19 10 18 15 6 17 16 28 30 26 29 47 59 66 65 65 64 69 64 53 55 54 50 43
30 20 25 28 29 28 28 29 31 33 31 29 30 30 28 31 30 29 29 26 20 21 25 21 9 12 8 17 23 21 13 22 16 27 45 62 70 66 72 66 67 67 66 61 49 57 52
16 22 27 28 27 25 24 28 34 33 28 27 27 28 34 35 32 30 30 27 20 20 21 18 10 12 12 13 19 24 25 32 7 26 45 62 65 69 71 70 66 65 55 56 60 64 57
19 27 29 28 26 25 25 29 30 28 28 29 31 38 43 41 39 34 35 32 25 19 19 22 10 14 7 8 26 24 28 30 11 16 30 45 61 71 69 81 66 69 63 52 64 67 58

GFSGBSN_500_spd_039.txt.gz
Wind_Speed
12 13 13 14 15 15 16 16 17 18 19 20 21 21 22 23 24 25 27 27 28 28 28 27 23 19 17 20 26 17 18 19 19 18 22 23 22 20 17 18 17 20 19 18 11 20 14
9 10 11 12 13 13 14 15 17 18 19 20 21 21 22 22 24 24 25 26 27 28 29 30 30 25 21 26 27 22 19 20 24 22 20 22 24 27 27 22 16 26 28 23 18 17 18
10 10 11 11 11 13 15 17 20 22 23 24 24 25 26 26 26 27 27 26 28 29 29 29 31 30 26 33 29 25 27 24 23 27 24 25 30 30 30 26 28 31 30 26 20 21 21
7 9 12 14 17 19 21 23 23 24 26 28 30 31 32 34 33 33 33 32 32 33 33 31 30 29 30 34 37 34 30 27 28 29 29 31 32 34 34 33 32 33 33 24 23 28 23
13 14 16 18 19 19 20 22 23 26 28 30 31 34 34 34 37 40 40 38 39 40 40 36 33 32 32 33 39 38 33 34 33 33 34 36 34 33 36 38 37 38 32 26 28 29 24
16 18 19 19 22 24 27 29 29 30 31 33 35 37 39 40 41 38 40 42 42 41 44 44 40 37 37 36 36 41 37 41 40 38 39 38 37 34 37 39 35 35 32 30 28 28 24
20 22 24 26 27 29 30 31 31 33 33 33 36 39 42 41 43 44 44 44 44 46 51 47 48 47 45 43 41 42 42 45 47 46 42 39 40 38 28 27 31 32 33 33 28 35 32
24 25 27 28 31 32 32 31 32 33 35 40 43 47 50 52 53 51 51 50 49 48 50 49 49 51 49 51 52 50 46 47 51 49 46 46 42 26 34 36 33 36 35 31 31 36 34
28 30 31 33 33 32 33 36 39 42 44 46 51 53 54 56 57 57 56 55 56 56 53 54 55 55 50 50 54 53 53 52 51 53 53 50 35 36 36 39 37 37 36 32 26 36 36
29 31 33 34 34 36 40 43 45 47 47 50 54 57 58 53 54 52 51 48 42 37 49 48 46 46 47 49 56 52 57 57 57 55 56 57 46 45 41 40 40 39 29 32 33 39 40
35 36 36 37 40 44 47 49 50 51 50 52 55 55 55 49 46 44 41 35 30 33 39 36 33 32 36 42 45 46 50 58 61 60 63 61 54 55 49 37 38 28 32 36 37 41 42
41 42 43 43 45 47 50 51 52 52 48 52 56 51 48 45 42 39 34 26 31 34 37 38 32 33 32 32 35 31 43 54 65 69 66 65 60 60 48 42 40 34 38 39 43 47 56
43 44 44 44 45 48 50 51 52 51 48 51 52 48 45 40 38 30 26 30 30 31 34 37 36 35 36 36 41 37 35 49 62 70 69 69 65 65 59 53 48 45 49 47 51 59 59
45 45 45 44 47 52 53 52 50 48 46 47 51 47 39 36 25 28 32 32 32 35 35 34 36 39 39 41 47 45 43 53 56 71 73 75 71 70 64 62 53 53 53 57 56 56 51
45 43 46 45 51 55 55 52 46 43 44 46 48 38 36 29 30 33 35 34 34 35 34 34 36 38 40 41 46 54 54 60 61 65 78 78 74 72 65 63 56 54 59 51 51 51 47
42 44 44 49 54 56 54 46 43 41 45 45 41 34 32 30 34 38 41 36 37 34 32 35 39 41 42 43 49 51 54 62 64 65 76 82 78 75 68 58 55 53 51 53 55 54 52
48 47 48 56 56 56 45 41 41 41 44 42 38 34 31 33 39 43 40 36 35 32 31 34 37 38 42 42 37 32 37 53 64 67 72 79 82 73 66 69 62 60 58 54 48 52 51
45 46 52 56 56 47 37 38 41 41 42 38 34 31 29 36 41 39 35 34 32 31 32 33 34 37 37 36 33 27 26 37 58 61 55 74 85 73 68 66 63 59 60 54 54 53 51
48 52 54 58 49 40 36 39 41 42 37 31 25 27 34 37 35 33 33 32 33 32 33 32 32 33 35 34 33 32 32 31 50 64 42 60 82 71 61 63 69 64 61 56 52 49 49
50 54 54 50 40 37 40 43 41 39 30 24 28 33 35 35 32 33 30 31 32 32 30 31 30 31 32 30 30 32 31 31 41 62 44 52 74 76 70 68 72 65 58 57 52 51 48
51 51 46 35 40 44 45 38 30 26 24 28 33 33 34 31 33 35 35 33 31 28 29 30 29 28 29 27 27 30 26 25 46 70 38 52 65 77 73 67 67 67 61 59 59 50 47
48 38 33 39 40 34 28 26 22 22 29 32 31 32 28 32 38 36 36 34 31 28 27 28 26 30 28 28 24 12 16 23 28 70 26 56 52 74 70 70 62 62 61 59 57 53 44
38 32 36 30 27 26 27 27 28 27 28 27 28 29 28 31 33 35 33 33 30 28 25 25 25 27 28 26 21 20 15 17 42 53 26 53 66 69 71 69 62 59 67 61 57 54 46
31 31 23 26 27 27 28 28 27 26 27 28 30 31 29 29 29 28 29 30 28 26 25 23 21 10 18 19 20 20 17 13 49 34 25 49 64 69 59 63 59 61 63 61 59 56 50
30 21 24 26 27 28 25 27 30 30 28 29 31 32 30 28 27 25 25 27 26 22 24 22 23 16 23 23 18 12 8 18 49 33 19 46 57 62 55 64 56 60 60 59 59 54 53
22 24 26 27 27 24 21 29 30 30 27 28 29 30 28 28 28 26 25 25 24 23 22 18 14 19 17 9 10 13 22 16 33 31 38 48 52 52 58 69 57 59 61 54 57 52 53
19 23 27 26 22 23 24 25 28 27 27 28 31 31 31 33 33 33 29 27 22 23 22 14 16 12 13 21 12 20 21 20 14 25 24 51 51 57 60 69 59 60 57 57 54 58 55
20 25 27 28 20 24 22 22 25 23 26 28 31 37 39 39 38 41 39 33 27 24 23 16 11 5 23 10 23 31 31 30 23 20 41 52 57 58 60 70 56 57 56 56 61 60 58
21 25 27 30 23 21 19 19 21 23 23 27 32 36 41 44 46 47 45 40 33 25 20 19 11 11 13 17 22 26 32 25 23 32 41 49 57 60 60 60 58 63 57 55 61 62 57

GFSGBSN_500_spd_042.txt.gz
Wind_Speed
12 12 13 13 14 14 14 14 14 15 16 17 17 18 18 18 19 19 20 21 22 23 24 25 26 24 23 24 22 21 19 18 23 19 20 22 23 21 20 18 18 19 18 17 9 12 10
10 11 11 11 11 10 11 12 14 16 17 17 18 19 20 21 22 22 21 21 22 23 23 23 25 25 28 30 29 24 24 22 22 24 21 23 27 29 28 22 20 24 19 20 16 13 11
9 9 10 11 13 15 17 17 17 17 18 19 21 22 22 24 26 28 29 29 29 27 25 24 24 26 27 30 33 29 28 27 26 26 28 27 30 31 31 27 29 29 26 20 21 17 21
10 12 15 17 18 18 19 20 22 24 25 25 27 28 28 29 30 31 33 32 34 35 34 32 28 28 29 29 33 34 32 31 30 30 30 32 30 32 34 31 32 32 32 21 26 20 19
16 17 18 20 21 23 24 26 27 27 27 27 27 29 27 26 24 27 29 32 34 35 36 37 37 34 34 33 34 35 35 35 36 35 35 34 35 32 35 35 37 39 35 24 27 24 19
17 19 21 24 26 27 28 30 31 30 30 29 28 28 30 29 30 30 33 33 33 35 36 38 40 42 41 39 40 38 35 36 39 42 41 37 34 35 34 36 40 38 32 28 30 26 24
25 26 26 27 28 30 32 34 34 34 35 36 35 36 37 37 37 37 38 40 42 43 37 37 41 44 46 46 46 44 42 40 41 45 45 43 39 31 25 29 29 33 35 33 31 30 27
27 27 28 29 31 33 34 35 36 37 39 40 41 43 44 42 43 45 48 48 51 48 47 43 43 43 47 49 52 52 49 47 46 45 48 51 43 27 35 37 33 34 36 36 34 35 32
28 29 31 33 34 35 35 37 38 39 42 44 45 46 47 47 49 49 50 55 56 56 51 53 54 54 46 48 49 53 56 53 52 51 49 52 43 41 40 39 40 38 35 35 34 39 37
35 35 38 40 41 41 41 40 40 41 43 45 46 47 47 47 48 50 54 57 56 57 54 53 54 49 45 49 53 51 54 56 56 57 55 54 47 52 48 43 42 42 34 33 38 43 45
41 42 44 45 44 43 44 44 43 46 47 48 48 49 49 48 46 48 47 48 45 48 50 49 42 37 32 34 41 44 47 52 55 57 61 59 50 56 55 43 42 35 37 38 39 45 47
45 46 46 45 44 43 43 44 48 50 50 51 48 47 45 46 47 43 38 36 34 34 34 34 31 31 29 30 33 34 35 41 49 54 61 62 57 58 60 52 48 36 44 44 46 48 59
45 45 45 44 44 44 45 46 51 51 50 47 47 43 43 42 39 32 30 26 28 28 32 32 33 33 33 35 38 37 38 37 39 46 55 65 64 61 60 59 56 47 51 51 52 59 60
46 47 47 48 49 47 46 51 52 50 48 41 43 40 40 38 31 29 26 27 31 32 35 34 34 37 38 39 40 41 42 43 42 44 42 60 66 64 66 64 59 56 55 58 60 59 56
46 45 44 45 42 45 49 50 48 47 41 33 37 39 38 32 31 29 26 30 34 38 38 36 38 40 41 41 42 43 47 50 48 50 52 51 66 67 68 65 63 63 63 55 55 55 54
48 47 47 47 48 50 50 48 43 37 32 33 36 37 33 30 30 26 29 35 40 39 36 34 37 39 41 44 45 45 49 53 54 55 58 61 64 59 70 68 67 65 64 58 60 60 59
47 47 48 48 50 49 47 44 39 33 35 36 38 32 28 23 23 28 35 39 37 35 35 37 38 39 41 43 42 44 47 53 56 62 66 64 70 64 73 75 66 67 67 66 59 59 60
48 47 47 49 47 42 38 40 41 39 38 34 29 23 25 28 32 35 35 34 35 34 34 36 38 38 41 41 40 42 45 49 51 54 59 66 71 77 67 70 65 68 68 68 67 64 61
44 46 45 42 36 37 37 33 28 24 20 18 19 24 31 33 33 31 29 33 35 37 34 36 35 35 37 36 35 35 38 42 42 42 44 51 63 73 65 65 69 69 71 68 65 61 61
42 42 38 34 33 28 26 25 26 23 23 24 26 28 30 31 30 28 27 32 36 36 35 34 32 33 34 34 32 32 35 38 36 35 34 42 59 67 69 64 71 70 71 68 69 64 59
38 32 32 27 25 25 27 29 30 29 29 28 27 27 32 34 34 33 33 35 35 35 33 30 30 30 32 31 32 34 36 34 32 27 31 36 53 54 63 69 69 69 70 72 71 66 59
27 29 25 26 26 28 29 27 27 30 30 28 28 30 30 30 32 33 33 34 35 34 32 27 26 25 29 33 29 30 34 27 21 24 29 26 53 45 55 65 64 64 69 71 71 65 60
28 23 26 28 30 29 24 27 29 28 26 22 25 27 28 28 29 28 30 31 31 31 29 25 22 23 29 30 28 26 27 24 24 24 23 35 57 30 47 62 64 67 68 69 68 64 56
22 24 28 32 31 27 23 29 29 24 22 25 27 28 28 28 29 28 28 29 28 28 28 22 19 23 23 26 27 32 28 26 26 22 15 32 31 31 53 66 63 67 65 70 66 62 56
20 23 28 32 27 26 25 25 24 24 24 26 28 28 29 31 34 32 30 29 27 26 25 19 14 14 13 15 18 21 19 19 19 19 23 40 26 41 51 68 62 60 61 67 65 59 54
20 23 27 33 27 26 22 23 22 25 23 26 28 31 34 37 41 43 41 35 26 23 22 14 11 16 24 22 18 9 2 5 21 24 25 20 36 41 48 67 58 58 61 63 64 58 52
19 23 27 31 32 24 21 21 22 22 21 21 27 30 32 38 43 46 51 47 29 20 26 22 22 28 25 16 18 21 21 11 18 21 20 29 40 38 51 65 54 55 58 57 59 57 53
22 24 25 29 33 25 21 19 19 19 20 22 27 29 34 39 42 46 51 57 37 18 19 16 23 23 18 21 24 29 24 20 22 19 15 38 47 43 45 53 58 55 55 53 52 56 53
27 26 24 26 30 27 20 19 16 19 18 23 28 30 34 39 42 45 51 56 55 31 23 17 17 26 28 30 31 33 28 23 22 18 19 30 45 47 49 48 55 56 50 55 55 50 51

GFSGBSN_500_spd_045.txt.gz
Wind_Speed
13 13 12 12 12 12 11 11 12 12 13 14 14 13 14 16 16 16 16 16 17 17 18 18 18 21 24 24 22 22 18 17 17 19 18 22 24 22 23 20 19 18 19 17 6 12 12
11 11 10 10 10 11 13 14 14 14 15 16 16 16 17 18 18 18 18 19 18 18 18 18 17 17 20 25 25 25 24 21 22 19 21 22 26 29 26 25 23 23 20 19 15 12 10
10 10 11 13 15 16 17 17 18 18 20 20 21 20 20 21 23 23 23 23 23 22 22 22 23 21 21 22 23 25 28 27 26 25 22 24 26 30 29 27 28 27 22 21 18 14 14
15 15 16 18 19 20 22 23 23 24 25 25 25 25 23 24 24 25 25 25 25 24 25 26 25 25 26 24 25 25 24 29 31 29 27 27 28 28 30 30 31 30 25 23 25 19 14
21 22 23 24 25 26 27 27 28 30 30 30 30 31 28 26 26 28 28 29 30 27 24 25 27 28 28 28 27 29 29 28 31 35 33 31 27 29 28 31 35 37 26 23 27 23 17
25 25 26 26 27 28 30 31 32 34 35 35 33 33 34 33 33 33 32 32 30 31 31 29 27 29 31 32 31 32 33 33 33 35 39 38 31 28 28 28 34 34 27 25 25 26 22
26 27 28 30 31 31 33 34 35 35 36 35 35 36 37 38 39 38 37 39 38 35 34 36 33 30 32 34 33 35 36 38 39 38 37 41 38 26 24 29 29 32 33 32 31 29 29
32 33 34 34 34 37 39 39 38 37 36 37 36 36 37 38 38 37 38 41 43 44 41 36 39 40 38 39 37 35 37 42 45 43 42 41 40 33 34 34 34 32 34 34 34 34 32
36 37 38 39 39 40 41 41 42 41 40 39 39 40 40 41 40 42 42 43 43 43 43 44 44 45 47 44 45 44 40 44 48 50 48 46 38 40 41 39 38 37 34 35 39 40 38
36 37 38 40 40 41 41 41 40 40 40 40 40 42 43 42 40 40 40 40 41 41 42 43 44 42 45 47 48 47 45 46 48 50 54 53 47 45 46 46 42 41 36 36 40 43 43
40 40 39 39 40 40 40 42 44 44 43 44 44 44 42 41 43 43 42 39 39 40 39 38 40 37 35 41 43 43 48 50 51 52 54 57 51 51 50 46 47 39 41 41 43 48 47
42 43 41 41 43 41 40 41 40 40 42 44 45 42 41 41 40 39 39 36 31 33 33 32 34 32 30 28 30 34 38 45 47 51 53 57 57 57 58 50 52 46 49 48 48 52 62
44 45 44 44 45 43 43 43 43 44 45 44 43 40 38 36 34 32 29 27 29 29 27 28 26 25 28 31 31 29 31 32 35 35 43 52 57 61 62 59 56 53 55 53 54 59 60
44 45 47 46 44 43 43 42 45 44 43 39 39 35 31 30 31 28 26 25 25 25 25 25 27 30 34 36 36 36 36 38 39 40 38 39 48 59 64 64 60 56 59 60 59 59 57
48 50 48 46 46 45 44 44 44 42 38 34 33 32 30 29 28 25 24 25 24 25 28 31 35 39 39 40 41 41 41 42 44 44 45 43 41 42 57 65 66 59 63 58 60 59 60
49 46 43 43 42 41 41 37 37 38 37 36 35 34 30 26 22 18 19 22 26 30 34 36 37 38 38 38 40 42 44 46 47 47 49 50 46 44 44 47 63 61 58 66 65 63 65
47 45 40 39 40 37 36 32 26 24 24 22 19 16 15 16 19 25 29 31 32 33 32 34 35 36 39 40 41 42 45 46 49 51 51 54 54 49 48 46 44 61 64 67 66 66 65
45 42 40 36 34 32 26 22 24 25 25 24 23 23 22 24 25 26 28 30 30 30 32 34 36 38 39 40 41 43 45 46 48 50 52 54 58 59 54 49 49 51 69 69 69 70 68
44 39 33 32 29 25 25 26 27 26 25 23 24 25 23 24 25 26 29 30 31 33 34 37 39 39 39 40 41 41 42 41 41 44 47 51 57 61 62 55 54 56 58 70 71 68 73
36 31 30 28 29 26 28 26 29 30 27 25 21 24 25 25 23 23 25 27 30 32 34 36 38 36 35 35 36 35 36 34 33 38 39 44 49 58 61 61 63 66 62 65 73 73 75
31 26 27 32 30 28 27 25 32 30 27 20 22 27 25 25 26 27 28 30 32 34 35 34 30 27 28 29 30 29 30 31 33 38 41 43 49 60 64 67 67 70 71 66 78 77 75
26 24 29 32 30 29 29 27 28 25 23 23 24 24 25 26 28 28 30 25 25 36 34 27 22 20 21 24 25 26 28 34 37 38 41 43 46 51 58 60 62 69 74 72 81 78 75
19 25 29 32 31 28 28 25 24 27 25 20 21 24 26 27 30 34 38 37 31 35 26 25 22 20 20 24 23 28 33 36 37 36 36 32 33 36 39 38 54 72 75 73 80 78 73
20 23 27 31 33 27 26 25 24 23 22 23 25 24 26 30 35 41 46 40 31 26 24 16 11 13 13 15 17 24 31 34 41 38 33 28 28 32 25 34 53 64 64 68 78 78 71
20 23 24 28 32 29 24 23 21 20 19 24 24 26 31 33 38 45 50 40 27 22 18 16 23 21 16 16 19 20 21 20 18 23 28 23 28 30 28 23 35 54 57 69 73 74 67
25 25 26 26 29 32 23 23 17 19 20 21 22 27 32 36 42 48 50 36 26 23 27 27 25 20 17 14 12 13 12 13 5 13 21 25 29 33 19 31 29 54 56 65 69 65 64
27 26 27 24 25 29 25 23 15 17 18 20 23 27 32 37 43 48 49 34 32 33 31 32 33 21 13 13 15 21 23 18 15 18 19 18 15 16 19 48 16 56 53 60 61 62 60
30 29 26 23 22 24 24 23 10 14 20 24 24 26 31 35 42 46 45 34 34 29 34 32 29 21 20 20 21 21 19 20 18 13 16 16 12 16 39 22 18 56 55 57 57 54 56
30 31 28 24 23 23 22 23 11 16 20 23 24 25 29 31 37 41 42 36 27 25 24 26 28 22 23 20 21 22 20 15 11 8 4 3 10 17 30 9 36 59 56 54 54 49 51

GFSGBSN_500_spd_048.txt.gz
Wind_Speed
12 12 12 13 13 13 14 15 15 15 15 14 14 14 15 14 14 15 16 15 16 16 15 16 17 18 20 20 22 19 17 15 14 13 17 18 22 22 21 21 20 18 18 19 17 10 13
13 12 12 12 12 13 14 15 16 16 17 17 16 16 17 17 17 17 17 17 17 17 17 17 17 17 18 19 19 20 22 21 19 17 16 19 21 25 24 24 21 21 19 19 14 8 13
15 15 15 17 18 20 21 21 22 22 22 22 22 20 21 21 22 21 20 20 20 19 19 20 20 20 21 19 20 18 20 23 24 22 20 19 21 22 26 26 25 21 20 18 18 13 13
19 20 21 22 22 23 24 25 25 25 26 27 28 27 27 27 26 26 25 24 23 24 24 23 22 22 21 23 24 22 20 20 22 26 25 24 21 22 23 25 28 26 21 19 20 17 16
23 23 24 25 26 27 28 28 28 29 29 30 31 33 32 31 30 30 30 28 26 27 27 26 25 23 22 22 23 26 25 23 23 23 26 27 26 22 23 23 29 30 24 21 21 21 20
26 27 28 28 29 29 30 30 32 33 34 34 35 36 34 33 32 34 34 34 32 32 32 32 30 29 29 25 25 26 27 28 27 26 27 27 28 26 24 25 24 29 27 24 23 26 22
31 32 33 33 34 34 35 36 38 38 37 36 35 37 36 37 37 36 36 35 37 37 40 38 36 33 32 34 26 28 30 30 31 31 29 30 28 26 28 26 29 27 31 30 29 30 30
32 33 34 36 36 37 37 38 38 38 38 38 37 37 38 37 37 38 38 37 38 38 38 39 42 43 40 35 38 34 30 32 32 34 35 33 30 29 34 34 31 32 31 33 36 36 34
37 38 37 38 36 37 36 36 36 37 38 37 35 36 38 38 38 38 38 40 38 39 40 40 40 41 40 42 40 37 37 35 37 38 37 37 36 37 33 36 37 35 35 36 40 41 37
40 42 41 39 38 39 40 39 40 38 38 38 38 38 40 40 40 39 38 37 38 39 41 40 38 39 40 40 43 45 41 40 40 41 42 42 41 41 40 41 41 40 36 38 41 42 40
41 43 43 42 43 44 44 45 43 41 41 39 38 36 37 38 38 36 36 36 37 39 36 39 37 37 37 38 39 41 41 42 41 43 45 46 44 45 45 46 44 43 42 40 44 48 47
42 45 46 48 48 47 47 46 45 43 43 43 41 38 39 39 37 36 33 31 30 32 36 32 30 28 32 35 35 37 38 41 42 41 45 48 47 50 51 53 51 48 47 45 46 50 57
50 48 46 42 40 42 42 43 40 40 39 40 38 36 33 34 33 30 28 27 28 28 28 28 28 29 28 27 28 29 32 36 39 38 42 46 49 53 56 58 58 55 53 51 52 56 55
46 47 47 45 41 39 36 36 36 36 33 34 33 32 31 29 27 26 26 26 25 27 26 25 25 25 26 24 26 27 29 32 33 33 37 38 43 53 59 60 62 61 59 59 57 55 54
48 49 47 43 40 39 36 32 30 27 24 24 23 22 23 27 27 25 23 22 23 22 23 25 26 29 31 31 34 34 37 39 38 39 41 40 40 46 57 59 62 62 66 57 57 46 53
50 47 46 42 37 34 31 26 23 22 23 23 23 22 20 15 11 12 13 16 20 21 23 26 30 35 38 42 38 39 41 43 45 46 46 47 45 44 44 48 57 60 58 61 64 59 64
48 44 39 35 30 28 25 25 26 26 25 25 23 20 19 18 17 17 19 20 22 25 27 30 33 38 39 42 41 42 43 45 45 48 51 51 51 49 46 46 43 45 62 59 51 64 64
43 37 33 30 31 27 27 27 25 28 26 24 22 20 18 15 15 16 18 19 20 23 25 30 32 36 40 43 44 45 45 45 47 49 50 53 55 54 53 51 48 51 54 64 58 61 70
36 31 28 30 29 28 28 27 27 27 23 21 18 20 17 15 14 15 17 19 21 23 26 29 33 38 40 43 46 47 47 47 47 49 52 52 54 53 53 54 52 55 48 49 59 70 64
31 26 27 31 32 29 28 25 26 25 24 19 17 16 19 18 18 19 22 27 31 33 34 37 38 39 37 37 38 40 39 42 44 47 50 55 55 56 58 51 48 58 57 58 56 66 71
29 24 24 28 33 28 28 25 25 26 23 18 17 17 18 20 24 26 30 33 37 37 39 39 30 24 23 25 29 31 32 33 37 41 44 48 55 57 61 64 60 57 61 62 62 66 80
27 26 25 27 30 30 25 25 24 22 21 22 21 21 24 27 28 30 36 38 36 31 27 22 17 16 17 18 22 22 26 27 29 32 33 37 45 48 56 58 63 65 64 66 67 63 73
28 27 27 26 28 30 27 23 21 19 20 24 23 24 26 26 30 35 37 31 21 26 28 20 23 21 18 16 19 21 24 25 26 28 29 32 34 40 49 50 57 69 69 67 69 68 67
31 30 28 27 26 26 28 23 21 17 18 21 22 25 25 31 35 37 29 22 31 31 28 26 22 20 17 13 13 16 20 23 27 32 36 34 35 37 39 44 52 66 66 69 74 72 70
30 30 27 27 23 22 24 22 20 16 18 20 22 23 27 32 34 33 20 26 30 29 27 29 25 22 21 16 13 10 12 16 17 25 34 37 38 39 42 41 46 66 68 68 71 76 74
29 31 30 27 22 21 21 22 18 12 16 21 22 23 26 29 32 31 22 24 24 26 31 29 24 21 20 18 14 7 4 7 6 11 14 23 30 32 32 31 29 35 58 73 69 78 79
29 29 31 28 24 22 20 22 19 13 17 20 19 22 24 24 28 28 24 23 22 22 25 23 24 24 20 16 12 12 12 11 11 8 0 12 21 25 27 29 27 30 33 50 55 65 71
24 25 26 31 29 25 19 20 21 15 17 20 18 19 20 22 23 24 25 27 27 24 24 20 19 17 18 17 15 13 10 9 10 9 7 8 12 22 17 16 11 25 45 44 51 55 55
23 24 26 29 29 27 20 20 20 18 19 23 21 19 21 21 22 21 22 25 24 28 26 21 18 19 16 19 17 15 13 7 6 3 4 3 1 2 6 6 5 35 40 45 42 48 49

GFSGBSN_500_spd_051.txt.gz
Wind_Speed
14 14 14 14 14 14 15 16 17 17 17 17 17 17 18 18 18 18 17 17 16 16 17 17 17 18 18 18 18 20 18 16 14 13 18 18 20 22 21 19 20 18 17 16 15 16 16
13 14 15 17 18 19 19 20 20 20 21 21 20 19 19 20 20 20 19 19 19 19 19 19 19 19 18 17 17 19 20 21 19 17 15 17 19 20 23 23 19 20 18 16 17 16 13
16 17 18 19 19 20 21 22 23 24 24 23 24 24 24 24 23 23 23 22 21 20 20 19 21 22 22 21 18 17 19 20 23 22 20 18 17 19 21 23 23 18 17 17 17 15 12
21 22 22 23 24 25 25 25 25 25 26 26 27 28 28 29 29 28 28 28 26 25 24 23 23 23 22 24 23 22 21 20 21 22 24 22 19 18 20 21 22 22 19 17 16 16 13
26 27 29 30 31 32 32 31 31 31 32 32 32 32 31 31 30 31 30 31 31 30 28 27 25 25 24 24 24 24 26 24 23 22 22 23 23 20 20 19 21 23 22 18 18 16 16
28 29 31 32 33 34 34 33 35 37 37 37 38 37 36 36 35 34 33 32 33 34 34 33 31 29 28 28 27 25 26 27 27 26 25 22 23 25 23 20 18 19 23 22 20 19 20
32 32 32 34 34 36 36 36 35 35 37 39 39 40 38 37 37 37 37 36 36 36 36 37 36 36 33 32 29 30 29 29 30 29 28 26 26 21 23 24 23 25 22 27 20 24 25
33 36 38 38 38 39 39 39 37 36 35 36 36 37 38 37 37 36 36 36 38 39 37 38 37 37 37 39 38 35 33 34 32 32 32 32 27 26 27 29 29 28 25 27 27 27 30
35 37 39 41 42 43 43 42 42 40 39 38 38 38 39 38 37 37 35 35 36 37 38 39 40 41 39 40 42 42 40 38 37 34 35 34 32 33 32 30 32 32 30 29 33 34 34
40 43 45 42 42 41 41 41 40 40 41 41 37 36 36 37 36 35 35 36 36 37 37 43 40 41 40 42 44 42 43 44 41 40 38 37 36 38 37 36 33 34 32 33 38 41 40
46 49 47 44 44 42 42 40 39 37 37 35 35 35 36 35 36 37 37 35 34 34 32 42 42 40 40 43 44 43 43 44 45 45 46 42 41 41 39 40 39 37 38 39 38 41 45
46 44 44 46 44 42 39 35 36 35 34 33 33 32 33 34 33 33 32 31 31 31 28 39 37 34 36 38 41 43 42 43 45 47 48 46 49 47 45 44 43 43 43 43 43 41 51
43 43 48 46 42 40 38 37 36 34 33 30 29 28 29 29 29 29 29 27 27 24 33 40 34 32 33 36 38 40 40 40 40 42 45 47 50 51 49 48 49 48 48 46 47 49 47
42 47 49 44 41 37 35 34 29 25 22 19 19 16 16 16 21 25 25 23 22 23 29 33 27 26 28 35 35 35 36 36 37 41 39 34 45 51 51 51 50 54 53 49 46 41 46
44 49 44 39 34 33 32 29 27 26 25 23 22 20 17 15 15 9 17 18 15 24 24 24 25 25 29 33 31 29 32 33 42 35 37 32 30 50 56 56 52 47 52 53 38 30 38
43 44 37 34 34 33 28 30 29 27 25 23 19 16 13 11 9 6 3 9 14 15 15 18 20 24 28 32 31 36 36 39 40 35 37 40 42 44 52 54 53 55 51 45 53 43 41
45 36 33 32 32 30 30 32 28 27 24 20 15 12 14 11 9 7 7 11 13 15 18 21 25 29 34 35 42 41 43 46 45 43 44 46 45 41 46 48 45 50 57 56 40 44 45
40 31 30 30 31 31 28 29 26 26 24 15 12 14 10 10 11 10 9 9 9 11 13 18 22 27 34 39 42 47 42 45 51 46 45 49 52 52 51 44 45 47 35 44 56 53 46
34 30 30 28 29 32 27 27 27 25 21 16 15 15 16 15 15 15 16 18 21 23 26 27 29 33 36 41 45 47 47 45 53 51 45 50 51 52 53 54 51 51 54 50 48 47 45
31 31 32 30 29 29 29 25 25 19 20 17 16 16 16 17 18 19 23 24 25 25 24 26 26 29 32 34 38 42 42 45 50 51 51 52 53 53 52 31 45 50 55 52 46 45 51
30 32 33 30 28 27 26 25 21 17 19 19 16 16 17 18 21 25 25 20 18 19 18 17 24 28 25 21 24 29 33 36 40 42 46 47 50 53 56 56 53 57 67 62 62 61 50
28 33 33 29 27 24 22 26 21 19 18 18 17 17 17 22 26 23 19 19 20 16 17 19 22 28 25 22 22 21 24 27 32 35 39 42 47 52 58 59 58 61 63 66 66 66 65
28 32 32 29 27 20 19 24 21 18 16 14 15 16 20 24 23 20 18 19 16 16 22 21 21 24 25 25 20 19 23 31 34 30 29 33 37 41 51 54 57 67 67 67 66 70 70
27 32 33 29 26 22 19 21 20 16 14 15 15 17 22 22 20 19 17 13 14 16 22 19 19 20 20 22 21 18 16 25 27 29 29 31 33 37 36 41 44 53 63 68 70 70 71
26 30 27 30 28 24 21 19 20 12 14 11 13 16 19 17 20 18 19 18 15 21 21 23 19 18 16 14 14 15 13 11 13 21 28 29 35 43 43 45 45 51 43 63 79 81 82
24 26 26 28 29 27 23 20 21 11 13 16 16 14 14 17 18 17 19 23 23 23 23 22 21 18 17 15 14 10 5 8 10 12 15 26 26 34 40 48 51 46 38 53 70 82 75
24 24 25 27 25 27 24 20 19 15 16 20 17 14 14 17 14 16 19 23 25 24 25 20 19 16 16 19 19 15 11 10 9 9 9 12 17 27 32 41 46 43 49 57 66 71 71
24 23 24 26 25 26 23 19 20 16 15 17 18 16 17 16 11 12 16 21 24 20 24 22 16 14 16 21 19 17 14 13 13 11 8 6 11 15 17 28 28 25 35 52 57 58 62
21 22 22 23 25 25 21 19 20 17 16 17 18 18 18 15 11 13 20 22 20 21 21 22 16 16 14 21 23 17 13 11 13 14 9 3 4 11 17 16 16 6 14 27 37 35 53

GFSGBSN_500_spd_057.txt.gz
Wind_Speed
15 16 18 19 21 22 23 24 24 25 25 26 26 25 25 24 22 21 20 19 19 19 19 19 19 18 18 18 16 21 20 18 15 18 21 20 23 22 19 16 15 21 19 17 13 11 10
19 20 21 22 23 25 27 28 30 31 30 30 29 29 30 29 28 26 25 23 21 21 21 21 20 19 18 17 16 20 20 21 20 18 17 20 20 22 23 21 15 17 23 19 15 14 15
21 22 23 24 26 27 28 30 31 32 35 36 36 34 32 32 32 31 30 28 26 25 24 23 23 22 21 17 22 20 18 20 22 22 19 19 21 22 23 24 21 16 15 21 15 14 13
24 25 25 27 28 29 30 31 32 34 35 37 38 39 37 36 34 33 33 33 31 30 28 27 26 24 24 23 22 21 20 20 21 22 24 23 21 21 23 25 24 21 15 10 13 13 11
26 27 29 31 33 35 37 38 36 34 36 37 39 41 39 38 37 37 37 36 35 34 34 33 30 29 27 27 24 24 24 23 23 23 24 25 24 22 22 22 23 21 16 12 12 13 15
29 30 33 35 38 41 44 43 39 37 36 36 39 44 43 42 41 40 40 40 41 39 37 36 34 34 33 30 28 27 25 25 27 27 25 24 25 25 24 21 17 20 22 20 15 15 16
31 33 35 39 42 43 43 42 41 40 38 37 36 37 40 43 39 38 38 36 38 40 39 40 37 36 35 32 31 30 27 27 27 30 29 26 25 23 23 23 21 23 28 30 22 4 10
34 36 40 42 43 44 43 42 41 38 37 37 37 35 36 36 40 39 37 36 34 35 35 38 39 38 37 34 36 35 32 30 29 28 28 30 26 23 25 28 27 27 26 26 27 15 9
36 38 42 43 44 45 41 42 41 39 36 35 35 34 32 34 33 36 38 37 36 33 33 34 35 37 39 36 35 38 36 35 32 32 30 29 28 29 29 28 31 31 28 23 27 24 26
36 39 42 43 44 44 42 42 41 39 35 32 32 30 31 30 30 31 34 35 34 31 31 33 32 35 37 35 37 41 33 37 37 35 33 32 31 33 34 33 31 33 31 27 26 34 32
38 41 42 43 44 43 43 42 41 35 32 29 27 24 21 25 26 25 27 30 30 28 27 31 31 31 32 34 39 40 38 38 37 36 38 35 34 36 36 36 35 32 35 34 31 35 37
40 41 41 42 43 42 41 41 36 34 28 24 22 19 17 15 15 20 22 23 23 20 18 25 25 25 24 29 33 37 36 36 38 39 41 40 40 40 39 38 40 39 36 38 40 40 42
42 44 43 43 42 41 41 39 33 29 25 25 24 18 15 13 13 8 13 14 10 6 5 18 25 26 25 27 29 28 32 35 37 38 40 40 38 41 43 43 42 42 43 42 43 43 40
41 43 42 41 39 39 40 37 31 26 27 26 24 18 15 12 9 7 5 12 20 12 18 20 24 27 14 20 26 28 28 29 30 34 40 44 41 39 42 46 45 45 43 46 44 40 38
40 42 41 39 37 39 38 34 28 28 28 24 19 14 11 7 4 2 14 23 18 18 20 28 14 11 12 16 18 23 23 22 24 35 37 39 44 42 43 43 42 41 48 41 46 44 44
39 41 40 36 36 37 35 29 24 25 24 21 15 12 7 1 2 6 18 17 14 25 23 24 21 16 15 14 15 19 24 23 25 35 36 39 38 39 38 38 47 45 39 44 45 48 50
40 39 36 34 35 33 30 23 21 19 18 19 19 13 14 11 7 7 7 4 5 8 12 21 22 21 20 19 21 21 15 22 33 39 40 40 40 35 39 41 35 42 51 50 49 51 49
39 39 33 33 34 32 28 20 18 16 15 14 11 11 10 9 7 3 1 2 4 1 11 12 17 17 20 24 27 28 29 32 28 29 37 40 41 41 45 46 49 48 46 51 54 51 54
38 36 31 33 32 30 26 18 17 20 14 12 10 9 7 7 8 7 8 4 9 9 6 11 17 16 11 9 11 20 27 32 37 37 36 34 35 39 43 41 37 48 48 49 54 57 57
37 31 29 31 30 29 26 21 18 20 15 10 10 6 5 10 10 8 5 5 3 2 2 2 6 6 4 7 8 10 13 15 19 33 39 45 40 41 42 53 49 48 48 44 52 58 60
34 27 27 29 28 26 27 25 18 18 14 11 6 7 10 11 10 9 9 8 8 8 7 7 5 7 6 8 14 17 17 16 16 24 33 40 51 50 48 51 55 58 54 51 51 59 64
29 26 27 28 29 26 26 27 19 17 17 10 8 8 8 8 9 12 11 12 11 11 11 7 9 9 9 10 16 19 21 20 23 26 32 34 41 46 56 54 56 59 62 61 60 55 63
23 24 25 27 27 26 27 24 20 17 18 10 10 13 14 11 12 13 13 14 15 16 15 16 17 19 19 17 16 15 17 24 27 27 27 25 28 28 40 47 56 63 59 61 62 60 60
20 22 24 26 25 26 27 24 19 17 18 14 15 13 10 7 11 13 16 17 18 18 16 14 15 17 17 16 15 14 16 20 23 24 22 16 18 25 27 30 40 54 59 62 63 66 61
18 19 22 25 25 26 25 25 19 18 17 18 16 11 13 13 14 14 14 18 17 16 18 16 13 14 10 9 13 16 20 21 16 18 20 20 16 20 33 32 33 36 51 58 67 67 64
16 18 20 23 25 25 25 24 21 18 18 18 16 16 15 15 13 13 17 19 19 21 13 15 17 10 9 10 11 15 13 12 12 17 20 21 24 23 22 25 30 23 30 39 54 72 69
13 16 20 20 23 24 24 24 22 19 18 15 16 17 18 16 14 16 19 19 20 20 16 16 17 15 13 10 10 9 8 10 10 11 13 17 17 20 23 25 19 33 36 43 49 66 69
11 16 19 19 21 23 24 22 20 17 15 15 15 18 18 18 17 16 19 18 17 18 19 17 15 16 15 12 11 11 10 10 11 10 11 12 15 18 19 20 24 25 32 44 46 51 64
10 14 18 18 18 22 22 21 20 16 15 17 16 17 18 17 18 17 19 18 18 19 22 22 22 18 17 15 15 16 17 17 16 14 13 14 16 15 19 21 27 25 26 34 42 48 55

GFSGBSN_500_spd_060.txt.gz
Wind_Speed
16 17 18 19 20 21 22 24 25 25 26 26 28 29 30 29 27 26 25 23 23 23 23 22 22 22 22 22 22 23 22 20 18 21 23 24 23 22 17 18 13 20 25 25 21 19 11
20 20 21 21 22 24 26 27 27 28 29 31 31 32 33 34 34 33 31 29 27 25 24 23 23 21 21 21 22 25 25 24 21 20 19 22 25 28 26 24 17 20 25 26 28 19 11
20 22 22 23 25 25 28 29 29 30 32 33 34 33 34 37 37 37 36 34 33 30 27 26 24 23 22 23 23 25 23 25 25 23 21 23 24 23 27 25 25 24 17 19 27 15 9
28 28 28 29 31 31 33 34 35 35 36 35 35 36 39 40 41 40 38 39 36 35 33 30 27 25 24 25 25 25 24 24 25 25 26 26 25 27 24 26 28 22 12 8 17 13 8
28 29 30 31 33 35 37 36 37 37 34 34 33 33 33 37 43 44 42 41 40 38 35 34 32 29 27 25 25 27 27 25 25 26 29 30 26 24 24 25 21 22 16 12 9 9 8
28 30 31 33 36 37 38 39 39 38 35 35 34 33 34 35 33 40 44 43 42 42 40 36 35 35 33 29 28 27 26 27 27 28 28 28 27 26 23 20 17 20 23 24 20 8 10
33 33 34 36 38 38 39 40 40 37 36 36 34 36 37 38 37 36 39 41 41 40 41 43 39 38 36 34 33 30 30 28 28 30 28 28 26 24 23 22 22 25 27 24 23 18 14
36 35 35 38 39 40 41 42 41 40 40 39 35 32 31 32 35 35 36 35 39 37 35 37 41 41 38 35 36 36 34 32 31 29 30 31 26 23 26 28 28 27 26 20 25 23 23
36 36 37 39 41 42 43 42 42 42 42 40 36 31 29 29 32 34 34 34 37 37 31 33 35 39 40 40 38 36 37 36 33 32 31 30 26 31 29 30 32 30 26 23 28 29 27
35 36 38 41 41 41 42 42 40 41 40 37 33 28 26 25 26 26 29 32 30 33 32 32 32 35 38 36 37 37 37 36 36 34 34 33 30 33 33 31 31 33 28 27 31 31 28
36 38 39 40 40 41 42 39 40 40 38 33 26 24 23 21 18 16 20 23 24 26 28 28 30 32 33 34 37 39 37 37 38 38 39 37 35 33 33 33 33 29 31 29 31 36 35
41 40 39 41 41 41 40 39 39 37 33 27 24 24 23 19 16 14 11 13 13 16 21 20 20 24 28 31 34 35 34 37 38 37 39 38 36 37 36 36 36 35 35 34 34 38 38
37 40 39 40 40 40 39 39 38 34 27 23 23 22 17 14 13 10 1 9 18 20 19 13 20 24 24 24 29 29 32 36 37 39 40 39 39 37 37 37 37 38 39 38 39 41 38
36 40 37 38 37 36 38 38 35 27 24 24 20 18 13 9 7 5 15 25 27 24 19 18 12 15 18 22 25 25 26 25 34 38 41 42 39 42 41 41 38 41 41 40 39 37 42
41 40 36 38 35 36 38 35 31 20 19 21 17 15 12 5 1 4 17 29 26 26 20 14 16 11 16 20 17 21 25 30 31 32 37 42 41 41 43 44 44 41 40 40 40 42 44
43 36 37 38 36 36 35 31 25 18 16 18 16 18 14 4 4 5 14 23 24 22 23 19 12 8 8 14 21 23 29 29 33 34 36 38 37 40 40 43 43 41 39 42 42 43 47
36 31 36 36 34 33 31 29 21 18 14 14 13 13 11 9 6 4 0 5 14 16 17 19 19 20 19 16 18 23 22 22 27 31 32 34 35 36 38 44 45 47 49 46 45 45 44
28 28 34 32 33 32 31 27 20 18 17 13 14 12 10 10 11 10 8 6 7 7 15 22 22 26 24 24 22 21 20 15 15 15 15 20 30 30 37 38 41 48 52 55 55 48 48
27 29 30 30 30 31 28 26 23 18 16 10 8 9 8 10 10 9 7 4 10 7 12 15 14 13 16 21 28 26 22 20 19 20 22 23 28 29 39 41 42 46 49 53 58 57 51
20 28 27 28 30 30 27 27 24 17 15 11 8 5 7 8 10 8 7 3 3 2 1 2 4 6 10 10 10 13 15 14 15 17 19 23 28 31 40 48 47 51 51 52 54 59 60
20 25 25 27 29 29 29 27 24 15 14 9 8 8 7 12 11 11 11 9 7 5 4 2 9 11 12 12 11 8 11 16 18 20 21 23 26 31 37 48 56 51 56 56 56 58 61
20 21 22 26 29 29 29 28 22 15 17 11 9 9 9 10 9 9 10 9 9 9 7 10 9 11 12 15 15 14 14 20 27 27 28 26 25 26 28 40 57 65 55 56 60 59 61
17 17 20 25 29 29 28 26 21 15 14 14 11 13 13 10 11 10 10 10 13 13 14 14 13 14 20 21 21 20 21 20 21 27 29 30 33 34 35 33 44 64 67 57 55 58 60
14 15 18 23 27 29 27 26 22 17 16 15 14 13 13 11 11 11 11 12 13 12 13 13 13 13 14 16 21 20 20 19 19 24 28 32 34 34 31 29 33 51 65 68 66 59 61
12 14 19 22 25 28 26 24 22 18 16 16 17 17 16 13 11 11 13 15 12 12 10 7 8 7 10 10 13 13 13 17 20 21 21 23 27 31 33 24 26 27 43 60 74 74 72
8 13 18 21 23 25 25 22 19 18 17 17 19 20 19 16 15 15 18 16 15 15 8 7 7 4 2 3 5 6 11 14 15 13 18 22 25 27 28 29 23 25 36 41 57 76 76
7 12 17 20 22 22 22 21 19 16 17 17 17 18 18 18 15 15 18 20 16 17 13 10 10 11 10 6 5 6 9 11 10 13 17 18 19 21 23 26 25 24 26 34 49 65 69
6 11 15 19 20 20 20 19 18 16 16 15 16 16 18 17 17 17 17 17 16 14 14 13 13 13 13 10 6 7 8 8 7 8 10 14 18 19 19 23 27 23 24 30 45 54 61
6 9 12 18 18 18 18 19 17 15 14 14 15 16 17 17 16 15 16 18 16 13 15 15 17 17 15 13 12 11 12 12 13 13 12 11 12 15 20 21 25 23 24 27 30 41 53

GFSGBSN_500_spd_063.txt.gz
Wind_Speed
19 19 19 21 22 23 24 24 25 26 26 26 25 25 26 27 28 29 29 28 26 25 28 28 27 27 28 27 27 27 26 22 21 24 26 26 27 25 18 18 16 23 28 22 16 15 4
20 22 24 24 24 25 25 26 27 29 29 29 29 31 31 30 31 32 33 34 33 30 27 28 28 27 28 29 29 30 30 27 24 23 23 25 29 32 28 23 20 24 25 23 19 14 16
25 26 27 26 27 27 29 30 30 30 30 32 32 33 31 32 34 36 37 38 38 36 34 30 29 27 27 29 29 30 30 29 28 26 24 29 28 27 29 26 30 25 14 7 16 19 18
27 27 28 28 29 30 32 33 34 33 32 33 34 32 30 30 31 35 41 42 43 41 37 36 32 30 30 28 28 29 27 28 29 29 32 28 27 28 28 30 30 25 18 8 6 14 18
29 30 30 30 30 32 34 35 35 35 35 34 33 31 30 30 31 33 35 39 44 44 42 38 37 35 33 30 30 31 29 28 28 30 35 32 27 25 27 26 25 24 22 18 12 17 20
30 30 31 31 31 33 34 35 34 36 36 33 32 31 31 31 32 36 38 39 37 42 43 43 39 38 37 34 32 30 31 30 30 31 32 31 29 27 23 21 21 19 21 25 22 18 25
33 33 34 33 33 34 36 37 37 37 37 36 33 34 33 33 33 36 38 41 42 42 41 42 42 41 38 36 33 33 31 31 32 32 30 27 28 26 26 23 23 23 24 28 26 25 21
35 35 34 35 35 37 38 37 37 38 37 37 37 36 34 30 31 37 40 41 41 41 38 40 41 42 41 37 36 36 35 33 32 31 32 31 25 25 29 28 27 25 24 25 29 29 23
33 34 35 36 38 39 40 37 37 37 37 38 38 36 34 30 30 32 37 37 35 32 31 37 37 38 38 41 39 39 38 37 35 34 32 31 27 27 28 31 32 28 21 25 30 32 31
32 34 37 38 41 41 39 36 35 36 38 37 35 33 30 28 27 27 26 27 26 27 28 34 35 35 37 39 40 39 38 38 39 37 35 33 29 32 31 28 31 30 21 26 31 33 32
32 33 36 42 41 40 35 35 36 36 36 35 32 28 25 24 24 21 19 17 20 23 24 28 32 34 34 35 36 38 37 38 39 41 38 35 33 32 32 28 29 25 31 33 38 35 33
32 34 39 41 41 36 34 34 34 34 34 32 28 22 22 20 17 15 13 10 16 18 18 19 24 29 29 32 34 36 37 37 39 40 41 39 35 33 31 32 32 32 33 37 40 40 38
34 37 41 38 39 36 35 34 33 33 30 26 23 20 18 15 11 9 9 9 17 22 22 22 22 23 27 30 29 31 33 36 39 39 40 40 38 35 35 33 33 35 35 34 38 41 40
37 40 40 37 36 35 35 33 32 29 26 19 21 19 16 11 8 6 8 13 23 25 27 25 25 25 26 29 28 30 34 37 38 39 39 40 39 39 38 36 34 35 36 36 36 38 41
34 37 35 34 33 34 34 33 30 27 24 17 17 18 18 11 9 8 9 20 23 29 24 24 25 22 25 28 25 27 29 33 36 37 38 40 38 40 41 40 36 35 36 35 39 40 43
37 38 34 32 32 33 34 33 29 24 22 18 16 17 16 15 12 12 12 17 21 21 20 21 21 18 17 19 21 23 27 30 31 33 36 37 38 40 41 42 41 39 39 40 39 42 42
41 36 28 30 31 33 33 31 29 25 20 15 12 14 13 13 14 13 3 18 15 16 15 16 16 14 11 9 11 19 22 24 26 28 31 32 33 35 40 42 42 43 42 44 42 42 41
37 28 27 29 30 32 32 31 29 25 17 13 10 11 13 12 11 7 4 3 20 17 16 18 18 18 17 17 16 17 18 22 17 18 24 28 27 26 35 40 42 44 44 45 46 48 46
30 21 25 27 30 32 32 31 30 25 13 12 9 10 9 10 10 8 5 5 0 3 14 16 15 14 16 18 19 17 13 15 16 18 21 23 26 32 37 38 42 44 46 46 47 48 47
24 20 23 26 29 31 32 31 29 19 16 11 7 8 9 8 9 9 6 6 4 1 2 8 12 13 14 17 17 16 13 10 9 10 13 16 21 28 41 44 42 41 44 46 48 50 49
20 20 20 25 29 32 32 34 28 15 17 14 10 8 9 9 8 9 10 9 6 3 2 3 6 8 9 12 14 13 12 13 14 17 19 20 21 20 26 46 47 45 46 47 49 51 50
16 17 19 25 28 31 34 31 25 16 15 15 13 12 10 8 8 10 10 12 12 10 8 6 8 11 15 17 18 19 18 17 16 20 24 23 25 24 23 25 43 52 49 52 54 55 53
15 15 19 23 26 29 31 26 25 18 16 16 16 15 13 11 8 8 10 10 11 12 13 13 14 14 15 19 21 23 23 22 21 24 25 27 28 28 28 25 24 34 55 58 59 61 59
14 13 19 22 23 27 27 22 21 20 18 18 18 16 16 13 12 13 11 10 10 9 10 11 13 16 16 18 22 26 28 27 25 26 26 26 29 31 32 34 34 37 37 45 68 66 67
14 12 17 20 21 23 23 21 18 17 18 17 17 18 16 14 12 13 13 13 13 12 11 9 12 14 13 15 18 23 24 25 23 25 28 29 30 34 35 35 35 39 41 43 41 72 71
13 12 16 18 18 20 21 19 17 16 17 17 16 16 15 13 14 15 14 13 15 16 11 8 8 7 6 8 9 11 15 16 19 20 21 20 23 26 29 32 35 31 35 40 43 45 73
11 10 14 16 16 17 17 18 17 16 15 16 16 16 15 14 14 14 14 15 15 16 15 11 8 7 4 2 2 4 7 11 11 12 13 16 18 23 26 29 32 31 32 37 41 40 50
13 10 11 14 15 14 15 16 15 15 14 13 14 16 17 16 14 14 14 15 12 12 12 12 13 13 11 9 7 5 6 7 8 10 12 13 14 13 16 24 27 25 28 35 37 35 33
11 10 9 13 14 15 14 15 15 14 13 12 12 12 14 14 14 12 11 12 11 7 7 7 8 10 9 8 5 3 3 3 4 4 5 6 6 8 11 16 16 16 21 28 31 34 38

GFSGBSN_500_spd_066.txt.gz
Wind_Speed
21 23 24 25 25 25 24 24 24 24 25 25 25 25 25 25 25 26 26 27 27 26 24 24 25 26 29 31 29 28 27 23 22 25 26 25 22 22 22 21 21 25 22 15 12 9 5
21 22 23 24 25 25 26 26 27 27 27 26 26 27 27 28 29 28 28 28 30 30 30 28 26 27 29 32 32 31 31 29 26 23 25 28 31 28 26 26 24 27 18 17 15 14 15
27 28 28 27 27 28 28 28 29 30 29 29 28 28 28 29 28 27 28 28 31 34 35 33 32 29 29 30 33 32 30 31 30 28 27 30 31 30 29 26 26 18 9 11 19 19 15
30 31 31 31 31 30 29 30 30 31 30 30 30 29 27 27 26 27 27 29 32 35 37 38 35 34 32 31 33 35 32 31 32 33 32 29 28 29 32 29 31 21 13 10 10 17 18
33 33 32 32 31 30 29 30 31 32 32 32 32 30 29 28 27 28 27 28 30 31 34 39 39 38 37 34 34 34 34 34 32 34 35 32 27 27 28 28 32 27 22 17 14 14 17
31 31 30 29 29 30 30 31 33 35 34 33 31 30 28 26 27 27 27 28 30 33 34 34 40 41 41 39 36 35 35 33 34 32 34 32 30 28 24 24 24 25 26 24 20 16 17
29 29 30 29 29 29 30 32 34 36 35 34 32 30 29 28 28 27 26 28 32 35 37 39 37 40 41 40 38 36 35 34 34 32 32 29 30 25 23 23 25 24 24 27 25 23 18
29 29 30 30 28 30 32 35 36 36 33 32 31 31 28 26 25 26 24 28 36 38 41 41 41 40 41 41 41 38 35 33 33 34 32 29 24 27 31 28 26 25 27 26 29 29 24
30 29 28 29 32 34 34 34 35 33 34 30 30 31 26 24 23 22 25 30 34 39 39 41 40 41 42 42 42 40 39 36 34 34 33 30 27 29 29 30 29 27 25 27 30 31 29
29 28 29 33 37 36 34 33 33 33 32 31 30 28 24 20 19 20 22 22 26 33 32 36 36 38 38 40 42 43 39 39 36 34 34 31 30 31 28 29 30 29 26 27 30 31 31
32 30 31 33 37 35 33 33 33 31 31 31 28 26 21 18 17 18 20 18 20 21 25 27 33 36 34 39 40 40 40 39 38 37 35 32 31 31 31 27 26 27 31 30 31 31 28
34 30 30 35 36 33 32 33 33 31 29 27 24 23 18 17 15 15 17 16 15 16 22 21 27 33 31 33 36 38 38 39 39 38 37 36 34 32 30 31 30 31 32 34 33 32 29
37 34 34 36 34 33 33 33 34 31 27 27 21 21 21 18 14 13 14 13 11 18 20 20 25 28 30 30 31 33 36 39 38 38 36 37 36 35 33 32 33 33 31 34 34 36 33
42 40 36 34 33 32 33 35 34 30 26 23 18 18 18 14 9 10 11 9 15 20 22 23 24 28 31 31 31 32 33 35 37 37 36 37 37 37 36 36 33 33 33 33 35 38 36
43 40 34 30 30 32 35 35 33 31 29 22 15 15 14 13 10 10 5 9 14 23 23 23 25 24 27 30 30 33 34 34 36 38 38 36 36 37 38 37 36 34 34 35 37 41 40
45 37 29 28 30 33 35 34 32 31 27 20 12 12 12 11 12 10 6 5 8 19 21 21 20 21 21 25 25 26 31 32 34 34 37 37 36 37 38 39 38 37 36 37 38 40 41
38 33 25 26 30 33 34 34 33 28 21 19 11 10 12 10 8 7 1 6 5 11 12 13 21 15 15 16 18 19 22 23 24 26 29 33 34 38 39 41 40 40 41 41 40 40 40
36 26 24 26 31 34 36 37 30 23 19 17 13 11 12 11 9 1 3 8 10 11 11 10 8 14 18 19 19 22 24 23 24 25 26 25 28 32 36 39 40 41 41 41 43 42 42
32 22 22 26 31 34 37 34 30 21 22 18 10 10 10 10 12 11 8 0 11 18 19 19 15 16 18 20 21 20 22 22 22 24 26 25 28 28 34 38 40 42 42 42 42 43 44
27 20 21 26 29 33 35 33 30 19 19 17 13 11 9 9 8 10 10 6 3 2 4 15 18 12 14 16 18 17 15 15 18 24 27 29 27 33 37 40 41 41 43 44 44 45 46
22 20 20 24 27 31 33 29 29 20 18 19 15 14 10 6 7 8 7 7 6 3 2 2 5 7 9 13 16 14 13 15 20 22 24 28 29 32 37 42 44 45 44 45 44 47 48
20 17 20 22 24 28 29 26 25 24 22 18 17 14 10 11 6 6 6 5 3 4 3 4 5 7 10 11 10 10 11 12 14 15 14 15 17 17 22 29 37 43 44 43 44 46 49
18 15 18 20 21 24 26 24 24 23 22 19 19 16 14 12 11 9 9 9 8 7 7 6 7 10 12 15 18 19 18 18 18 18 17 18 20 22 23 25 26 30 41 46 45 46 48
16 13 17 18 19 21 24 23 22 21 22 21 20 17 15 14 14 14 11 10 9 9 8 8 8 9 12 16 19 22 23 23 24 24 23 22 22 23 26 30 32 33 33 37 45 53 52
15 12 14 16 16 17 19 21 20 20 21 21 19 17 16 14 16 15 15 13 14 13 10 8 8 10 10 12 16 21 24 27 28 27 27 26 23 24 25 28 32 33 34 36 36 39 47
16 13 12 14 13 14 15 16 17 16 18 19 19 16 16 15 15 17 16 15 15 16 14 11 11 9 7 5 7 10 13 18 22 22 24 25 25 25 27 30 34 34 36 37 38 38 46
16 12 10 12 12 11 13 13 13 12 13 15 16 16 16 15 15 16 15 15 15 13 14 15 15 14 8 5 5 5 7 9 11 14 16 17 20 21 23 27 27 28 29 35 37 34 38
13 11 9 10 12 11 11 12 14 14 13 12 13 13 14 15 15 14 13 15 13 14 13 13 13 14 15 12 6 2 4 5 7 10 12 15 17 17 18 19 18 20 25 30 35 41 45
12 12 10 10 11 11 10 11 13 14 13 14 14 13 12 12 13 12 13 14 13 12 12 13 13 13 11 11 12 10 7 5 6 9 8 9 10 10 11 12 11 13 16 22 26 30 37

GFSGBSN_500_spd_072.txt.gz
Wind_Speed
24 24 23 24 24 25 25 26 26 27 27 26 26 26 26 26 27 26 27 26 25 23 22 21 22 22 21 23 23 23 21 20 20 24 24 23 24 27 25 23 20 18 15 10 9 7 6
25 22 23 24 26 26 27 28 29 29 28 29 29 28 28 29 29 30 30 31 31 29 28 27 27 27 26 24 23 25 24 23 23 23 26 26 24 25 28 28 27 21 16 13 12 11 9
27 21 22 27 29 27 27 28 28 28 28 28 29 29 28 28 30 31 32 33 34 34 33 33 32 32 31 28 26 26 26 26 25 26 25 27 28 24 23 29 27 23 19 19 17 14 13
26 23 23 28 29 29 28 28 27 27 27 27 29 30 30 31 31 29 31 33 34 35 36 36 35 36 35 33 30 29 27 27 27 27 27 25 26 28 27 20 24 23 19 20 22 20 19
32 24 26 28 28 28 27 25 26 26 25 25 26 28 29 30 29 27 28 31 33 34 35 36 36 36 37 37 35 32 30 28 28 28 28 28 25 26 28 26 25 20 18 19 21 24 24
33 26 26 27 27 28 27 28 29 30 29 27 25 23 24 24 25 26 28 29 31 35 35 36 36 36 37 39 38 36 33 30 29 28 28 29 28 26 28 30 30 25 24 21 20 19 23
36 29 26 26 27 28 27 28 31 29 24 22 21 21 21 21 22 24 26 28 30 32 36 37 36 37 38 38 39 37 36 34 31 30 29 27 29 28 25 28 38 33 30 29 24 19 18
38 35 28 30 30 29 29 29 25 23 22 23 23 22 23 23 23 26 28 29 32 34 36 38 39 39 39 40 39 39 38 36 33 31 30 28 26 31 33 32 33 30 31 33 29 25 22
38 34 30 30 32 30 26 22 21 23 24 25 26 27 27 25 25 25 26 29 31 34 35 38 41 43 41 42 42 39 38 36 35 34 31 29 28 32 34 35 32 31 30 36 34 33 27
40 34 32 30 31 29 23 23 26 28 29 28 27 25 23 22 23 25 27 28 29 32 31 32 34 36 39 42 45 43 41 40 39 36 36 34 33 33 36 35 35 32 32 35 35 31 27
39 35 34 32 29 24 23 27 31 33 34 31 26 23 20 20 20 20 20 20 19 21 22 28 30 30 33 35 44 45 43 42 41 40 37 36 35 36 35 36 37 37 33 33 35 31 37
42 37 33 31 26 24 29 32 34 35 35 31 25 22 16 12 13 14 16 16 16 15 23 20 25 27 30 36 39 44 42 43 43 41 39 42 38 39 36 36 38 42 36 33 31 29 30
43 37 32 28 24 27 31 34 35 34 30 26 21 16 11 12 14 11 11 12 14 18 16 18 20 19 27 36 38 39 40 41 41 41 41 42 39 40 40 39 40 39 39 35 33 33 24
41 36 31 25 24 27 31 34 36 33 27 20 16 9 11 13 12 9 8 7 9 11 12 13 17 25 32 33 35 37 38 37 39 40 37 41 43 41 42 41 40 39 38 28 31 31 26
40 35 28 24 24 27 31 35 34 28 25 19 12 11 13 13 13 6 3 3 2 3 7 13 19 30 32 33 33 34 37 38 38 40 37 39 42 43 41 41 42 42 41 31 28 29 24
38 32 26 22 25 27 30 33 30 24 26 19 12 12 12 12 11 7 4 5 3 6 11 18 23 31 19 33 28 32 34 35 35 37 39 40 41 43 41 40 41 42 40 40 36 26 27
36 31 25 22 23 25 28 30 28 22 22 19 17 11 11 12 10 10 7 5 6 9 20 18 16 20 31 30 30 26 29 31 34 33 36 37 39 42 42 43 43 42 43 42 32 27 25
36 30 23 21 22 24 26 29 27 23 20 19 16 14 10 6 12 11 9 6 3 6 7 18 15 11 10 23 18 25 22 22 25 32 36 35 38 38 43 42 42 42 45 43 40 38 35
34 28 21 20 20 22 23 25 25 25 19 18 15 13 8 7 6 9 10 7 6 4 3 4 5 9 15 13 18 16 14 21 17 21 27 39 38 36 38 39 41 43 43 42 43 39 30
31 28 20 18 18 19 20 23 22 24 20 19 18 13 12 5 6 6 6 4 4 1 1 2 5 6 7 14 19 19 18 18 16 15 16 19 30 38 26 33 39 42 42 43 43 41 28
27 29 19 15 16 16 17 19 21 21 21 21 21 19 14 11 9 8 8 6 4 2 1 1 4 13 16 14 13 15 16 16 20 21 22 22 22 24 37 39 39 40 41 42 44 45 44
21 27 20 13 13 12 14 15 18 19 19 22 23 20 19 17 15 13 11 10 7 4 3 3 4 5 10 16 19 19 23 25 26 27 28 28 27 29 30 30 35 39 40 43 44 45 46
17 23 18 12 12 10 10 12 14 15 15 18 20 20 20 19 18 18 18 18 14 7 4 2 2 4 6 8 11 12 16 23 26 30 31 32 31 30 31 30 32 34 37 39 43 44 48
17 21 17 11 10 8 8 9 10 11 12 13 14 15 16 18 17 16 16 18 19 12 7 5 2 2 4 6 9 11 12 12 16 22 25 26 27 28 29 26 31 35 35 37 40 40 44
16 19 19 9 8 9 7 7 8 9 9 10 11 12 12 12 13 12 11 14 16 17 13 10 9 5 4 5 8 12 15 18 20 19 21 21 22 23 24 24 28 28 29 34 37 41 43
16 17 21 10 8 8 6 7 7 9 8 11 11 11 11 11 11 10 10 9 10 11 12 12 12 11 9 3 2 4 9 15 20 24 27 28 28 29 29 29 28 32 30 33 34 37 38
13 16 20 10 9 7 6 7 6 7 7 9 10 11 11 11 11 12 10 9 7 7 7 7 8 8 9 8 7 4 3 6 9 13 20 27 31 32 33 32 31 25 23 30 36 41 39
13 19 17 12 12 7 5 4 3 5 6 7 8 9 10 9 10 10 10 10 10 9 9 9 6 6 7 7 7 7 6 5 6 9 11 15 20 24 27 28 29 29 29 30 32 35 39
14 19 17 12 14 10 5 4 2 2 5 6 8 13 13 12 12 11 10 11 13 12 11 11 10 9 9 9 10 10 10 11 9 8 8 10 14 18 21 23 27 28 27 27 28 31 37

GFSGBSN_500_spd_075.txt.gz
Wind_Speed
26 22 18 20 25 28 30 30 30 30 31 30 30 30 30 30 30 30 29 29 29 28 27 25 23 23 21 23 23 22 22 20 20 23 24 25 26 25 22 21 18 16 14 12 10 9 6
28 22 18 22 26 28 27 26 28 28 29 28 29 29 31 31 31 31 32 32 32 32 31 30 28 26 25 25 23 24 24 23 23 23 26 25 25 28 29 25 22 20 15 14 13 11 8
32 26 22 23 24 24 24 24 24 25 24 25 26 27 27 30 30 31 32 33 33 34 35 34 33 32 30 25 25 25 26 26 26 25 24 28 27 23 26 26 25 18 16 16 15 14 11
35 30 26 23 22 21 21 23 24 26 26 25 26 27 28 29 30 31 33 33 35 34 35 36 37 36 36 30 30 29 27 27 28 28 26 24 27 26 21 25 24 21 19 15 19 17 14
34 32 29 24 21 20 23 24 25 24 28 29 29 29 28 28 31 31 33 33 33 35 33 36 37 39 40 36 34 33 31 29 30 30 29 26 23 27 28 21 21 23 20 14 24 21 20
38 34 30 26 23 24 26 26 25 27 28 28 27 25 25 26 27 27 30 31 32 33 34 35 37 38 38 36 38 35 34 32 29 29 30 31 28 27 30 30 24 17 19 17 20 23 23
39 37 32 27 24 24 25 24 25 23 20 19 19 19 19 22 23 24 26 28 30 32 35 35 35 41 37 40 36 38 36 34 33 30 30 30 31 29 26 28 24 18 22 21 22 20 16
41 38 33 29 28 27 26 21 19 19 20 22 22 23 23 23 25 24 25 27 28 30 32 35 36 39 37 36 38 39 38 37 34 30 29 31 30 30 30 30 36 29 25 23 27 17 16
43 41 37 31 27 26 24 22 24 25 25 24 22 21 22 24 25 27 28 30 30 33 33 35 38 37 36 37 37 37 37 38 35 34 32 29 27 33 36 35 35 30 25 24 31 23 21
43 41 37 31 28 25 24 26 27 29 31 31 28 23 20 21 26 28 29 27 28 30 27 34 34 35 37 35 38 39 40 41 39 38 35 33 36 38 38 38 33 30 32 26 28 28 27
44 40 37 31 28 25 26 28 32 34 34 34 30 26 22 20 19 25 23 18 16 19 7 30 29 32 33 31 39 40 40 40 43 41 40 36 42 39 36 37 37 24 31 34 30 28 16
43 40 36 31 28 26 26 28 32 35 36 35 31 24 16 10 10 11 14 12 10 9 16 19 19 18 24 29 40 41 39 41 43 42 42 38 41 38 36 36 37 36 34 37 33 24 28
43 40 36 30 26 25 26 30 33 33 33 30 25 16 13 12 13 10 7 9 10 4 16 16 13 12 17 26 24 36 40 42 42 43 43 41 45 42 41 39 39 39 33 30 26 25 22
44 40 35 28 24 24 26 30 31 31 29 23 21 12 13 14 15 10 3 8 2 17 14 14 13 9 14 17 18 28 32 36 38 40 24 41 42 41 42 41 34 39 29 25 20 22 21
46 39 35 29 22 22 24 28 28 29 25 20 17 13 10 13 13 9 4 6 13 18 15 17 14 14 21 20 22 16 21 23 29 40 36 26 25 40 45 37 32 33 39 29 18 20 21
45 38 33 27 21 22 23 26 26 26 20 17 17 11 9 13 9 7 7 8 10 11 12 14 14 22 20 19 16 24 28 38 44 40 39 34 35 44 42 47 47 42 34 34 29 25 28
47 37 30 26 20 19 20 23 25 23 19 15 14 12 9 8 11 10 4 2 3 3 6 10 25 22 28 18 20 23 22 39 37 36 40 41 27 32 46 47 41 44 40 36 28 23 26
45 32 26 24 18 17 17 20 21 20 18 17 11 12 7 5 9 10 7 3 2 7 4 10 26 26 31 32 28 27 22 32 37 37 40 45 39 22 38 41 48 48 32 35 35 34 26
47 31 22 22 15 14 14 16 17 17 17 19 12 11 7 8 5 7 8 9 6 4 2 6 2 10 21 36 27 38 35 30 36 39 41 40 36 19 36 44 45 45 46 44 31 26 31
45 43 17 21 12 12 11 12 13 14 18 18 15 12 11 9 7 7 7 5 5 2 4 6 4 1 1 7 24 18 19 24 26 37 37 39 42 33 24 21 34 44 46 46 44 32 28
44 41 15 17 9 9 9 9 9 12 15 15 18 15 14 13 12 10 8 6 4 4 3 3 5 8 8 7 7 12 14 17 16 19 22 26 38 47 37 39 34 30 48 47 46 41 25
37 39 17 14 7 8 6 6 7 7 10 13 15 13 13 15 17 16 17 11 5 2 3 4 5 5 11 19 21 16 11 15 20 18 18 18 13 26 41 43 47 46 47 51 49 46 43
36 38 15 14 9 7 6 5 4 5 6 9 11 12 12 12 12 14 16 18 13 8 3 2 4 7 8 10 16 15 20 21 22 22 24 25 21 24 18 34 47 49 52 43 44 46 42
33 37 23 14 11 7 8 7 6 4 5 6 7 8 9 9 11 11 12 14 16 13 10 7 4 1 4 9 11 13 16 19 24 28 28 30 32 27 22 28 28 32 42 46 40 47 44
30 36 14 16 14 11 9 9 8 8 9 7 8 8 9 9 7 7 8 9 10 11 11 11 11 7 2 2 7 12 15 15 15 17 23 27 29 31 29 27 22 32 32 33 36 43 39
28 28 15 16 16 13 9 9 8 6 7 8 8 9 9 8 8 8 7 7 7 7 7 7 8 7 7 5 2 5 11 17 20 20 19 19 23 26 28 30 25 31 29 29 32 40 38
29 30 19 14 17 15 9 7 7 6 5 5 6 8 8 7 6 6 6 7 6 5 5 5 6 5 4 3 3 2 4 8 13 20 24 26 27 27 28 29 31 31 24 25 29 37 34
29 28 13 14 19 15 9 6 5 5 3 1 3 6 7 7 6 6 5 7 8 7 7 7 7 7 7 7 6 6 6 7 8 12 17 25 31 34 35 37 38 34 31 33 32 32 36
28 16 8 19 16 18 13 7 8 8 5 4 3 5 3 6 7 9 6 7 9 12 13 13 9 7 7 8 8 8 11 13 14 14 15 18 22 27 33 40 41 41 37 37 36 34 34

GFSGBSN_500_spd_081.txt.gz
Wind_Speed
29 28 26 24 22 20 19 18 19 19 19 19 18 19 21 22 23 24 26 28 28 28 28 28 28 26 25 25 22 23 22 24 24 25 28 28 25 23 21 20 17 12 7 12 8 7 5
28 28 29 28 27 23 21 19 19 20 23 23 20 19 19 22 23 23 24 25 28 29 29 29 29 30 27 25 22 26 25 25 28 27 27 29 27 26 26 25 21 17 18 11 14 11 5
28 29 30 30 28 26 23 21 21 22 25 24 22 23 23 21 23 24 23 26 27 28 29 30 30 31 30 29 22 28 27 26 27 30 28 28 30 31 30 28 28 14 13 11 9 10 10
30 31 32 32 30 28 25 22 22 22 24 25 25 23 24 22 22 24 24 24 26 27 28 29 30 30 31 32 27 28 29 29 29 29 32 31 32 34 30 29 24 23 18 9 9 6 6
32 32 33 33 32 29 26 23 22 22 25 25 25 22 21 22 19 18 23 25 26 27 29 29 29 28 32 30 30 32 29 31 32 31 30 33 32 30 31 28 26 24 19 13 10 17 13
33 34 35 35 33 32 29 25 24 24 24 24 24 25 25 22 23 20 20 23 26 27 29 31 31 31 32 31 33 33 32 31 33 33 32 31 32 29 29 28 25 20 15 17 15 17 20
33 35 36 36 36 34 30 27 26 26 25 24 25 25 25 26 25 24 24 24 25 26 27 30 30 33 34 33 35 36 34 32 33 35 34 32 29 31 29 24 20 23 20 17 17 16 25
35 37 37 39 40 36 33 30 28 27 26 27 25 25 24 25 25 27 28 28 27 27 28 30 30 34 36 35 36 36 37 36 35 31 32 34 33 30 31 30 27 26 30 19 21 25 26
36 38 40 41 42 39 36 32 29 27 29 29 28 29 28 23 21 24 29 32 31 30 29 29 27 33 35 35 35 36 36 36 35 33 33 32 29 31 30 33 33 29 32 23 18 23 28
39 39 41 42 43 42 37 32 28 27 28 28 32 33 32 24 17 16 25 31 24 22 23 27 25 28 33 31 35 37 37 37 37 36 35 32 32 35 33 32 35 33 30 18 20 27 21
40 40 42 43 43 42 38 30 25 26 27 30 31 28 24 19 16 14 11 9 6 8 11 15 24 29 30 29 32 37 37 38 39 37 38 34 35 37 38 35 34 35 34 21 20 19 17
41 42 42 44 45 42 37 28 24 24 26 29 27 26 17 13 16 15 8 1 13 15 15 7 3 5 16 24 30 35 33 39 40 41 41 37 37 35 39 39 37 37 38 28 22 19 34
43 44 44 45 44 41 32 24 21 23 24 23 24 20 10 12 15 10 1 12 17 19 17 12 2 3 7 18 24 31 35 39 41 41 44 40 41 40 38 38 41 39 47 34 26 25 25
46 46 45 44 43 39 27 20 18 20 19 20 21 13 11 10 13 5 3 16 6 6 17 20 13 3 10 19 21 19 29 37 37 38 37 40 42 43 40 40 42 40 49 40 30 25 19
50 48 47 44 42 34 20 16 16 16 17 18 15 12 13 10 9 8 3 8 12 6 20 17 11 7 7 12 13 14 16 26 32 34 29 24 33 30 40 43 36 35 41 37 14 18 26
54 51 47 42 39 28 14 13 13 13 14 16 9 8 9 6 4 9 1 5 8 9 3 14 14 20 21 17 14 18 13 17 21 35 36 32 36 41 37 28 34 30 36 38 30 26 23
55 51 45 40 35 22 9 10 11 11 10 13 11 7 9 9 8 6 6 13 12 11 2 20 18 24 30 33 35 29 29 32 33 35 38 37 28 33 29 36 31 37 40 46 40 38 35
54 47 39 35 33 23 6 6 10 8 7 9 10 3 5 8 10 13 10 13 11 11 2 12 14 23 20 33 37 21 28 31 34 37 37 44 29 37 36 33 35 39 40 37 47 42 32
45 37 34 31 30 26 8 5 10 5 4 6 7 9 6 6 3 5 8 12 10 8 6 13 19 24 25 27 22 29 23 26 34 35 37 38 35 32 35 37 37 44 35 45 46 47 39
40 33 29 31 31 17 11 8 7 4 2 3 5 4 6 6 7 11 11 8 6 6 4 4 14 23 32 29 20 23 25 32 34 29 36 36 38 34 38 33 37 43 46 49 41 53 43
36 29 26 29 33 28 14 9 9 5 3 1 3 2 5 6 6 8 10 10 7 4 5 2 10 16 27 36 34 28 31 24 31 23 19 33 33 43 34 34 34 44 52 50 47 48 44
33 29 29 30 33 27 15 13 10 8 5 1 2 1 2 4 7 8 12 11 8 4 4 3 4 7 12 3 28 30 30 34 24 24 22 30 38 43 43 32 33 33 36 46 44 40 43
34 33 33 31 30 24 16 18 13 10 7 5 2 2 3 4 4 7 9 10 9 7 3 0 3 7 3 8 12 29 19 26 20 24 32 34 35 43 48 46 37 37 34 34 43 40 54
34 36 35 34 28 25 15 23 16 14 9 6 5 5 6 6 5 5 5 6 7 8 7 5 2 2 5 1 7 9 11 16 12 16 21 23 33 38 47 48 43 31 44 39 39 43 54
37 37 34 28 25 23 15 25 19 16 13 8 8 7 7 7 4 4 5 5 5 5 6 7 6 5 2 4 5 7 10 11 14 19 20 17 20 31 41 48 43 43 41 46 41 48 49
39 37 31 29 26 21 11 24 20 16 14 10 9 7 6 5 3 3 2 4 6 4 4 2 3 4 4 3 3 6 6 7 8 11 15 22 24 23 28 40 38 34 45 47 37 45 48
39 36 31 26 21 14 11 28 21 15 13 11 9 7 5 3 2 3 1 1 4 6 7 4 3 3 1 1 2 2 2 5 5 9 10 15 16 20 26 31 35 37 30 31 44 46 50
33 30 28 21 11 10 14 30 21 15 14 12 10 8 7 3 3 3 2 0 3 7 10 11 8 7 2 1 2 1 1 3 6 7 9 10 15 20 23 25 34 35 36 42 34 31 37
27 23 17 8 10 11 8 29 20 15 16 13 12 10 9 6 6 5 3 2 3 7 9 11 10 10 8 5 3 4 6 7 9 11 14 17 18 17 19 25 31 31 35 37 42 37 30

GFSGBSN_500_spd_084.txt.gz
Wind_Speed
21 23 24 24 23 23 22 21 19 18 18 19 19 18 17 16 18 22 24 25 26 26 27 28 29 27 25 25 26 26 28 32 34 32 29 26 24 22 21 21 19 16 13 12 11 14 9
24 26 28 28 26 25 24 23 21 19 19 20 22 20 19 19 19 21 23 26 27 27 26 28 28 28 27 27 27 27 28 30 32 33 33 28 27 28 25 25 23 24 16 9 10 9 10
27 26 28 30 29 26 25 24 22 21 20 19 20 21 22 21 22 22 24 26 28 29 29 28 29 27 28 28 27 30 29 30 32 32 31 33 34 32 30 27 27 25 18 16 9 6 10
27 29 30 30 31 28 28 27 25 23 21 22 23 24 23 22 22 20 22 27 26 29 30 30 29 29 28 29 28 33 32 31 32 32 34 37 37 38 34 31 28 16 22 13 18 14 11
30 30 31 32 33 34 31 29 28 26 24 24 24 23 23 23 22 21 20 23 27 27 31 30 31 30 32 26 28 32 32 34 35 34 35 37 37 36 35 33 29 31 19 18 15 17 15
32 32 33 35 36 36 36 32 31 28 27 26 25 24 24 24 22 23 22 22 24 27 28 29 30 33 34 33 33 35 33 33 35 36 36 38 36 33 34 31 24 19 20 20 19 16 17
33 35 35 37 37 38 38 35 35 32 28 27 26 23 23 22 24 24 23 23 24 23 27 30 29 35 36 36 35 36 37 35 37 38 36 36 36 32 27 24 24 20 23 23 20 18 15
35 38 39 40 39 41 40 38 36 32 29 27 25 25 26 23 20 21 24 24 26 28 29 30 32 34 37 37 36 38 39 39 38 35 37 37 31 30 32 29 27 24 27 26 25 25 20
37 39 42 43 42 43 42 39 36 31 28 26 26 29 27 24 21 14 17 23 26 26 27 27 30 35 37 36 36 38 39 39 36 34 35 35 29 33 35 34 33 30 31 35 32 23 22
38 40 43 44 45 46 44 40 34 28 25 25 27 28 28 26 18 11 9 15 24 24 22 27 27 31 36 36 36 40 42 41 39 38 35 29 37 37 36 34 33 33 27 32 29 23 18
40 44 47 47 48 46 46 40 30 26 23 22 26 27 23 17 12 12 11 14 11 18 19 20 24 27 30 31 32 37 39 43 43 38 38 31 37 38 38 35 33 30 32 31 28 26 24
45 48 50 51 49 45 41 35 25 22 22 20 24 25 16 10 13 12 13 13 9 9 14 16 15 13 20 26 31 36 38 40 42 45 44 39 35 36 36 35 34 35 38 34 32 26 26
49 52 55 53 47 42 38 31 20 19 19 17 20 17 12 10 13 16 13 5 4 15 19 15 10 11 13 23 28 30 39 41 43 44 44 42 41 39 40 39 39 43 44 38 35 29 26
52 56 56 47 44 39 36 28 16 16 14 16 19 12 11 11 13 10 7 3 6 14 20 15 13 12 14 19 23 26 32 37 39 40 43 43 42 41 40 42 41 42 50 41 37 28 14
55 59 49 43 39 37 32 22 14 12 13 13 15 10 10 11 11 9 4 3 9 5 20 21 19 15 21 21 16 19 26 21 29 28 37 42 43 42 43 42 39 43 53 43 32 30 22
58 51 45 40 36 33 29 23 12 10 12 10 12 11 9 11 7 8 5 3 1 3 15 20 19 22 27 23 22 14 16 17 31 33 35 42 44 44 42 42 40 37 49 43 37 36 34
50 46 40 36 32 29 26 15 10 9 11 7 8 9 5 3 4 5 6 5 4 4 4 15 15 20 29 28 29 28 21 19 29 35 38 42 40 43 42 43 35 38 47 47 44 39 33
47 43 37 32 28 29 26 10 8 9 10 5 6 9 9 7 4 4 5 9 10 5 3 20 18 16 22 26 29 31 25 20 22 36 35 36 37 42 42 39 32 35 44 47 46 39 41
45 42 37 32 30 29 29 10 10 9 8 4 4 5 4 6 10 11 10 11 10 6 2 10 21 18 17 19 24 27 25 26 30 28 31 36 34 36 36 33 34 41 48 53 54 48 46
43 39 35 33 31 32 27 13 12 9 7 5 4 2 4 4 5 9 13 12 5 6 4 5 11 19 21 18 21 34 22 29 28 31 28 30 33 32 41 41 41 48 49 58 57 53 51
38 36 35 34 31 28 23 17 14 10 7 5 4 2 5 3 5 8 11 10 9 4 4 6 7 10 16 21 20 18 21 26 25 27 29 31 34 40 40 48 42 47 50 49 55 55 57
36 35 35 34 31 26 19 11 19 12 9 6 3 1 4 6 9 5 8 13 12 6 2 6 4 3 11 11 17 28 25 27 26 17 17 37 34 37 50 43 50 49 54 51 44 52 49
37 39 38 33 28 22 18 11 22 15 12 10 6 5 5 7 8 8 8 10 11 9 4 2 2 4 8 14 8 16 25 24 24 25 20 28 30 39 43 47 37 38 45 45 50 48 54
39 40 38 32 27 22 15 12 25 18 14 12 10 7 7 5 6 6 7 5 6 7 7 5 3 5 6 6 8 12 22 23 21 15 17 27 25 27 34 45 40 40 37 37 37 46 51
40 39 36 29 24 20 12 9 25 23 17 13 12 9 8 3 5 4 7 6 5 5 5 6 6 6 5 6 5 9 13 10 16 15 18 23 32 33 34 38 40 40 39 41 41 40 43
40 38 31 26 24 19 7 7 21 26 18 16 13 11 8 3 5 3 5 4 6 6 6 4 3 5 6 5 5 7 10 10 9 13 16 18 20 24 30 36 40 37 42 51 29 43 55
38 31 26 25 21 13 4 6 28 28 18 17 14 10 6 4 4 2 2 3 6 8 8 7 6 4 3 3 3 3 7 6 10 11 14 13 14 20 23 25 31 35 35 43 49 40 41
31 25 21 19 15 10 10 15 34 26 18 16 13 11 8 4 6 5 3 0 5 7 9 8 8 6 3 2 2 3 3 3 4 5 6 9 13 16 19 23 27 27 32 37 33 36 44
27 21 17 13 12 13 15 11 35 23 17 17 15 12 11 9 6 7 3 1 1 4 7 8 6 5 4 3 1 1 3 5 6 7 8 8 10 13 16 20 24 27 29 32 39 40 39

GFSGBSN_500_spd_087.txt.gz
Wind_Speed
22 23 24 26 27 25 25 24 22 22 20 20 19 19 18 17 17 17 18 21 25 28 27 28 27 26 26 27 27 27 30 38 35 31 27 24 22 20 20 19 15 15 18 11 9 15 11
22 23 24 26 27 28 27 26 24 23 22 22 20 20 20 19 18 20 20 20 22 25 30 28 27 26 28 28 29 28 30 37 38 34 31 28 28 25 25 23 23 19 16 14 11 12 13
24 23 25 26 27 27 29 29 28 25 26 24 23 23 24 24 24 21 22 24 25 26 27 31 29 27 27 31 29 30 31 32 38 38 34 35 33 31 28 26 26 22 17 11 19 14 10
25 26 27 28 29 30 30 31 30 29 27 26 25 24 24 25 26 25 22 24 23 29 28 31 32 30 30 28 28 32 33 33 35 37 40 42 39 34 32 27 27 28 22 25 18 22 15
25 28 30 32 34 34 35 35 34 32 30 28 27 25 24 24 25 26 26 23 24 25 30 29 32 33 35 28 31 34 35 35 37 39 40 41 40 39 34 30 27 22 22 21 19 19 19
27 29 32 33 36 37 38 38 40 35 32 30 28 27 25 23 24 24 25 23 24 25 29 31 31 32 37 34 36 38 35 38 37 39 41 39 39 41 38 32 24 21 22 18 23 16 15
28 31 34 38 40 43 44 43 42 37 33 30 28 26 25 24 25 24 25 27 25 26 26 30 32 33 36 36 38 38 39 38 41 40 40 39 39 36 31 28 29 23 28 28 26 17 21
31 34 38 42 44 48 47 44 40 37 34 31 28 26 24 25 23 21 23 27 27 25 27 27 32 35 34 35 39 43 40 41 39 39 38 40 37 32 32 30 29 24 25 30 31 23 21
34 37 41 46 50 50 44 42 39 38 33 29 26 24 25 24 25 17 16 19 22 24 27 30 31 35 36 36 36 42 41 42 40 38 40 38 33 36 36 33 31 30 28 31 28 29 25
36 40 44 48 52 47 41 38 36 34 30 25 23 24 26 25 17 14 11 6 14 20 21 28 32 33 35 36 37 40 43 44 44 41 39 36 36 38 41 38 34 34 28 32 30 31 27
37 42 47 51 50 44 40 36 35 31 26 21 18 21 23 17 10 11 10 8 7 5 13 20 30 33 34 33 37 39 43 45 45 43 41 34 38 39 38 37 38 31 32 33 32 32 32
40 44 48 51 47 43 39 35 33 29 23 19 17 18 16 11 9 12 12 7 6 4 13 15 23 21 28 29 36 40 39 42 45 46 42 38 40 41 37 34 37 35 37 38 36 35 38
41 43 48 49 45 40 36 33 31 24 20 16 16 17 10 10 10 11 10 9 5 3 10 19 20 16 29 29 32 37 39 42 45 47 43 43 41 39 39 40 39 43 41 42 40 41 38
39 44 49 47 41 36 33 31 26 22 17 14 14 15 10 10 9 10 6 4 6 9 13 19 18 15 19 28 31 30 35 42 44 47 45 44 43 40 39 41 40 43 45 45 45 42 37
40 47 48 44 37 33 30 27 25 18 14 13 13 13 9 9 10 8 3 4 8 7 15 20 19 16 19 23 25 25 28 38 40 43 44 43 42 40 39 40 43 43 47 45 42 41 37
42 47 46 40 35 31 28 28 24 13 11 14 11 13 11 8 6 4 1 6 8 9 16 22 19 18 21 24 24 26 26 35 41 41 39 42 40 42 41 41 42 45 47 48 47 39 43
45 46 43 37 34 33 29 27 18 12 9 13 10 9 12 9 5 3 5 7 4 7 17 17 16 22 26 27 22 27 28 27 37 36 39 43 40 41 40 41 41 46 48 50 47 49 41
45 44 40 36 35 32 27 24 15 12 10 12 10 9 8 7 4 4 7 10 6 7 8 21 18 22 23 17 24 23 25 24 27 35 33 39 38 39 41 41 40 39 49 52 50 48 46
44 41 39 37 36 33 27 23 14 13 10 9 8 7 6 6 5 9 9 8 7 6 6 8 22 20 17 26 26 26 23 23 24 30 34 36 34 36 38 38 33 38 46 49 55 53 53
42 39 36 38 38 32 26 22 14 14 11 7 6 3 6 5 6 10 13 14 7 4 7 3 11 22 19 19 20 25 31 27 26 32 35 34 32 33 39 38 40 39 43 48 54 57 55
41 38 38 38 36 32 26 20 14 13 12 7 6 5 5 6 9 11 12 12 11 3 5 3 2 8 14 16 16 18 30 27 22 26 33 30 31 34 35 43 40 41 42 47 51 56 57
40 39 40 38 35 30 25 18 13 15 13 10 7 7 5 4 7 8 9 11 13 10 4 3 3 6 9 7 13 19 22 23 23 24 27 23 25 34 39 36 45 43 42 46 48 54 56
40 40 40 38 34 29 23 17 12 16 17 13 9 8 5 5 7 8 9 10 10 13 8 1 5 6 7 11 13 17 20 23 21 23 24 18 21 29 35 43 43 46 47 45 48 52 55
42 40 39 35 31 26 21 15 13 21 19 14 12 10 7 5 7 9 9 10 10 9 10 6 1 4 2 6 12 12 14 26 30 30 30 27 22 22 32 39 47 44 45 51 54 56 55
39 38 36 31 27 22 17 11 15 21 22 16 14 10 7 5 7 6 7 7 7 7 6 6 6 3 4 4 4 5 4 12 18 18 21 33 34 28 29 33 40 46 45 39 48 52 52
38 35 32 29 24 19 14 4 9 21 26 17 15 10 7 5 5 5 5 6 5 7 3 3 3 5 3 3 4 3 10 7 8 15 21 19 19 25 27 30 30 38 37 35 44 35 38
34 31 29 24 19 16 10 4 7 16 30 20 15 12 7 5 3 6 3 3 2 6 6 6 5 4 4 6 6 4 7 7 8 9 9 12 16 21 25 32 35 37 39 38 38 38 38
31 28 25 22 18 14 12 12 13 19 34 23 16 13 10 9 8 7 3 1 2 4 5 5 5 6 5 3 4 5 6 6 5 8 8 10 11 12 17 24 27 27 33 36 33 33 38
28 25 23 20 16 16 16 16 16 23 34 19 15 13 12 11 8 10 6 3 1 3 4 4 4 4 4 3 3 1 1 2 3 4 5 7 8 10 13 16 18 21 23 27 31 30 31

GFSGBSN_500_spd_090.txt.gz
Wind_Speed
18 17 19 22 22 23 24 25 25 24 23 23 22 21 20 21 21 20 21 21 19 20 26 28 27 26 25 26 25 24 23 32 33 30 27 23 21 22 19 19 16 10 12 10 8 9 12
20 21 23 24 25 27 28 30 28 27 26 25 24 23 22 22 23 23 22 22 22 21 21 25 28 28 28 28 26 26 27 34 36 34 30 28 27 26 21 20 19 11 14 11 10 6 11
19 21 24 26 28 30 31 31 32 31 30 27 26 25 24 24 24 25 26 24 24 26 25 24 27 29 30 31 27 28 28 31 40 38 35 34 32 28 25 23 18 15 14 14 12 10 11
21 22 26 28 31 33 36 37 36 34 31 28 26 25 25 25 25 26 26 26 25 26 28 28 27 28 32 31 30 30 32 33 38 40 38 37 35 31 29 25 22 20 16 13 13 15 13
24 25 27 30 34 38 41 40 37 35 32 29 27 26 25 25 25 26 27 28 26 27 28 29 30 29 31 32 33 34 34 35 37 42 43 40 36 34 31 28 26 24 20 17 17 19 18
25 26 29 34 37 40 43 44 40 39 34 32 30 27 26 25 24 24 26 27 27 26 28 27 31 31 33 33 36 38 36 37 37 39 46 45 40 36 34 28 26 24 22 24 22 25 25
25 28 31 36 40 44 46 45 43 39 36 32 30 28 26 26 24 24 24 25 27 26 28 28 28 34 32 32 35 39 39 38 39 40 41 44 44 39 31 31 31 26 24 24 22 14 20
26 30 33 37 42 45 47 44 42 39 36 31 30 27 25 25 28 24 21 22 25 26 30 29 29 33 35 34 35 39 40 39 39 40 40 41 39 37 36 33 31 28 27 26 22 17 23
29 32 35 39 43 45 45 43 40 37 34 29 26 24 22 24 25 22 13 15 17 19 26 29 30 31 33 35 36 36 39 40 39 41 38 36 35 38 36 35 35 30 28 25 24 23 23
31 33 35 38 43 46 45 41 37 35 31 28 23 21 20 23 18 13 9 10 14 18 18 25 30 31 32 37 37 39 38 41 40 39 40 36 37 39 38 35 35 32 27 25 27 27 26
32 34 34 40 45 45 43 39 36 34 30 25 20 18 19 19 14 11 11 12 12 8 13 19 26 32 33 37 40 40 40 41 43 40 39 40 39 39 38 36 35 33 30 30 33 31 29
35 34 34 41 46 45 40 36 34 32 26 23 17 16 17 18 14 12 12 5 5 3 8 15 21 25 31 34 40 40 40 43 43 44 40 39 41 40 39 37 35 36 37 36 31 35 35
36 34 37 43 46 42 37 35 33 30 25 20 15 14 16 16 13 12 10 8 7 7 4 6 15 18 25 31 37 40 42 44 45 46 44 40 41 42 40 39 39 43 42 40 39 38 36
35 38 42 45 42 39 36 35 32 27 23 15 13 12 14 14 13 10 9 5 9 12 11 11 12 15 17 26 33 36 39 41 44 46 43 42 43 43 42 42 38 41 44 44 43 42 37
36 40 44 45 39 36 35 33 30 25 20 13 11 12 13 12 12 10 5 3 8 9 11 13 12 17 19 21 27 33 35 37 41 44 44 43 43 41 40 42 40 40 44 42 42 40 38
36 40 44 41 38 36 35 32 27 25 17 12 10 13 13 11 10 10 8 7 9 9 11 14 15 17 16 20 27 24 30 33 38 41 41 43 41 40 40 42 43 42 40 45 46 43 43
37 40 44 39 39 37 35 30 26 24 17 10 11 13 10 9 9 8 8 9 10 14 14 13 16 16 15 16 23 24 26 29 34 36 37 41 41 38 38 41 43 43 44 45 46 44 43
38 40 42 39 37 36 33 30 27 24 14 10 11 10 8 8 7 8 10 12 11 10 10 13 14 15 17 18 24 26 27 26 31 35 35 36 34 36 40 40 40 43 44 45 46 45 45
40 38 39 38 36 35 32 30 26 21 13 10 10 6 5 8 5 8 12 13 12 10 12 12 20 18 15 22 19 23 27 25 25 29 34 33 33 36 39 41 40 41 44 47 47 46 46
41 38 37 36 36 35 31 30 25 18 11 10 9 4 2 3 4 7 12 15 18 9 9 9 8 21 23 14 13 18 19 23 20 20 31 32 32 33 37 42 43 43 43 45 47 46 47
41 38 37 35 34 34 30 27 21 14 11 11 8 6 4 2 7 11 13 15 13 10 5 5 3 11 23 18 17 18 23 24 22 23 26 32 30 31 37 37 40 41 41 42 42 46 48
41 36 35 35 33 34 30 24 17 13 13 11 9 5 4 4 6 9 11 11 12 12 4 4 4 8 14 18 21 20 20 12 26 22 23 28 21 31 32 36 39 38 37 37 38 42 46
38 35 33 31 32 32 28 21 15 13 13 15 10 4 3 4 6 9 9 9 9 9 8 2 4 5 4 11 15 21 16 13 21 25 21 16 24 29 25 34 36 38 36 37 37 39 42
35 33 31 30 31 30 24 18 14 12 15 18 10 7 4 4 6 9 8 9 9 6 7 6 2 4 2 5 10 14 12 16 20 21 21 21 17 17 25 36 40 36 40 42 41 40 41
32 30 29 28 29 27 20 15 9 10 15 19 10 8 5 4 5 6 6 6 7 5 3 5 5 1 1 3 6 9 11 16 26 26 26 25 22 24 22 23 28 40 43 38 42 46 44
30 30 28 27 26 24 18 12 1 3 14 22 12 10 6 4 5 5 3 5 6 6 4 2 3 5 3 2 3 5 7 9 14 25 23 25 25 29 32 30 30 29 37 40 36 39 46
29 28 26 25 23 20 15 11 8 6 12 24 17 13 9 7 7 6 2 3 5 4 4 3 2 2 2 2 2 5 7 4 5 6 13 19 22 23 24 27 27 28 27 28 33 34 34
27 26 25 24 22 20 15 13 13 10 10 28 24 16 11 11 10 7 5 4 2 5 5 3 3 2 2 2 3 4 6 6 5 4 7 8 10 13 14 18 20 23 25 27 28 27 30
27 25 24 22 21 19 18 17 16 14 13 28 28 16 12 12 13 11 8 5 3 1 3 4 5 3 3 3 3 3 3 3 2 2 4 6 7 9 10 12 14 18 22 24 25 27 24

GFSGBSN_500_spd_093.txt.gz
Wind_Speed
15 16 18 20 21 23 25 26 26 24 23 21 20 20 20 20 21 21 20 20 19 20 19 21 25 27 27 26 23 23 21 19 21 31 26 22 20 20 18 13 14 12 8 8 5 8 12
17 18 19 21 23 25 28 31 31 30 29 26 24 22 22 22 22 23 23 23 23 21 21 21 21 26 27 29 26 24 24 23 25 33 28 25 25 23 22 16 12 9 12 9 10 10 15
17 19 20 23 26 30 33 35 36 35 32 29 27 25 23 24 24 24 25 23 24 25 25 25 23 24 27 30 28 27 27 26 28 33 32 30 28 26 24 19 14 13 12 12 11 12 18
19 22 21 24 28 32 35 37 38 36 36 34 30 27 25 26 26 26 26 26 25 26 27 28 28 25 28 27 29 30 30 29 29 34 36 32 31 28 27 23 18 16 15 15 15 13 21
22 22 23 26 29 33 37 39 38 40 38 35 32 30 28 26 26 26 25 26 27 26 28 29 27 30 30 28 30 33 33 33 32 37 40 36 34 31 27 26 23 21 19 18 16 15 13
23 23 25 27 31 35 38 39 40 42 40 38 36 32 30 25 24 24 25 24 26 26 26 29 29 30 32 30 33 33 35 36 35 35 41 43 37 33 30 26 25 22 22 19 17 18 15
25 26 28 29 31 34 37 40 42 43 41 38 36 32 29 24 21 22 24 23 23 25 27 28 30 30 32 32 32 33 35 38 38 36 39 43 42 33 29 29 29 28 28 25 21 17 22
25 28 29 31 29 35 38 42 44 41 38 36 33 29 24 22 20 23 25 24 22 21 21 28 30 30 30 33 33 34 34 38 39 38 38 42 41 36 35 33 30 29 27 25 20 18 22
26 27 31 30 30 36 41 43 43 39 36 34 29 25 23 20 21 23 19 16 16 15 14 23 29 29 29 33 33 34 35 35 39 39 38 36 38 42 39 35 32 29 28 26 23 22 19
28 29 33 29 32 37 43 46 42 37 34 30 26 24 20 17 21 18 14 12 12 12 10 16 23 28 31 35 35 36 37 38 38 38 38 37 39 41 42 38 34 31 30 28 28 28 23
30 31 32 32 36 43 45 46 40 36 32 27 25 22 17 16 19 14 12 12 5 10 11 10 17 24 30 33 37 38 38 40 39 38 38 38 38 41 41 38 35 32 33 31 31 29 27
31 33 34 36 38 44 44 42 37 33 28 25 25 19 15 16 17 14 12 7 8 7 8 6 6 14 22 31 36 39 40 41 42 40 39 39 39 41 41 38 36 36 36 34 32 33 29
33 35 36 37 39 42 41 39 34 30 26 24 22 15 13 15 15 13 10 7 4 3 3 5 2 6 14 24 30 38 41 43 44 42 42 40 41 42 41 41 40 41 38 38 36 36 32
33 35 37 37 38 40 39 37 32 28 24 22 18 12 14 13 13 11 9 6 6 7 7 2 4 1 7 15 24 32 40 43 45 44 41 42 42 44 42 40 39 41 40 41 41 40 33
34 35 35 37 38 38 38 36 31 26 24 20 14 11 13 12 11 9 9 8 8 9 9 10 5 8 8 9 16 26 36 40 44 45 43 43 41 40 41 41 40 41 43 40 40 37 35
34 35 36 36 38 39 37 35 30 25 23 17 10 10 11 10 10 7 10 9 11 10 12 12 5 9 13 10 12 23 29 36 42 44 44 43 42 41 39 41 43 40 39 41 43 41 37
36 36 36 37 36 36 35 33 28 25 21 13 8 8 8 8 8 7 9 10 10 16 12 11 9 11 13 12 13 21 26 29 37 40 42 42 42 42 38 40 41 43 42 41 43 41 37
36 36 36 36 34 33 33 31 28 24 18 10 6 7 6 7 5 6 8 11 13 11 14 10 9 13 11 9 13 25 22 23 29 31 33 37 36 39 41 39 37 40 42 41 41 43 40
36 37 37 35 33 31 30 30 28 22 15 7 6 5 3 4 3 5 8 11 13 12 7 8 8 12 11 9 16 18 23 21 24 24 27 32 32 34 38 38 36 38 41 43 42 41 40
37 38 38 35 32 28 28 29 26 19 11 5 6 3 1 3 3 6 7 10 12 14 5 5 8 14 19 16 18 21 17 22 19 22 27 29 30 32 35 40 39 39 39 41 42 40 41
36 38 37 33 28 26 27 28 23 15 9 5 6 3 4 4 4 6 8 9 11 13 4 4 7 11 18 23 11 13 19 21 22 21 27 30 32 31 34 36 37 37 36 37 40 41 40
35 37 33 30 26 26 26 26 20 14 8 6 8 5 5 2 4 5 8 9 7 8 5 3 5 6 14 21 18 11 10 16 14 21 16 30 29 36 29 33 36 37 36 37 37 36 37
36 36 31 27 25 25 25 23 18 13 7 7 10 7 5 2 3 5 7 8 7 7 6 1 4 3 6 11 18 18 17 13 11 20 20 16 37 24 42 30 34 36 38 39 39 37 36
35 35 31 28 24 24 23 21 16 12 6 9 13 9 6 2 3 5 6 7 7 6 5 3 1 2 3 8 12 16 18 17 14 19 23 17 17 30 28 36 33 34 37 34 36 37 36
33 35 30 25 23 23 22 18 14 6 4 11 16 10 7 3 2 4 6 5 8 7 3 4 4 2 2 5 14 11 15 18 17 15 26 23 20 19 22 24 30 38 35 33 35 34 34
31 32 28 24 22 21 21 15 7 9 6 10 18 12 9 6 4 2 5 4 5 6 5 4 5 5 4 5 6 10 13 11 16 22 25 24 24 22 21 19 18 27 32 37 36 36 36
28 29 25 23 21 19 19 15 8 8 7 8 20 14 11 9 7 3 3 2 4 4 5 5 5 4 5 5 5 6 7 7 6 11 22 19 22 24 25 25 28 30 28 29 31 36 37
25 27 25 21 19 17 16 14 11 9 7 6 20 20 13 12 10 7 5 1 2 4 5 6 5 5 5 4 5 6 7 7 7 6 8 10 13 17 20 20 22 23 26 28 29 30 31
23 23 23 20 19 16 16 13 11 11 10 11 8 27 19 15 15 11 9 6 3 1 3 5 6 5 5 5 4 4 6 6 6 6 7 9 10 11 11 12 13 16 19 20 22 26 26

GFSGBSN_500_spd_099.txt.gz
Wind_Speed
10 13 13 13 15 17 20 21 20 21 21 22 22 23 23 20 19 20 20 20 20 21 23 25 25 24 26 29 30 27 25 23 21 19 18 25 29 25 22 21 19 15 11 11 15 19 20
13 15 15 15 16 17 19 20 20 20 23 25 26 26 26 25 24 21 22 22 23 25 26 28 29 29 27 31 25 29 27 25 25 23 21 27 31 27 21 22 21 17 14 14 14 14 19
15 16 16 15 16 17 16 18 20 23 27 27 29 30 29 28 27 25 24 23 25 28 30 33 33 32 30 31 28 29 29 28 28 27 26 31 34 27 25 24 23 20 18 16 16 13 19
17 18 18 16 17 18 16 17 21 25 29 31 32 34 34 34 31 28 25 24 27 29 33 33 34 33 35 27 29 30 30 30 30 30 30 32 34 30 25 24 24 21 21 19 19 17 15
17 18 18 18 19 21 17 19 22 25 31 33 35 36 36 35 32 28 25 24 25 27 29 30 31 32 34 32 30 31 31 31 32 31 32 35 34 29 27 28 27 23 23 20 19 20 21
19 19 18 18 20 21 20 22 25 29 33 35 36 37 35 32 29 27 24 23 23 24 26 27 26 29 32 35 32 31 31 31 32 32 35 39 36 31 28 31 21 25 25 24 21 20 21
20 21 19 19 21 23 24 26 30 34 35 35 36 35 34 30 28 24 21 20 21 21 23 24 25 29 27 29 33 32 32 32 32 34 35 41 38 36 27 26 29 24 31 36 27 28 26
23 22 22 22 24 26 28 29 32 33 34 35 34 32 29 28 25 21 19 18 16 16 15 16 22 26 28 29 33 34 32 32 33 33 35 41 41 34 31 31 36 27 26 26 31 30 24
25 26 26 26 27 29 30 31 32 33 32 32 32 29 26 25 21 18 17 14 13 15 15 14 14 22 27 29 31 34 33 34 33 34 36 36 35 35 38 40 32 31 30 32 21 19 23
28 29 28 27 27 28 28 29 31 30 29 29 27 26 24 21 18 16 13 10 11 10 14 10 9 15 23 27 30 33 35 34 34 34 36 34 34 40 46 36 32 17 30 38 21 24 20
32 32 31 29 28 28 28 29 29 28 27 26 24 24 22 18 14 11 9 9 8 10 4 16 12 10 18 24 35 30 33 36 36 34 36 35 37 43 44 35 34 34 21 27 9 16 16
34 34 33 29 28 27 26 27 29 28 26 24 23 22 20 16 11 8 7 7 6 10 7 11 8 7 14 22 25 33 35 34 37 37 36 28 39 41 40 38 40 40 32 23 21 23 15
35 36 34 30 28 27 26 27 28 28 27 23 23 20 16 14 7 5 6 6 8 5 8 8 3 4 7 10 19 27 31 34 36 37 37 40 41 39 38 40 44 44 31 14 16 18 8
34 36 35 31 29 28 28 28 27 26 26 23 22 18 14 12 4 4 3 2 6 6 5 9 6 4 8 12 10 23 27 31 34 34 19 36 36 35 38 40 42 38 31 20 11 13 17
34 36 34 32 30 29 29 29 27 26 24 23 21 16 12 8 3 2 1 12 11 6 7 8 7 2 8 14 12 14 18 22 24 36 21 20 24 32 39 39 38 38 39 23 18 19 21
34 33 32 32 31 29 27 26 26 25 24 22 18 13 11 6 4 3 4 4 7 9 8 7 3 7 7 9 11 13 14 17 19 27 32 16 23 27 35 39 40 32 30 33 28 13 21
31 31 31 30 31 27 25 24 24 23 23 21 15 11 9 6 5 3 6 15 7 7 10 11 10 10 13 10 13 12 19 26 29 29 36 25 30 26 33 39 38 39 37 31 27 27 20
30 29 28 27 26 25 24 23 22 22 22 18 12 11 8 6 6 4 6 7 9 13 12 13 13 13 14 25 13 15 15 27 35 19 15 40 12 21 25 27 37 27 34 27 30 25 27
30 27 27 25 22 24 24 23 21 20 20 15 10 10 8 8 5 7 9 10 12 14 14 12 7 12 14 13 15 22 26 21 21 28 30 25 32 25 20 23 29 35 33 35 23 26 25
28 27 26 27 24 24 25 23 21 20 18 13 9 10 8 10 6 9 8 9 13 11 12 9 7 6 7 5 12 16 19 24 25 30 35 35 25 29 23 24 23 34 34 27 27 23 23
28 27 25 25 27 24 24 24 20 20 18 12 9 12 12 9 8 8 6 8 10 13 12 8 4 6 7 10 10 12 16 16 23 22 26 32 30 24 28 29 21 26 29 27 31 28 24
29 27 26 26 27 26 24 24 20 18 18 13 12 15 14 11 7 6 6 8 9 10 9 8 5 4 6 10 12 19 15 13 20 27 27 29 28 29 24 23 25 24 26 24 24 27 26
32 31 29 28 26 28 24 23 19 17 16 14 14 18 16 13 8 6 9 7 7 8 6 6 4 6 8 6 9 14 9 5 23 18 29 29 33 25 25 32 18 21 24 29 24 25 27
34 33 31 31 29 27 25 23 20 15 15 15 16 18 18 12 10 9 6 3 5 6 4 5 3 6 7 8 4 7 7 2 14 16 25 30 22 45 32 26 31 32 26 22 29 39 40
37 35 34 32 32 30 27 25 19 15 11 13 17 22 21 15 13 10 5 1 4 4 3 3 3 4 6 5 2 4 6 3 3 7 10 24 31 19 34 20 31 38 37 35 36 32 32
40 39 36 35 34 33 28 25 20 14 11 13 17 24 24 19 14 12 7 1 2 3 1 2 2 2 2 2 6 8 14 8 10 11 13 12 27 9 20 14 17 29 38 38 29 28 34
40 39 39 36 37 37 28 24 21 16 13 14 19 26 26 22 17 15 11 6 3 3 1 0 1 1 2 1 5 9 13 14 11 7 10 13 20 21 14 18 18 17 23 21 30 34 37
37 39 40 39 39 35 29 24 23 17 15 15 17 26 28 25 21 19 15 11 7 4 5 5 3 2 4 4 4 3 8 11 12 12 16 17 21 21 17 16 25 24 15 23 25 33 34
35 36 38 38 38 30 29 25 23 19 17 18 19 24 30 28 23 20 20 16 11 8 5 6 6 6 6 6 5 7 7 7 7 6 7 17 21 23 25 27 25 20 20 22 23 24 28

GFSGBSN_500_spd_102.txt.gz
Wind_Speed
11 12 12 11 11 12 14 15 15 15 17 20 20 20 21 20 20 21 18 16 14 14 17 20 22 23 25 28 30 28 28 26 23 22 20 20 23 25 23 20 18 13 9 9 12 19 15
12 13 13 13 11 12 13 14 15 15 18 20 23 26 27 27 27 25 23 19 17 17 20 24 26 30 31 31 28 28 31 29 27 26 24 22 25 29 24 23 21 17 12 11 16 15 15
14 15 16 17 14 14 15 15 15 17 19 22 26 29 29 31 30 28 25 24 22 21 23 28 32 35 35 37 26 30 30 32 31 29 27 26 27 31 28 27 23 21 17 14 11 18 21
16 16 16 16 16 16 17 15 17 19 22 25 29 29 30 32 33 30 27 25 25 25 27 30 34 36 38 34 29 32 32 34 33 32 30 30 30 33 31 28 26 26 20 16 17 21 16
16 16 17 16 16 16 17 18 19 22 24 28 31 31 32 34 34 30 28 26 26 26 26 27 29 31 36 31 32 32 31 33 34 34 33 33 30 33 32 28 28 26 21 21 24 24 18
17 18 18 18 17 17 19 20 22 25 27 29 31 31 31 32 31 28 27 26 25 25 26 26 26 28 30 31 32 33 31 33 34 35 34 32 35 35 32 31 31 26 22 26 22 32 20
21 21 22 22 22 21 23 25 26 27 27 28 28 29 29 29 27 27 26 25 25 23 23 24 24 26 28 26 27 31 32 31 34 34 34 34 38 37 33 28 31 31 22 31 32 30 24
24 25 25 26 25 25 24 25 25 27 29 29 27 28 27 26 25 24 23 23 22 20 21 18 20 19 23 24 26 31 32 32 34 32 32 36 40 36 28 13 24 37 41 38 39 22 32
28 29 29 29 27 25 25 24 25 26 27 27 28 27 25 24 22 21 20 18 17 18 20 18 16 16 17 22 26 31 32 31 32 32 33 35 36 33 31 27 22 23 35 40 35 37 19
29 31 32 32 31 28 26 26 25 25 25 26 26 26 24 22 20 19 16 13 15 15 18 16 15 13 10 17 22 28 31 31 32 32 33 33 32 32 32 32 32 21 21 30 30 21 16
30 31 32 33 32 29 26 24 24 25 25 24 24 23 23 22 19 17 12 11 12 13 7 11 23 16 7 16 23 26 29 32 33 31 33 32 35 33 30 27 29 26 28 29 25 15 15
29 29 30 30 30 29 26 25 25 26 25 25 23 22 22 19 16 12 7 8 8 6 4 13 18 13 3 12 16 25 29 31 33 35 34 35 32 37 26 28 31 29 21 26 24 27 5
29 28 28 30 28 27 26 26 26 26 26 25 22 22 21 17 12 9 5 4 7 12 14 4 8 14 9 2 9 21 26 30 33 34 35 32 35 31 32 31 30 30 20 14 19 16 15
30 29 29 28 27 26 27 26 26 26 25 23 21 22 19 14 10 6 4 8 7 6 5 14 12 8 6 5 5 19 18 26 31 33 18 29 35 38 37 34 21 26 21 22 11 16 16
30 31 30 29 27 26 26 25 27 26 25 22 21 21 18 12 6 4 2 1 0 2 13 8 1 8 9 5 14 15 10 19 25 29 22 11 19 18 27 31 29 21 29 24 17 10 5
32 30 30 29 28 27 25 26 27 25 24 22 21 19 14 9 5 4 3 8 6 11 12 8 1 8 12 10 6 10 11 9 15 18 28 19 18 21 25 29 35 32 10 26 30 17 10
31 29 28 26 26 25 24 23 24 25 24 23 21 16 12 6 5 4 5 3 12 14 9 9 11 9 14 19 18 13 21 24 27 29 30 24 16 14 25 28 30 33 30 20 26 23 22
30 29 27 25 24 24 25 26 25 26 23 23 19 16 9 5 7 5 10 9 13 17 14 12 11 15 13 25 21 20 30 30 29 38 30 36 20 15 22 19 24 24 20 18 20 29 22
32 29 26 24 23 23 23 26 26 24 22 21 16 13 8 6 8 9 16 16 14 16 14 12 11 9 18 19 21 16 20 34 27 30 33 34 39 30 10 16 15 24 25 21 18 22 25
34 32 29 26 23 21 23 24 26 25 21 18 13 10 4 8 10 6 10 12 11 11 12 11 12 9 8 9 17 25 22 31 25 31 39 32 42 39 19 23 20 20 24 20 21 18 18
38 35 32 30 28 25 24 26 26 24 21 17 11 8 10 6 11 11 15 14 14 10 14 12 6 6 10 17 16 12 24 24 23 15 23 31 28 35 22 22 31 20 17 24 18 22 13
41 36 33 31 30 28 25 27 27 25 20 17 15 17 15 12 18 13 11 13 11 11 10 6 7 7 7 6 21 20 14 4 14 17 25 27 31 40 43 18 26 23 17 20 18 21 19
35 34 33 32 31 30 29 27 25 25 23 21 19 14 16 21 13 9 8 17 11 9 10 9 7 7 7 7 13 11 15 22 22 11 20 27 36 42 40 23 18 12 28 24 24 33 27
36 35 34 34 33 32 30 29 29 27 22 21 16 15 17 15 12 8 18 14 12 8 9 6 5 8 8 8 10 10 9 7 12 16 20 25 22 41 39 27 27 28 31 31 31 20 29
39 40 39 38 36 34 33 31 28 28 22 21 21 17 22 21 15 19 16 12 9 7 8 6 5 7 7 6 6 9 7 2 4 15 14 22 25 32 36 46 37 34 35 29 33 38 29
42 42 40 38 39 37 35 32 30 28 23 21 20 16 23 24 18 25 18 11 8 6 7 6 4 5 4 2 6 7 9 11 8 15 15 11 18 34 29 18 17 28 30 32 35 42 38
40 39 38 37 39 38 36 34 31 31 23 20 20 21 27 31 29 22 18 16 11 8 7 5 3 4 3 1 4 10 11 18 15 10 12 10 13 16 26 20 33 33 46 36 39 36 18
36 36 33 31 33 37 39 36 32 31 23 20 22 22 28 31 33 24 23 16 10 8 9 5 4 4 4 4 1 11 8 4 7 12 10 8 16 14 16 14 16 16 8 20 39 46 33
30 29 27 27 28 32 38 39 35 35 25 23 25 24 26 33 36 23 24 19 14 8 8 8 5 4 0 6 4 3 3 2 4 5 7 14 20 25 23 26 21 19 11 17 19 18 30

GFSGBSN_500_spd_105.txt.gz
Wind_Speed
11 12 12 11 9 10 12 12 13 12 12 12 13 16 19 20 20 20 19 16 13 9 9 11 13 14 16 18 19 22 24 26 24 23 22 21 21 21 22 22 18 11 9 6 8 32 30
13 14 14 14 13 11 12 12 13 14 15 17 17 19 21 22 22 24 23 20 17 15 14 14 16 18 24 26 23 22 28 29 29 27 26 24 23 23 24 22 20 15 10 6 13 31 27
11 12 12 12 12 12 12 13 13 15 17 20 21 22 24 24 24 25 25 24 20 18 17 18 20 25 30 33 30 26 31 32 32 31 30 28 28 27 25 26 22 14 15 11 13 24 17
14 14 15 14 15 13 13 14 14 15 18 21 22 24 26 26 27 26 26 24 23 20 21 20 21 26 32 34 34 32 34 33 34 34 33 32 32 29 28 28 27 24 16 11 12 18 15
18 18 18 18 18 17 17 18 18 19 21 22 23 24 25 26 27 26 26 24 24 24 23 21 23 25 26 29 30 32 33 32 35 35 35 35 34 32 31 30 29 22 18 14 10 15 37
20 21 22 22 22 22 21 20 21 22 23 24 24 23 23 25 25 24 24 24 24 24 23 22 22 25 24 26 25 29 33 34 35 36 37 37 34 33 32 33 31 27 22 15 17 31 38
21 24 25 25 25 24 23 23 22 22 23 23 23 22 23 23 24 24 23 22 23 22 22 20 21 22 24 23 21 24 30 34 34 37 35 32 35 35 32 29 26 28 28 22 18 20 31
23 25 26 28 29 29 28 26 24 22 22 22 22 22 21 21 22 22 22 22 22 20 15 18 19 21 20 19 19 24 30 33 32 33 31 35 35 34 30 29 26 29 32 33 38 32 42
24 25 27 28 28 30 30 30 27 23 21 21 22 22 22 21 20 21 21 19 20 20 17 16 13 15 14 15 17 24 27 31 31 30 30 34 28 29 26 32 28 27 27 33 38 41 24
25 26 26 26 26 27 27 26 25 23 21 21 22 23 22 20 20 20 18 19 15 16 18 18 13 12 14 11 14 19 24 28 30 30 29 30 27 33 24 26 26 26 18 22 33 46 37
26 27 26 26 26 26 25 23 23 22 22 23 23 24 21 20 20 18 16 15 12 12 14 15 19 19 15 7 10 15 20 26 29 30 28 26 25 30 29 14 30 28 20 18 23 25 24
26 27 28 27 27 26 25 25 24 23 23 25 24 22 20 20 18 16 14 9 10 7 16 15 18 17 16 7 7 9 17 24 27 31 32 28 28 28 22 13 26 27 23 19 21 26 19
27 27 27 28 28 26 26 25 24 22 24 27 25 21 20 20 15 13 7 8 5 8 11 10 15 16 18 12 6 5 7 20 26 28 30 29 31 30 20 17 23 35 21 20 6 10 23
28 28 28 28 27 26 25 23 22 22 24 26 25 19 19 18 14 9 5 5 2 8 3 5 7 4 8 8 5 8 12 15 23 25 27 21 23 28 30 31 23 37 19 12 11 10 13
30 28 29 29 28 26 23 21 20 23 25 26 24 19 19 17 12 7 6 8 5 4 10 11 5 9 10 9 10 11 14 5 16 21 24 13 11 10 16 21 26 23 24 18 25 6 8
29 30 30 30 28 25 24 21 21 23 27 26 22 19 18 12 9 6 6 8 8 7 10 8 7 5 14 10 11 5 11 7 9 5 18 20 15 20 15 13 19 24 16 21 22 18 20
30 31 30 29 28 24 23 21 20 22 24 27 21 18 15 10 8 8 6 4 7 14 6 9 10 9 16 16 11 17 18 20 17 16 19 29 24 23 24 24 20 31 25 21 22 23 20
32 31 28 29 27 26 22 19 20 23 24 26 20 16 14 9 8 11 6 14 5 15 18 15 13 13 13 21 23 22 22 23 28 29 27 33 27 27 23 18 21 20 31 21 18 19 24
33 31 29 28 31 30 26 23 22 22 25 25 21 16 13 7 10 9 10 9 10 16 20 18 12 15 17 25 28 23 33 29 28 35 35 30 28 30 28 24 11 9 26 35 28 25 25
37 36 36 37 38 32 29 26 25 24 25 26 21 16 11 7 9 8 9 3 7 22 17 15 11 14 12 13 22 17 28 25 35 29 30 32 34 28 29 21 21 21 17 27 30 33 29
42 42 41 39 34 31 28 27 25 24 26 25 23 22 21 13 13 16 18 11 17 19 23 15 12 9 9 19 20 20 21 17 29 30 21 34 29 37 26 17 17 25 18 24 25 26 19
45 41 37 33 30 29 27 27 26 26 23 25 24 20 19 16 15 13 18 14 16 19 14 13 13 10 14 15 18 12 19 9 12 14 17 22 33 37 47 33 21 21 21 26 25 25 18
40 37 35 31 28 29 28 28 28 26 25 26 21 11 12 17 19 13 11 15 18 10 13 12 10 9 16 13 9 9 8 5 4 14 15 22 23 35 35 45 28 33 28 25 21 28 18
39 39 34 33 33 32 32 31 30 30 27 25 18 15 17 22 20 16 10 23 18 10 13 12 7 9 11 11 12 9 7 4 4 7 14 15 26 28 31 39 32 33 29 25 27 31 30
40 39 37 37 36 36 35 34 34 32 29 26 20 20 16 21 19 24 21 27 14 11 13 11 8 9 10 10 10 12 10 12 9 7 10 20 23 25 22 40 41 37 34 30 35 31 34
41 41 40 39 39 36 35 37 36 34 31 28 23 20 18 25 24 26 23 23 14 17 13 11 9 8 7 7 6 1 3 12 10 7 15 16 19 23 25 37 44 37 37 30 36 33 26
38 38 38 36 35 33 33 33 34 34 32 29 24 23 22 28 33 30 29 22 20 14 11 10 8 7 5 4 4 8 8 3 7 10 10 11 13 17 25 34 38 31 32 34 35 40 35
35 34 32 31 28 29 29 31 30 31 31 30 29 23 24 30 36 39 35 25 16 14 12 6 10 7 8 4 3 3 3 9 7 4 7 8 5 8 18 28 21 28 22 38 34 37 40
33 32 29 27 23 21 23 25 27 28 31 31 30 25 23 28 31 37 30 20 18 16 9 7 6 8 5 7 3 1 2 4 6 7 9 8 4 9 10 11 10 2 17 18 28 26 34

GFSGBSN_500_spd_108.txt.gz
Wind_Speed
10 11 12 12 12 11 10 10 9 10 10 11 12 13 13 14 14 15 15 14 12 11 9 8 10 11 10 13 15 18 21 24 24 24 23 22 22 20 16 19 20 15 7 13 13 22 21
9 9 10 10 10 10 11 10 11 13 13 14 15 16 16 16 17 17 17 18 17 15 13 11 12 13 16 21 18 21 24 27 27 28 27 24 25 26 21 23 21 20 12 10 24 31 32
11 12 12 13 13 13 12 11 11 13 14 16 17 17 18 19 19 19 20 21 21 17 17 16 15 17 18 23 24 24 30 30 31 31 30 29 31 28 25 22 24 22 5 11 13 25 37
14 15 16 17 17 16 16 15 15 16 17 19 21 22 22 22 22 20 19 19 19 20 19 19 19 18 22 22 25 29 35 32 33 33 34 33 33 32 27 24 23 21 16 12 11 14 26
15 17 18 18 18 18 17 16 16 17 18 18 19 20 21 20 19 18 18 19 19 19 19 19 19 20 20 20 22 24 25 34 34 35 35 37 37 35 32 26 25 24 13 16 9 11 20
16 18 20 21 23 23 23 22 21 20 19 19 19 19 18 18 18 17 18 19 19 19 19 20 19 19 21 19 21 22 22 28 31 37 40 39 36 35 32 27 23 23 26 22 16 31 18
18 20 20 21 22 23 25 25 25 23 20 20 18 17 16 18 19 19 19 19 19 20 19 18 19 21 20 17 21 23 24 27 31 37 36 38 36 32 27 24 32 32 30 24 16 16 30
18 19 21 22 23 23 24 25 26 25 23 20 19 17 18 19 21 21 20 19 19 17 17 18 20 22 20 18 22 23 27 29 31 34 34 35 32 27 28 32 35 32 28 29 31 25 28
18 20 21 22 23 25 25 25 25 25 24 22 19 19 20 21 22 20 21 21 19 17 13 16 17 17 18 18 17 20 24 28 29 31 31 31 26 28 30 32 30 28 23 29 34 31 33
19 22 24 25 25 25 26 25 24 23 23 22 19 20 22 22 20 19 20 20 20 16 15 12 11 13 13 11 11 14 22 27 28 28 30 27 26 26 30 29 26 29 26 23 21 34 31
21 23 25 25 25 25 25 24 23 23 23 23 20 21 23 23 18 17 19 17 15 15 12 13 13 15 13 6 3 7 16 20 24 27 31 28 27 24 28 25 24 26 27 22 16 19 24
22 25 26 25 24 25 26 25 24 22 21 20 20 22 22 19 17 18 16 13 13 11 10 13 15 10 10 10 5 5 13 16 21 24 27 27 28 27 28 22 19 22 23 33 13 15 17
25 27 27 25 24 25 26 26 24 21 19 20 22 22 20 17 17 16 14 11 11 10 7 7 10 10 7 9 8 4 4 7 15 18 20 27 29 30 28 25 21 23 23 26 2 2 5
28 29 29 26 26 26 26 26 23 20 19 20 24 22 19 17 17 13 9 11 10 11 13 6 8 10 5 5 6 6 8 5 9 14 16 22 29 27 25 22 21 21 10 15 13 2 3
31 31 29 28 28 24 25 24 22 21 19 20 23 23 19 17 14 10 9 11 11 10 5 5 10 11 12 12 8 4 0 5 7 10 15 18 28 35 21 16 23 19 15 15 15 5 2
34 33 30 29 28 23 24 21 20 18 18 20 21 22 20 17 13 8 11 14 14 11 8 4 6 14 8 6 15 13 13 14 11 21 22 22 32 33 34 19 16 22 19 22 22 19 16
35 34 32 30 26 23 23 23 23 21 20 23 23 21 21 16 13 11 16 15 12 13 5 4 7 13 21 17 14 15 15 17 19 16 25 26 28 26 25 27 21 21 22 18 17 13 18
36 34 32 29 27 27 27 27 26 25 24 22 23 22 20 16 15 12 16 13 12 15 8 8 7 13 21 26 25 19 24 19 20 23 28 33 28 30 24 20 21 19 21 18 17 12 16
37 35 32 30 32 34 35 34 29 25 24 23 23 24 19 16 16 10 17 18 17 14 13 12 12 17 20 24 24 25 23 27 29 27 29 34 29 26 28 21 21 23 30 27 25 21 16
38 35 35 35 36 38 34 32 26 24 23 22 22 23 19 15 13 12 14 17 17 15 14 9 13 13 21 23 20 16 12 17 36 30 36 30 30 31 30 31 29 26 31 37 30 25 23
39 38 37 39 41 36 32 28 24 23 22 22 21 18 15 12 13 18 16 18 18 13 19 18 15 11 16 15 13 12 13 11 22 33 30 32 32 37 34 34 27 27 31 33 37 34 32
42 41 41 37 33 32 30 26 24 24 23 22 21 18 15 14 15 14 19 17 15 20 20 19 17 15 16 13 12 8 6 3 4 19 17 24 36 39 32 37 33 31 33 37 39 37 35
44 43 39 37 31 29 28 28 26 25 25 25 22 21 18 20 16 15 24 20 19 16 11 15 13 18 13 11 8 9 4 7 3 10 18 18 23 38 42 35 19 20 35 32 32 28 33
42 40 38 35 34 33 32 30 29 29 29 29 24 23 20 19 18 22 25 21 19 11 12 19 9 14 15 14 13 11 8 9 13 15 16 16 21 20 35 31 37 21 22 25 28 23 32
37 38 37 35 34 33 33 33 32 31 31 32 28 23 20 21 22 28 27 23 23 13 13 15 16 14 14 13 12 13 5 8 11 11 12 14 17 23 27 34 32 41 34 28 28 29 34
32 33 33 31 33 34 35 36 35 33 33 34 29 25 21 24 28 28 30 28 29 23 16 15 17 13 13 9 9 8 5 2 9 6 7 11 20 23 28 32 37 36 41 35 29 34 32
31 32 31 30 31 32 33 34 33 31 33 32 30 28 25 29 30 31 33 31 24 18 19 10 16 15 13 9 5 8 5 9 4 9 2 10 12 18 19 25 35 45 40 39 31 34 34
30 30 29 29 27 28 28 29 29 29 30 30 28 28 26 27 31 34 37 33 27 17 14 9 9 14 11 7 3 3 6 7 11 9 7 11 12 12 21 24 29 40 44 40 43 35 45
28 28 28 28 27 26 25 24 21 23 24 28 26 26 28 25 33 36 37 35 31 25 15 7 6 7 6 9 7 5 7 7 6 4 11 6 9 2 6 9 17 24 23 34 29 28 35

GFSGBSN_500_spd_111.txt.gz
Wind_Speed
7 7 8 9 9 9 8 9 10 11 11 11 13 13 13 13 13 12 11 12 11 10 8 9 12 11 15 16 17 18 20 21 22 23 23 22 22 19 16 13 16 17 13 10 10 12 12
7 8 9 9 8 8 8 8 9 11 13 14 15 16 16 16 16 16 15 14 14 15 13 12 13 14 17 21 19 21 21 23 25 26 25 24 28 26 20 16 17 15 17 12 13 7 16
10 11 11 11 12 13 12 12 12 12 12 13 14 15 17 18 19 20 20 18 17 16 17 16 16 18 20 24 23 24 26 27 27 27 27 30 31 31 24 17 19 16 17 17 11 15 23
10 12 14 15 16 16 15 15 14 15 16 17 17 18 18 19 19 18 16 15 14 16 18 19 19 20 21 23 25 27 30 31 30 29 32 33 34 33 30 22 20 19 19 18 14 17 14
12 14 16 17 18 18 19 19 19 19 18 17 17 19 19 19 17 16 15 15 17 19 20 20 20 20 20 19 22 24 29 30 31 33 35 37 36 36 33 25 21 22 23 21 21 20 15
11 13 15 16 18 19 19 20 21 22 23 23 22 20 20 18 17 15 16 18 19 20 21 21 21 19 18 19 21 22 27 25 28 32 35 35 35 37 34 23 23 27 26 24 12 16 19
11 13 15 18 19 20 22 23 24 25 26 26 26 25 22 19 17 18 19 21 20 21 22 22 21 20 20 19 21 20 21 24 25 29 31 34 33 31 27 27 28 33 31 27 18 26 16
12 15 17 19 20 22 23 24 25 25 25 26 26 26 24 20 19 19 21 19 20 20 21 23 22 21 19 17 19 22 22 25 27 28 32 30 25 27 32 33 32 34 28 28 26 26 19
14 15 18 20 23 24 24 25 25 25 25 25 24 24 23 20 19 20 20 19 19 20 19 19 20 21 22 21 17 20 23 26 27 29 28 26 26 32 33 33 33 32 32 29 31 32 21
16 18 20 22 24 25 25 25 25 26 26 26 25 24 21 20 20 21 19 19 19 19 15 16 18 18 15 17 19 19 20 21 23 28 28 28 30 29 32 31 30 31 32 30 21 28 25
19 20 22 24 26 26 25 24 25 28 27 25 23 21 19 18 20 20 19 20 20 15 11 15 16 15 11 9 13 13 13 15 22 27 27 27 29 29 29 26 30 32 30 25 28 18 21
22 23 25 26 27 26 25 26 27 28 25 22 20 19 19 19 17 16 17 19 17 11 11 13 11 9 8 1 3 8 9 11 18 21 19 22 26 27 26 30 30 31 29 25 25 11 15
25 26 27 28 28 27 26 27 27 24 24 22 20 19 20 20 16 16 17 18 15 10 12 13 10 4 6 2 4 4 2 10 12 15 16 19 27 27 29 30 30 29 25 20 18 16 9
29 29 29 29 29 28 27 25 24 19 21 21 19 18 18 18 16 16 16 16 14 10 11 17 16 9 4 4 4 9 6 9 10 12 15 20 29 32 30 27 19 23 27 27 24 13 3
32 33 32 32 30 28 27 24 22 20 20 19 18 19 18 18 16 15 15 17 14 11 12 15 14 9 9 10 8 5 4 8 15 20 20 23 30 32 29 23 22 16 19 23 24 25 13
36 35 35 34 32 29 27 23 21 20 23 22 23 23 20 19 15 15 16 17 13 12 11 15 14 9 7 12 10 11 12 10 12 18 18 23 34 30 34 27 27 20 14 18 17 16 16
40 38 37 36 34 30 26 24 24 25 25 25 24 23 22 18 17 14 15 15 15 15 13 18 17 15 12 13 15 15 18 17 18 16 26 24 37 32 28 28 23 27 28 25 20 16 24
44 41 39 38 36 31 30 30 30 31 31 27 25 21 21 18 17 14 14 16 18 18 18 16 15 18 16 15 15 17 18 21 21 22 28 31 33 37 36 27 25 19 22 23 22 17 17
46 45 42 39 37 34 32 33 33 34 30 26 26 21 19 17 13 13 14 17 19 22 20 20 23 16 17 17 16 15 15 16 27 26 30 35 35 38 39 39 32 26 24 25 20 19 19
47 45 42 41 38 35 32 35 36 33 28 24 25 23 17 15 12 15 16 18 23 25 24 26 11 15 14 16 10 8 10 14 20 32 33 34 36 32 37 34 34 33 27 28 25 23 21
48 46 44 41 40 37 33 33 31 29 26 24 22 21 18 15 14 14 15 20 23 23 23 22 13 11 12 9 8 10 12 12 13 21 34 37 38 38 41 36 33 36 30 31 31 28 25
48 47 45 43 41 39 36 32 29 26 24 25 23 21 20 19 17 17 18 27 24 20 22 18 14 13 12 8 6 12 11 10 13 16 24 38 33 40 38 37 44 40 30 25 29 32 31
49 47 46 43 42 39 36 33 30 27 28 27 27 25 23 21 21 19 22 23 19 19 21 16 14 17 13 9 11 15 13 12 11 12 17 15 19 31 38 44 42 42 31 25 25 34 36
45 42 41 40 39 37 33 32 31 31 30 29 29 29 26 23 24 21 22 21 19 22 23 16 19 17 15 12 12 16 13 15 15 13 12 18 16 18 24 40 42 41 31 28 27 27 37
36 35 34 33 34 34 34 32 30 30 30 31 31 31 29 25 25 25 24 23 23 23 21 18 17 15 15 12 11 13 11 11 14 14 16 16 15 19 23 36 44 35 38 32 30 28 21
28 25 25 27 27 30 32 30 31 33 34 35 32 32 31 27 28 28 24 27 30 25 24 20 22 17 14 12 12 13 3 4 10 13 11 13 20 22 27 26 37 42 34 24 29 29 32
21 20 25 28 26 27 29 31 32 33 35 35 33 34 31 30 30 30 30 31 32 26 22 21 23 16 9 9 9 9 8 11 9 8 8 11 12 15 22 27 31 35 36 34 35 31 31
23 23 24 25 28 28 30 30 29 29 31 33 31 31 29 30 30 33 31 33 35 27 19 13 15 10 5 8 7 6 9 13 12 12 6 6 5 9 11 23 28 32 35 35 31 36 33
24 25 24 24 23 24 26 26 26 26 27 27 26 27 29 32 35 35 33 33 35 30 16 8 9 7 4 7 10 6 6 6 5 4 4 7 2 3 5 14 21 21 26 27 33 36 37

GFSGBSN_500_spd_114.txt.gz
Wind_Speed
5 5 6 8 8 8 8 9 11 13 14 15 15 17 16 15 14 14 13 13 13 12 12 11 11 13 12 15 17 17 18 18 19 18 20 21 18 15 13 11 11 13 13 11 14 10 15
8 9 10 10 10 10 10 9 8 8 9 11 12 14 16 17 17 17 17 17 18 17 17 17 15 15 16 19 19 20 21 21 22 22 22 23 25 21 16 14 12 13 15 15 9 12 11
8 10 11 11 12 13 14 14 13 14 14 14 15 15 15 16 17 19 20 21 20 19 19 19 18 18 20 22 22 22 23 24 25 24 25 26 28 25 19 16 13 13 17 14 14 8 6
8 10 12 13 14 15 15 16 17 17 17 18 18 18 18 18 19 19 18 18 18 18 18 17 17 19 22 22 24 24 25 26 27 28 28 28 28 27 25 18 16 18 21 20 16 12 12
8 10 12 14 15 17 18 18 20 21 21 22 23 24 24 23 22 20 17 16 18 19 19 20 21 21 24 24 25 24 23 26 28 30 31 31 28 28 27 20 20 22 23 23 22 22 16
9 11 13 15 16 18 20 21 22 24 25 26 26 26 26 26 24 22 18 18 21 21 22 22 22 21 21 22 21 22 23 25 26 28 30 29 28 27 23 23 24 26 28 26 24 13 19
10 12 14 16 18 20 22 24 25 26 27 28 28 27 26 25 24 20 18 20 22 22 21 21 21 22 22 21 20 22 23 22 21 21 24 24 22 19 27 28 28 29 31 29 28 26 11
12 14 15 17 19 21 23 26 27 27 28 28 29 28 27 25 24 20 20 21 22 20 21 22 23 23 21 21 21 19 19 20 21 22 22 19 17 24 28 30 28 27 34 31 30 28 24
15 16 18 18 20 23 25 26 27 27 27 29 31 30 27 26 22 19 20 21 20 21 20 21 22 21 19 19 19 18 17 16 20 23 23 21 23 28 31 31 28 26 32 31 30 31 28
18 19 19 20 22 24 26 27 27 27 27 30 30 28 25 22 19 17 18 19 18 20 19 19 19 19 17 17 17 15 14 16 19 23 25 25 30 30 31 30 27 24 27 31 30 29 31
22 22 22 22 24 26 27 28 27 27 27 30 27 24 21 21 19 18 16 16 16 17 17 17 17 16 17 17 17 14 14 17 17 22 21 23 31 30 29 27 27 22 28 27 27 27 27
25 25 24 24 25 27 29 29 28 27 26 23 23 21 19 20 19 19 17 16 15 15 11 15 16 15 15 14 13 14 13 13 11 12 17 21 26 26 25 26 25 23 24 27 22 25 26
28 28 28 28 28 29 30 30 29 26 24 20 21 20 18 19 18 17 16 16 15 10 13 11 12 13 13 9 10 10 12 11 9 12 15 20 21 21 23 26 25 23 24 27 23 22 22
31 31 31 31 31 31 31 31 29 26 23 22 19 18 18 19 18 19 19 17 13 12 14 13 11 12 10 8 7 12 12 12 12 14 18 20 21 21 23 23 22 22 24 23 21 19 20
35 34 34 34 33 33 33 32 29 27 23 22 21 20 20 20 20 19 18 17 10 12 13 14 14 14 11 10 12 11 10 12 9 14 16 21 21 24 23 26 25 24 21 22 22 21 21
40 39 38 37 37 35 34 32 31 28 24 24 25 23 22 21 21 19 19 16 13 12 13 16 16 13 18 13 12 12 15 13 8 13 18 18 21 26 29 28 28 25 21 23 19 18 21
45 44 43 41 40 37 36 34 32 30 29 28 27 27 23 21 21 20 18 15 15 15 16 18 19 15 14 15 15 18 16 16 16 13 23 25 27 29 31 28 29 29 28 23 20 18 15
50 49 46 44 42 40 37 35 33 32 33 31 31 30 24 21 18 17 20 17 16 16 18 20 19 15 17 20 16 15 17 18 19 19 23 28 30 30 28 30 30 27 29 28 24 18 16
53 51 48 45 43 41 38 36 33 32 33 34 33 29 25 20 19 18 19 20 19 19 20 20 19 17 19 16 13 13 15 16 19 26 24 27 32 36 34 36 34 29 29 31 30 24 21
52 49 48 46 42 39 37 36 34 33 31 35 32 26 24 21 22 19 18 18 19 22 18 19 17 15 20 16 9 9 12 14 18 21 27 32 36 36 40 36 34 31 30 27 29 27 22
47 46 45 42 40 38 37 36 35 34 32 31 29 24 22 22 22 19 17 18 21 22 16 19 14 18 18 14 9 11 12 12 14 14 15 28 30 40 39 38 40 28 34 32 28 28 25
48 47 46 41 39 39 38 36 35 33 32 31 28 23 22 24 24 22 19 20 21 20 16 19 18 19 18 13 10 13 12 12 14 14 20 21 25 39 36 49 45 35 38 35 29 28 28
44 44 43 42 41 40 37 36 35 33 32 30 28 26 26 26 26 25 21 21 21 19 17 19 18 18 17 13 11 13 17 17 18 15 18 21 17 30 47 48 52 47 42 39 33 25 31
38 41 44 42 40 40 38 36 35 32 32 32 31 29 29 28 27 26 24 21 22 20 21 23 19 19 15 13 13 14 16 18 16 15 17 19 17 13 32 36 39 40 44 40 35 27 29
30 33 33 33 36 40 35 33 33 32 32 32 32 31 31 29 29 29 26 24 24 23 24 22 19 16 11 13 12 12 14 16 15 14 15 18 11 12 15 35 42 37 35 42 38 34 27
28 31 30 29 30 34 28 28 31 32 31 32 32 31 31 31 30 33 28 27 28 26 23 25 20 14 13 18 12 10 11 5 5 7 13 14 13 15 20 21 31 37 42 41 39 35 30
25 22 26 27 28 22 23 25 27 30 32 33 33 33 32 30 33 34 32 30 30 27 23 28 15 12 14 13 10 9 9 10 9 7 11 14 16 13 15 20 21 23 31 38 45 26 30
25 22 21 21 20 20 22 26 28 30 31 32 30 31 32 32 37 38 34 33 32 27 26 24 13 9 12 12 11 8 7 8 8 6 5 7 6 8 10 16 22 22 21 21 26 25 29
22 27 22 23 20 20 23 24 25 28 30 28 27 30 31 33 36 37 36 33 31 29 27 19 10 9 12 14 12 9 4 5 2 4 2 4 3 5 7 13 13 20 14 15 23 26 28

GFSGBSN_500_spd_117.txt.gz
Wind_Speed
5 7 8 9 9 9 9 9 8 8 9 10 12 14 15 15 15 16 16 15 14 15 14 13 12 12 12 14 15 14 15 15 15 17 18 16 14 11 11 8 9 8 8 7 6 11 5
8 9 9 10 11 11 11 11 11 10 11 11 12 13 14 13 13 15 16 17 18 19 19 19 18 17 16 18 17 16 16 18 17 17 20 20 18 14 12 10 10 12 9 9 10 5 2
7 8 9 10 12 13 13 14 15 16 16 16 15 15 15 16 17 18 18 18 19 19 19 19 20 20 18 20 19 18 19 20 19 18 21 22 20 16 14 10 12 13 10 11 11 10 8
6 8 10 12 13 15 15 16 17 18 18 19 21 22 22 22 20 19 19 21 20 19 18 18 18 18 20 21 21 21 21 20 21 21 21 22 23 18 15 13 13 15 14 12 13 13 7
5 7 10 12 14 15 17 18 19 20 21 23 24 25 25 25 24 23 22 21 20 18 17 18 18 19 22 22 22 23 24 22 21 22 22 22 22 20 20 17 17 19 20 19 17 19 14
6 9 11 12 14 15 17 19 20 22 23 25 26 27 27 26 25 25 25 23 21 20 19 19 20 20 20 20 21 21 22 21 20 21 22 21 19 20 22 23 20 21 23 23 20 21 18
9 10 12 14 15 16 17 19 22 24 25 25 26 27 29 29 26 25 26 24 20 19 19 19 19 20 19 19 20 20 20 20 21 20 19 17 17 19 24 26 24 21 24 25 25 24 23
12 13 14 15 16 18 18 20 22 25 26 27 26 28 28 27 25 24 23 22 19 18 17 17 18 19 19 20 20 18 20 20 19 19 18 17 18 22 25 26 23 21 24 26 25 27 24
16 16 17 18 19 19 19 21 23 25 27 27 26 27 26 24 22 20 18 18 18 17 16 15 15 17 17 15 16 16 18 18 18 17 17 18 19 24 27 27 24 21 22 25 25 26 28
20 20 20 21 21 22 21 22 24 25 27 27 25 25 24 21 20 19 17 18 16 15 16 15 16 16 12 13 13 12 12 13 16 13 16 19 22 26 26 25 26 22 21 25 25 27 28
24 24 24 24 24 24 23 24 25 26 26 26 23 21 22 21 17 15 17 18 16 14 15 17 14 12 12 11 11 11 11 10 10 11 14 18 21 22 22 23 26 21 20 24 25 25 27
28 28 27 26 27 26 26 26 26 27 27 26 23 21 23 20 16 15 16 16 15 15 16 13 11 11 13 13 12 10 9 8 8 11 14 17 19 21 21 24 24 22 19 21 22 24 22
32 31 30 29 28 28 28 27 27 28 27 26 23 20 21 21 18 17 16 17 16 14 11 8 8 9 12 13 14 14 8 7 6 10 14 13 17 20 21 22 22 19 18 21 23 23 19
35 35 34 33 31 31 30 29 28 28 28 26 23 21 20 21 20 18 18 18 15 14 10 9 9 6 8 12 15 16 12 4 6 10 10 11 14 16 19 20 19 18 19 20 22 21 19
42 40 38 36 35 34 33 32 31 29 29 27 25 21 21 21 22 20 19 16 15 15 12 12 9 6 7 9 13 15 15 10 10 9 8 11 15 18 20 19 22 19 19 18 20 20 19
49 47 45 42 40 38 37 35 33 30 30 29 27 25 23 22 24 21 18 15 15 15 15 14 10 9 8 8 10 13 15 15 12 11 11 15 16 20 21 21 23 21 20 22 22 23 20
54 53 51 48 46 44 42 39 36 33 32 30 29 28 26 25 24 22 19 15 16 15 17 16 12 11 10 10 11 15 16 16 18 18 15 18 19 21 25 25 26 24 23 22 23 25 21
55 56 54 52 48 48 45 42 39 36 33 32 30 28 28 26 26 23 22 18 15 17 18 17 13 11 13 12 17 20 18 19 20 22 22 21 26 26 27 30 31 29 26 26 28 23 20
49 51 53 54 51 48 46 43 40 37 34 33 30 29 27 27 26 23 24 20 17 16 17 15 13 12 17 14 13 17 20 20 16 18 19 24 27 31 31 32 32 34 33 30 29 26 19
47 48 46 48 47 47 45 41 39 36 33 33 31 29 27 26 26 25 24 21 19 18 17 14 12 12 15 15 18 18 18 13 12 15 17 22 29 32 36 34 35 38 36 33 33 29 28
41 42 42 42 40 39 38 39 36 36 34 34 32 29 28 25 25 25 24 21 21 21 17 14 10 12 14 18 18 18 16 13 13 14 17 21 19 31 38 41 41 40 37 36 33 28 26
38 33 34 35 35 35 33 32 36 34 35 33 31 28 28 27 26 26 25 22 22 23 17 12 13 15 16 19 17 16 16 15 14 16 17 19 19 23 28 38 42 45 39 37 38 31 25
29 27 30 32 34 34 35 31 31 32 35 40 39 31 29 29 28 28 26 26 25 23 18 14 16 16 17 16 15 14 16 17 16 17 18 17 17 18 23 31 46 45 45 41 39 31 28
26 28 28 26 26 29 34 36 35 32 33 33 33 35 32 30 29 29 28 27 26 24 19 17 17 19 18 16 13 14 14 16 16 16 19 15 11 18 21 27 38 41 40 39 28 30 30
27 27 26 25 27 29 28 30 33 38 35 36 35 35 33 31 30 31 31 29 27 25 21 21 20 21 17 11 13 13 13 14 15 13 14 8 9 12 18 15 20 34 34 39 36 33 36
25 25 25 24 24 24 24 26 30 37 37 37 35 35 32 32 30 31 31 29 28 26 25 24 22 22 15 16 16 13 12 10 6 5 8 9 6 9 10 14 16 24 34 35 36 43 37
25 25 24 24 20 18 23 26 26 28 30 28 31 30 26 26 29 30 32 31 30 29 27 26 25 23 17 17 15 12 12 11 11 10 9 8 8 8 8 11 18 16 27 31 28 32 38
26 24 23 23 21 17 16 16 16 18 19 19 20 22 27 29 31 30 31 32 33 30 28 27 26 19 16 15 11 11 10 9 9 12 10 7 7 4 4 7 13 16 18 20 20 28 33
27 23 21 21 23 18 18 16 16 18 20 22 24 26 26 28 32 32 33 31 33 28 28 27 21 17 14 16 12 11 13 8 7 5 5 4 2 4 5 8 12 12 15 13 15 22 31

GFSGBSN_500_spd_120.txt.gz
Wind_Speed
7 7 8 9 10 10 10 10 9 9 8 8 9 9 10 11 11 11 14 16 17 16 16 15 14 13 12 11 12 11 11 11 10 10 11 10 9 8 5 6 5 6 7 7 1 9 7
7 8 8 9 10 11 11 11 11 11 11 11 12 13 13 12 12 13 13 14 15 16 18 19 20 19 17 17 16 14 12 12 13 12 12 11 10 9 6 7 7 7 7 9 5 4 5
6 7 7 9 10 11 11 12 13 13 13 14 15 17 18 19 19 19 18 16 15 16 18 19 20 21 21 21 18 16 14 13 15 16 14 12 10 9 8 9 10 9 8 9 10 7 9
4 6 7 8 9 10 11 12 13 14 15 16 18 20 21 23 24 25 23 21 18 17 17 19 18 20 20 20 20 18 17 16 17 17 16 14 12 12 10 12 12 13 11 9 12 10 6
2 4 5 7 9 10 11 13 14 16 17 19 21 22 23 25 27 27 25 23 20 19 17 17 18 18 18 19 18 18 18 20 19 18 16 16 15 14 13 11 14 15 16 15 15 15 13
4 4 6 8 9 11 12 13 13 15 18 20 21 22 24 24 26 27 25 23 20 18 17 17 17 18 18 18 17 17 18 19 18 17 16 15 15 16 16 15 15 19 19 18 17 18 17
9 9 10 10 11 12 13 14 14 15 17 19 21 23 24 25 26 25 23 20 18 17 15 16 17 18 17 17 16 17 17 18 18 16 16 15 17 17 19 18 17 17 20 21 19 22 21
15 14 15 15 15 15 16 16 17 17 17 19 22 23 24 23 23 22 21 19 15 14 14 14 15 14 16 16 15 16 16 16 16 16 16 16 15 21 21 20 18 17 18 22 22 22 23
20 20 20 20 19 19 19 19 19 19 19 20 22 23 23 21 20 20 20 16 15 15 14 13 12 13 12 12 13 14 15 15 15 16 16 18 22 21 23 20 19 17 16 21 19 21 22
26 26 25 25 24 23 23 22 21 21 21 21 22 23 22 20 20 19 18 14 15 16 14 12 12 11 10 10 10 11 13 13 13 14 16 22 19 19 19 19 18 17 19 19 18 19 21
29 29 29 29 28 27 25 25 24 23 22 23 22 22 22 20 19 18 15 13 15 13 14 14 12 9 7 7 8 7 8 9 10 12 16 20 18 17 18 20 18 20 18 17 17 20 22
32 33 32 31 31 30 28 27 27 25 23 23 23 22 22 19 18 18 16 14 15 15 15 13 11 11 7 5 4 3 5 7 9 10 12 13 12 12 18 17 19 19 20 19 19 22 21
36 36 36 35 34 33 32 30 29 28 25 23 24 22 22 19 17 17 16 16 14 15 15 11 9 10 8 6 2 1 4 6 9 8 10 10 11 13 16 18 17 17 16 15 18 21 16
43 42 41 39 38 37 35 33 32 30 28 25 24 23 22 20 18 17 16 16 15 14 12 12 11 11 9 9 7 2 3 6 8 9 10 9 11 14 17 16 16 17 17 14 13 12 16
50 49 48 47 45 42 40 38 35 33 31 28 25 24 23 22 21 17 18 17 15 15 12 10 10 9 10 10 10 10 5 7 10 9 8 9 13 13 15 16 17 15 18 17 19 19 21
52 53 53 53 52 51 48 44 40 37 34 32 28 27 26 25 23 21 18 18 18 16 14 12 11 11 11 10 10 10 14 11 10 11 12 13 13 16 15 17 19 18 19 16 19 17 16
46 48 49 51 52 54 53 50 47 44 39 35 32 30 29 27 27 24 20 20 20 18 16 14 13 13 13 12 11 10 14 16 15 15 17 17 14 16 15 17 15 20 20 18 19 17 18
46 46 47 48 51 49 50 51 49 47 43 40 37 34 32 30 30 26 23 22 21 21 18 15 13 14 14 13 12 14 17 15 15 18 20 21 18 17 12 25 26 26 20 20 21 18 19
45 46 46 43 44 46 46 48 47 45 44 42 40 37 34 32 31 28 25 24 24 22 20 16 13 14 15 14 14 14 16 15 16 16 16 15 17 21 18 21 22 29 29 28 26 28 28
40 38 39 39 39 39 40 41 44 47 46 41 40 38 35 33 31 30 27 25 25 22 21 17 15 14 16 18 13 15 16 14 14 13 14 16 14 18 21 23 28 22 36 33 33 26 23
34 34 36 33 30 32 35 36 34 36 45 45 41 40 36 34 31 31 29 27 26 24 21 18 14 13 17 18 14 15 15 17 14 15 16 16 17 22 20 37 39 30 35 34 35 36 33
32 32 31 26 25 24 28 30 30 27 29 39 43 39 37 35 34 32 30 27 27 26 23 17 14 18 20 17 14 16 17 16 16 16 18 19 21 21 22 23 32 40 44 33 40 39 35
30 29 29 25 24 25 26 27 28 28 27 29 40 40 37 36 35 34 31 28 29 29 24 20 19 22 20 18 14 17 19 18 17 17 20 20 19 18 17 23 25 31 34 41 39 38 36
29 27 26 25 22 24 22 19 22 29 29 28 29 38 41 40 36 34 35 34 33 30 26 23 21 23 22 18 16 18 17 18 17 15 19 19 16 17 17 21 21 21 33 39 41 41 34
28 26 25 24 22 22 21 22 24 24 27 33 32 33 36 46 41 38 35 35 34 31 28 25 25 25 22 17 18 17 18 17 14 15 13 10 9 14 16 16 18 18 18 29 36 38 42
28 25 25 23 21 21 22 19 19 20 19 22 26 34 34 34 38 41 34 34 33 31 29 28 26 25 22 16 19 18 19 17 14 10 9 8 10 12 9 15 11 11 10 17 25 29 43
27 26 24 23 21 20 21 19 16 18 19 19 20 27 32 31 32 37 39 38 34 31 31 27 27 26 21 18 22 22 21 17 14 13 15 13 11 9 9 12 10 6 6 15 19 21 25
27 26 25 23 22 19 20 18 15 13 13 15 17 19 25 27 33 30 39 38 36 35 33 32 30 27 23 19 21 22 19 17 15 13 15 16 10 7 7 8 8 6 7 12 17 20 24
28 27 25 23 22 20 18 18 16 14 14 14 15 17 15 15 20 26 25 33 32 33 35 31 28 22 22 22 23 21 17 16 12 12 10 9 9 7 6 6 7 8 9 10 16 20 19

GFSGBSN_500_spd_123.txt.gz
Wind_Speed
7 8 9 10 9 10 9 9 9 8 8 8 9 9 10 10 10 10 9 9 11 14 17 17 16 15 13 11 10 8 7 5 3 4 4 4 4 4 3 4 4 6 6 7 4 8 8
7 7 8 8 9 9 9 9 9 9 9 10 10 11 13 15 16 17 15 12 11 12 13 15 16 18 19 17 16 14 10 9 8 6 5 5 6 7 7 6 7 8 7 7 7 7 4
5 6 6 7 8 8 8 9 9 9 10 11 13 14 16 18 19 21 21 20 17 14 14 15 17 17 18 19 20 18 15 13 11 11 9 8 8 8 8 8 9 9 8 7 7 7 5
3 4 4 4 5 6 6 6 7 9 10 12 14 15 17 20 22 23 24 23 21 17 15 14 17 18 18 19 19 19 17 16 15 15 13 11 11 10 10 10 10 9 8 8 9 8 7
2 1 1 3 4 6 7 7 8 9 10 12 14 16 18 20 21 22 23 23 22 19 17 14 15 17 17 18 17 17 16 17 18 17 17 14 13 11 12 11 10 8 2 12 13 11 10
6 6 6 6 7 8 9 10 10 11 11 12 14 17 19 21 21 22 21 20 19 18 16 15 15 16 16 17 16 15 16 17 16 16 17 15 13 12 12 12 4 9 13 22 16 14 12
12 12 12 12 12 13 13 13 13 13 14 14 15 16 19 21 22 21 20 19 18 16 15 15 14 15 15 15 15 14 16 16 16 17 16 14 14 13 13 15 17 18 16 14 20 17 15
18 18 18 18 18 18 18 18 17 17 16 16 16 17 19 22 23 20 20 18 17 16 15 14 13 13 12 14 14 14 16 16 15 16 14 15 13 14 18 15 16 15 16 17 20 19 17
23 24 24 24 24 24 23 23 22 21 20 19 18 18 18 20 21 20 20 16 14 14 15 13 11 12 11 12 12 14 16 16 16 16 15 14 13 21 13 14 13 12 14 13 19 14 16
26 28 29 29 29 29 28 28 26 25 24 22 21 19 19 19 20 19 18 14 11 14 16 8 10 9 9 10 11 12 14 15 15 16 16 18 23 13 15 15 14 12 16 21 21 15 9
30 30 31 31 32 31 31 31 30 29 27 25 23 21 19 19 18 17 17 15 11 12 5 16 12 10 8 8 9 11 11 11 12 14 14 18 16 16 17 17 17 16 23 16 20 19 17
35 35 35 35 34 34 34 33 33 31 30 28 26 23 20 19 18 16 15 14 11 11 10 16 14 10 8 6 7 8 10 11 11 11 14 16 12 15 16 18 16 21 20 17 17 15 15
43 43 42 42 41 39 37 35 34 33 33 31 29 26 23 19 18 16 14 15 12 9 13 16 13 7 6 4 5 6 8 9 9 8 9 11 13 15 18 17 18 19 18 9 8 11 12
49 50 50 50 49 47 45 42 39 36 35 34 32 29 26 23 19 17 16 16 14 12 15 13 11 10 8 4 5 5 5 6 7 10 7 6 13 17 17 18 16 18 17 11 10 6 21
43 44 46 48 51 53 53 50 47 43 39 38 35 33 30 26 22 20 19 17 14 15 14 16 12 10 10 10 7 5 6 7 14 13 13 7 9 18 14 14 17 11 17 15 20 19 17
41 41 43 44 44 46 48 50 51 50 46 43 40 37 33 30 26 24 23 19 18 18 17 16 15 12 10 11 9 6 9 12 14 15 15 15 14 14 15 14 16 18 18 16 14 14 17
39 41 41 44 46 46 46 47 46 48 48 46 44 42 36 34 32 29 25 23 22 20 20 18 17 17 14 17 13 11 10 18 12 12 16 17 14 12 22 15 12 13 18 18 13 22 25
42 44 45 44 45 45 44 45 44 43 46 46 45 45 39 39 36 32 30 27 28 23 22 21 19 20 18 18 16 15 11 17 11 14 13 19 15 13 13 12 13 19 16 18 22 20 21
44 45 43 43 39 39 39 37 39 40 40 43 45 45 41 43 38 36 33 33 31 26 24 24 20 22 25 21 18 17 19 19 17 18 21 18 16 14 13 13 20 20 23 18 20 27 28
43 42 42 37 34 33 34 34 34 36 37 37 41 44 43 43 40 41 38 36 32 29 27 27 22 23 25 22 19 16 16 21 18 20 15 17 17 19 17 17 27 35 27 30 32 27 18
42 41 37 34 35 36 32 29 30 31 36 36 37 43 46 44 42 40 39 37 34 31 28 29 25 24 21 21 13 13 18 22 17 19 16 16 16 19 21 24 26 28 38 39 34 20 28
39 36 32 31 32 31 30 27 27 28 29 34 36 38 44 51 43 42 41 39 34 30 29 31 25 21 23 19 14 12 17 19 16 19 16 17 18 21 23 22 23 29 32 35 31 23 31
36 33 31 30 30 28 28 25 25 26 25 30 33 30 31 47 44 42 39 37 36 33 29 30 24 23 20 20 17 20 22 20 19 18 18 20 20 16 14 14 22 22 22 36 37 35 24
32 30 30 29 27 26 27 24 22 21 23 23 28 27 23 42 47 42 39 39 38 36 36 29 28 28 24 24 26 21 20 21 17 17 18 21 21 19 17 17 25 30 25 40 32 30 46
30 28 29 28 25 24 25 24 21 20 23 24 21 25 22 32 47 44 43 43 41 40 42 38 30 29 30 27 23 23 19 19 17 18 17 19 16 15 14 14 22 21 23 24 27 35 37
28 27 28 27 25 23 23 24 21 17 18 20 17 18 20 21 36 46 46 46 42 40 35 35 36 30 28 23 20 19 14 14 17 16 16 13 13 14 15 19 18 18 23 17 18 24 33
28 27 27 25 25 23 22 23 21 17 16 17 16 14 15 17 25 34 47 53 45 40 27 34 30 33 30 25 18 15 15 25 17 17 18 16 14 14 13 18 11 20 19 11 13 18 19
27 26 26 25 23 22 21 21 21 17 14 12 10 11 13 16 19 21 30 46 52 42 41 35 33 34 31 29 20 23 24 25 17 19 20 16 15 13 16 17 16 13 15 15 14 14 4
26 25 25 25 24 22 21 19 21 18 15 13 10 11 11 11 15 20 25 36 49 42 40 39 36 33 33 27 22 22 22 17 16 13 18 16 15 7 18 13 13 13 16 11 12 16 18

GFSGBSN_500_spd_126.txt.gz
Wind_Speed
6 8 8 9 9 8 9 9 8 8 8 7 8 9 10 11 11 12 12 11 10 11 11 12 14 16 15 11 9 6 4 3 3 4 4 5 5 5 4 5 4 6 8 7 5 8 9
6 7 7 8 8 8 9 9 8 8 8 8 9 10 11 12 14 16 16 15 14 12 12 14 14 15 16 16 16 13 10 8 7 6 5 6 7 9 10 9 7 3 7 7 7 6 4
3 5 5 6 6 5 5 6 6 6 7 8 10 11 12 14 16 19 21 21 21 18 14 13 15 17 16 16 15 18 17 14 12 10 9 7 8 8 10 11 9 6 8 7 9 8 7
3 3 3 2 2 3 3 4 5 6 7 9 11 13 14 16 17 19 21 22 22 21 18 15 15 16 17 18 17 16 16 17 16 14 11 9 10 10 10 9 8 6 3 4 15 11 8
5 4 3 3 3 3 4 5 6 8 9 10 11 12 14 16 18 19 22 23 21 20 19 17 16 17 17 18 16 17 17 16 17 16 13 12 11 12 11 9 7 3 6 5 11 15 13
8 8 8 9 9 9 9 10 11 12 12 13 13 13 13 15 18 20 21 21 22 20 19 18 17 17 16 15 17 18 17 16 16 16 15 14 13 12 12 11 5 11 12 14 18 13 14
14 14 15 15 15 15 15 16 16 16 17 17 17 16 15 15 16 19 20 21 22 20 20 19 16 16 14 14 15 17 17 17 16 15 14 13 13 12 11 11 16 15 15 9 21 14 15
18 20 21 21 21 22 21 21 22 22 21 20 20 19 19 17 17 17 19 20 21 21 19 17 14 13 12 12 14 16 16 16 16 15 14 13 10 12 15 14 17 17 24 20 25 16 15
20 22 24 25 26 27 27 27 26 26 26 25 24 23 21 19 18 17 17 18 20 20 21 16 12 11 11 11 13 15 16 16 16 15 14 14 8 17 18 18 17 15 13 7 20 16 11
25 26 27 28 29 29 29 29 29 29 28 28 27 26 24 22 19 16 16 16 18 17 20 4 11 11 10 11 11 13 15 17 17 17 16 15 14 18 10 12 13 12 11 17 26 21 16
32 33 33 34 34 33 33 33 32 31 30 30 29 27 27 25 21 18 16 15 15 13 14 14 12 12 10 10 9 12 13 14 15 18 17 14 21 13 14 13 14 14 19 20 17 20 19
40 41 42 42 42 41 40 38 37 35 33 32 31 30 28 27 24 20 16 15 13 12 10 17 14 12 9 9 8 9 11 11 12 14 17 20 14 15 14 16 16 18 23 15 15 16 15
40 42 44 46 48 49 48 47 45 42 38 36 34 33 30 29 26 23 19 17 15 12 14 17 14 8 7 4 6 6 7 9 11 10 8 10 10 10 13 15 15 15 16 12 5 9 6
42 43 43 43 44 43 45 48 50 50 46 42 38 36 34 32 29 26 23 20 15 12 11 14 12 12 3 8 5 4 4 8 7 11 6 7 13 14 16 15 15 14 16 11 8 8 12
39 39 39 40 41 42 42 43 43 45 47 46 46 41 38 35 33 31 29 24 13 13 6 16 18 12 7 13 8 8 5 6 10 13 17 9 10 20 16 15 16 11 12 14 21 19 15
37 36 37 37 37 38 40 42 44 44 43 42 46 44 43 39 37 36 34 24 20 19 14 16 17 11 11 11 11 9 8 10 17 12 15 18 17 12 16 15 14 20 23 19 18 13 17
41 40 40 42 43 43 42 40 39 41 42 42 41 43 47 42 42 40 34 26 25 24 21 22 17 10 14 12 16 8 4 20 18 12 16 20 17 9 18 13 13 13 18 19 22 23 24
41 40 41 40 41 42 41 42 38 35 35 37 40 39 46 43 44 41 36 31 29 27 26 22 23 21 17 17 22 20 10 18 21 16 15 21 23 22 13 12 14 13 17 16 17 14 19
41 39 38 39 41 40 40 37 32 30 32 33 35 39 41 39 42 40 37 36 34 32 24 26 25 23 18 22 23 17 17 29 19 16 18 17 15 18 19 14 13 14 17 17 24 27 23
38 38 38 40 41 38 36 32 32 34 32 29 30 31 38 39 40 41 40 38 36 36 32 26 26 23 20 25 21 22 26 27 17 20 15 17 20 21 20 23 21 20 24 23 31 32 32
37 37 38 40 38 35 31 30 32 30 29 25 26 29 38 36 42 43 42 41 40 36 35 30 27 24 21 22 17 20 21 22 23 18 16 16 18 22 22 24 33 23 20 26 41 32 34
38 39 39 37 36 31 29 30 30 29 28 25 25 29 34 32 36 44 46 43 42 34 36 34 28 23 21 23 18 12 15 23 22 24 13 17 19 22 22 20 21 33 26 23 37 35 43
39 41 38 34 32 29 28 28 28 26 26 25 24 27 29 34 36 39 44 40 40 40 32 24 30 28 24 24 19 17 16 27 19 19 16 18 19 20 18 11 15 16 18 24 38 33 32
39 38 37 33 30 28 27 26 26 25 25 24 22 22 28 32 36 38 47 51 47 40 38 25 25 28 28 22 19 22 25 26 24 19 19 21 20 18 19 17 21 18 29 30 35 39 29
38 37 35 31 30 27 27 25 24 24 23 24 23 22 23 27 33 31 46 56 54 50 47 43 33 24 33 25 31 31 33 29 21 21 22 21 21 18 20 16 15 24 29 23 23 24 33
36 36 34 30 30 26 25 23 23 23 21 22 22 19 19 20 24 26 45 52 46 47 48 45 38 36 31 37 27 33 23 14 14 9 19 19 20 16 17 19 20 22 19 14 22 22 27
35 34 33 30 29 26 24 22 23 23 21 20 20 17 18 17 21 22 40 43 51 41 43 44 47 38 44 27 27 24 23 21 22 21 25 18 17 17 16 18 16 23 20 15 23 26 24
34 32 32 28 29 26 23 21 22 23 20 18 18 14 13 16 17 22 29 50 43 43 38 39 41 46 40 38 32 30 27 18 23 27 23 23 17 16 15 18 20 18 20 25 28 21 20
32 29 29 28 28 25 23 22 21 22 20 17 17 14 10 10 13 16 25 29 46 50 42 41 39 41 44 37 35 34 25 18 25 21 23 20 20 18 23 16 22 13 19 25 21 22 15

GFSGBSN_500_spd_129.txt.gz
Wind_Speed
6 7 7 8 9 9 9 9 9 8 8 8 8 8 8 8 10 11 12 12 12 11 11 11 11 11 12 12 11 8 7 6 5 4 5 8 9 8 8 3 5 5 7 6 7 9 10
6 6 6 7 7 8 7 7 6 5 6 6 7 8 8 9 11 12 14 16 17 15 13 13 13 14 13 10 16 16 13 11 10 8 6 8 10 10 7 3 5 1 3 7 5 8 7
3 4 4 4 4 4 3 4 3 4 5 6 7 9 10 11 12 14 16 18 19 19 18 14 15 15 16 17 15 16 18 17 15 12 10 10 7 10 11 7 4 2 3 7 4 2 3
2 2 2 2 1 1 1 2 3 5 6 7 8 8 9 11 12 14 16 18 19 20 20 17 14 14 18 18 18 17 17 17 18 16 14 12 10 9 10 8 7 6 10 6 10 8 4
5 5 5 5 5 5 5 6 7 8 10 11 12 11 11 12 13 14 16 19 20 20 20 18 16 14 16 18 19 18 18 18 15 16 15 15 14 12 12 9 9 10 6 9 9 4 8
9 9 10 10 11 11 11 11 12 13 14 15 16 17 16 15 15 15 16 18 19 20 20 20 19 16 13 15 20 20 19 18 17 17 16 16 16 14 11 11 12 13 4 11 10 5 11
13 15 16 17 18 18 18 18 18 18 18 19 19 19 19 18 18 18 18 18 19 19 20 21 21 16 13 13 17 18 20 18 17 17 16 17 15 13 13 16 17 9 12 15 13 18 11
15 18 20 22 23 24 24 25 25 25 25 24 23 22 22 21 21 20 19 19 20 19 21 22 21 16 13 11 14 16 17 17 17 18 18 15 14 14 16 20 16 11 13 19 19 19 14
20 21 23 24 25 26 27 27 27 28 28 27 27 26 25 24 23 22 21 20 20 20 20 20 14 12 12 10 11 13 15 16 17 18 17 17 19 18 17 18 20 17 16 10 22 22 10
27 27 28 29 30 30 30 31 31 31 30 30 29 28 28 26 25 24 23 22 20 19 20 14 13 10 9 10 11 11 13 15 17 17 18 18 19 18 19 19 20 15 8 10 20 23 15
35 36 36 37 37 37 37 37 37 36 34 33 32 30 29 28 28 26 25 23 21 19 21 16 6 11 11 11 9 9 12 13 15 19 18 15 19 19 15 16 15 18 13 17 22 20 11
36 37 38 39 40 41 42 43 44 43 41 39 37 34 32 31 30 27 27 25 22 18 20 18 4 9 9 9 7 6 9 11 13 17 18 19 23 21 14 18 18 21 22 20 13 8 7
37 38 39 41 41 42 42 42 41 41 42 43 44 40 38 33 33 30 30 27 24 17 17 17 13 7 9 6 3 1 5 7 10 10 11 5 6 9 8 17 18 18 16 14 6 3 1
36 35 34 34 35 34 34 37 37 38 39 40 41 42 41 39 37 34 33 31 26 17 10 14 17 12 7 6 7 1 5 6 7 11 11 1 5 10 12 10 12 13 13 12 11 7 9
41 40 38 36 35 35 34 35 35 35 37 37 39 39 34 43 41 39 37 35 23 19 19 2 19 22 13 9 13 11 4 7 6 10 13 13 15 17 15 9 12 10 12 12 19 20 16
39 40 40 39 39 40 41 40 40 40 40 35 36 39 37 39 42 44 42 33 25 23 24 26 19 25 17 11 11 12 12 10 9 17 14 17 11 10 12 7 7 13 18 17 18 24 22
39 39 37 37 37 38 39 39 38 39 40 37 35 33 40 38 39 46 43 33 28 27 30 29 21 19 8 12 22 21 6 10 21 17 12 25 19 10 15 8 11 10 17 16 18 23 28
37 38 37 38 39 38 37 38 38 37 38 35 27 27 36 35 38 41 40 35 33 32 36 35 29 27 20 19 14 18 17 20 22 22 17 22 24 27 23 14 9 11 11 19 20 25 26
37 38 37 38 38 37 36 38 38 37 34 31 28 29 31 29 32 37 37 38 36 37 38 37 26 29 28 21 30 29 29 27 30 21 14 17 17 25 24 19 14 11 12 16 20 22 25
39 39 38 38 38 37 38 39 38 36 32 26 26 26 31 29 30 36 37 39 40 35 38 38 33 23 35 24 31 35 33 37 34 27 22 21 21 21 22 26 27 26 26 27 29 28 32
41 41 39 38 38 38 38 39 36 35 31 28 26 26 26 26 26 32 37 40 42 38 40 34 31 24 34 28 33 35 34 37 31 25 26 23 19 20 15 22 33 34 32 31 36 35 37
41 41 41 39 39 38 37 35 32 33 31 27 24 22 24 22 25 26 28 36 42 37 44 43 34 27 29 29 29 26 23 23 27 26 20 21 20 19 17 21 29 34 34 36 34 36 44
41 42 40 38 38 36 35 33 31 30 29 27 23 24 20 23 27 30 29 35 46 46 51 50 41 28 23 28 28 24 26 19 22 25 27 19 20 19 17 23 30 31 33 36 39 42 43
42 42 38 36 37 35 33 31 30 29 29 26 24 22 20 19 24 30 37 33 41 55 51 48 43 39 33 32 28 26 20 24 21 28 27 21 21 18 15 21 24 22 27 30 31 28 33
42 38 35 35 36 34 32 30 29 29 27 26 24 21 19 19 23 26 36 38 34 39 51 46 47 48 41 39 40 37 32 35 24 36 28 24 23 20 20 22 19 22 27 30 26 26 33
38 36 34 34 36 33 31 28 28 29 26 25 24 21 19 18 23 25 29 33 35 39 50 50 48 51 45 49 39 39 41 38 34 29 28 27 20 22 21 20 19 19 28 25 24 24 22
38 36 35 35 34 32 30 27 26 28 26 25 24 20 18 16 23 20 23 30 34 38 55 54 55 41 44 48 42 35 37 34 35 28 26 23 19 19 21 20 21 22 28 22 22 21 27
35 34 35 35 33 29 26 26 25 26 26 25 23 19 15 15 21 17 21 22 45 44 51 56 49 44 37 46 38 39 33 33 35 30 32 25 25 19 21 25 23 20 21 21 18 17 21
34 33 33 32 31 28 25 24 24 25 26 25 22 19 14 13 14 15 19 20 40 41 42 55 48 49 51 47 42 42 40 36 27 26 26 28 27 28 25 22 16 18 21 22 21 23 26